Wetterdaten: Mittwoch, 11.04.2018
Datum Zeit Temp. A. Feuchte A. Luftdruck Regen Wind Richtung Richtung Sonnenschein ET UV Solar Taupunkt Windchill Windböen
11.04.2018 00:00 8,1 °C 82 % 1003,6 hPa 0,0 mm 4,1 km/h (1 Bft) SW 216 ° 0 min 0,000 mm 0,0 UV-I 0 W/m² 5,2 °C 8,1 °C 6,4 km/h (2 Bft)
11.04.2018 00:01 8,1 °C 82 % 1003,6 hPa 0,0 mm 3,1 km/h (1 Bft) SW 232 ° 0 min 0,000 mm 0,0 UV-I 0 W/m² 5,2 °C 8,1 °C 4,8 km/h (1 Bft)
11.04.2018 00:02 8,1 °C 82 % 1003,6 hPa 0,0 mm 2,8 km/h (1 Bft) SW 228 ° 0 min 0,000 mm 0,0 UV-I 0 W/m² 5,2 °C 8,1 °C 4,8 km/h (1 Bft)
11.04.2018 00:03 8,1 °C 82 % 1003,5 hPa 0,0 mm 2,5 km/h (1 Bft) SW 228 ° 0 min 0,000 mm 0,0 UV-I 0 W/m² 5,2 °C 8,1 °C 3,2 km/h (1 Bft)
11.04.2018 00:04 8,1 °C 83 % 1003,5 hPa 0,0 mm 3,5 km/h (1 Bft) SW 234 ° 0 min 0,000 mm 0,0 UV-I 0 W/m² 5,4 °C 8,1 °C 4,8 km/h (1 Bft)
11.04.2018 00:05 8,1 °C 83 % 1003,6 hPa 0,0 mm 2,4 km/h (1 Bft) SW 234 ° 0 min 0,000 mm 0,0 UV-I 0 W/m² 5,4 °C 8,1 °C 3,2 km/h (1 Bft)
11.04.2018 00:06 8,1 °C 83 % 1003,6 hPa 0,0 mm 2,3 km/h (1 Bft) SW 233 ° 0 min 0,000 mm 0,0 UV-I 0 W/m² 5,4 °C 8,1 °C 6,4 km/h (2 Bft)
11.04.2018 00:07 8,1 °C 83 % 1003,6 hPa 0,0 mm 1,6 km/h (1 Bft) SW 232 ° 0 min 0,000 mm 0,0 UV-I 0 W/m² 5,4 °C 8,1 °C 4,8 km/h (1 Bft)
11.04.2018 00:08 8,1 °C 83 % 1003,6 hPa 0,0 mm 0,9 km/h (0 Bft) W-SW 244 ° 0 min 0,000 mm 0,0 UV-I 0 W/m² 5,4 °C 8,1 °C 3,2 km/h (1 Bft)
11.04.2018 00:09 8,1 °C 83 % 1003,6 hPa 0,0 mm 2,4 km/h (1 Bft) W-SW 251 ° 0 min 0,000 mm 0,0 UV-I 0 W/m² 5,4 °C 8,1 °C 3,2 km/h (1 Bft)
11.04.2018 00:10 8,1 °C 83 % 1003,6 hPa 0,0 mm 1,9 km/h (1 Bft) W-SW 243 ° 0 min 0,000 mm 0,0 UV-I 0 W/m² 5,4 °C 8,1 °C 3,2 km/h (1 Bft)
11.04.2018 00:11 8,0 °C 83 % 1003,6 hPa 0,0 mm 0,0 km/h (0 Bft) W-SW 243 ° 0 min 0,000 mm 0,0 UV-I 0 W/m² 5,3 °C 8,0 °C 0,0 km/h (0 Bft)
11.04.2018 00:12 8,0 °C 83 % 1003,7 hPa 0,0 mm 0,0 km/h (0 Bft) W-SW 243 ° 0 min 0,000 mm 0,0 UV-I 0 W/m² 5,3 °C 8,0 °C 0,0 km/h (0 Bft)
11.04.2018 00:13 8,0 °C 83 % 1003,7 hPa 0,0 mm 0,0 km/h (0 Bft) W-SW 243 ° 0 min 0,000 mm 0,0 UV-I 0 W/m² 5,3 °C 8,0 °C 0,0 km/h (0 Bft)
11.04.2018 00:14 8,0 °C 83 % 1003,7 hPa 0,0 mm 0,0 km/h (0 Bft) W-SW 243 ° 0 min 0,000 mm 0,0 UV-I 0 W/m² 5,3 °C 8,0 °C 0,0 km/h (0 Bft)
11.04.2018 00:15 7,9 °C 84 % 1003,7 hPa 0,0 mm 0,1 km/h (0 Bft) W-SW 243 ° 0 min 0,000 mm 0,0 UV-I 0 W/m² 5,4 °C 7,9 °C 1,6 km/h (1 Bft)
11.04.2018 00:16 7,9 °C 83 % 1003,7 hPa 0,0 mm 0,4 km/h (0 Bft) W-SW 243 ° 0 min 0,000 mm 0,0 UV-I 0 W/m² 5,2 °C 7,9 °C 1,6 km/h (1 Bft)
11.04.2018 00:17 7,9 °C 83 % 1003,8 hPa 0,0 mm 0,4 km/h (0 Bft) W-SW 243 ° 0 min 0,000 mm 0,0 UV-I 0 W/m² 5,2 °C 7,9 °C 1,6 km/h (1 Bft)
11.04.2018 00:18 7,9 °C 84 % 1003,8 hPa 0,0 mm 1,3 km/h (1 Bft) W-SW 243 ° 0 min 0,000 mm 0,0 UV-I 0 W/m² 5,4 °C 7,9 °C 3,2 km/h (1 Bft)
11.04.2018 00:19 7,9 °C 84 % 1003,8 hPa 0,0 mm 0,1 km/h (0 Bft) W-SW 243 ° 0 min 0,000 mm 0,0 UV-I 0 W/m² 5,4 °C 7,9 °C 1,6 km/h (1 Bft)
11.04.2018 00:20 7,8 °C 83 % 1003,8 hPa 0,0 mm 1,4 km/h (1 Bft) W-SW 243 ° 0 min 0,000 mm 0,0 UV-I 0 W/m² 5,1 °C 7,8 °C 3,2 km/h (1 Bft)
11.04.2018 00:21 7,8 °C 84 % 1003,7 hPa 0,0 mm 2,3 km/h (1 Bft) W-SW 243 ° 0 min 0,000 mm 0,0 UV-I 0 W/m² 5,3 °C 7,8 °C 3,2 km/h (1 Bft)
11.04.2018 00:22 7,8 °C 84 % 1003,7 hPa 0,0 mm 2,2 km/h (1 Bft) W-SW 253 ° 0 min 0,000 mm 0,0 UV-I 0 W/m² 5,3 °C 7,8 °C 4,8 km/h (1 Bft)
11.04.2018 00:23 7,8 °C 84 % 1003,7 hPa 0,0 mm 1,9 km/h (1 Bft) W-SW 255 ° 0 min 0,000 mm 0,0 UV-I 0 W/m² 5,3 °C 7,8 °C 3,2 km/h (1 Bft)
11.04.2018 00:24 7,8 °C 84 % 1003,8 hPa 0,0 mm 1,1 km/h (1 Bft) W-SW 255 ° 0 min 0,000 mm 0,0 UV-I 0 W/m² 5,3 °C 7,8 °C 3,2 km/h (1 Bft)
11.04.2018 00:25 7,8 °C 84 % 1003,8 hPa 0,0 mm 1,2 km/h (1 Bft) W-SW 255 ° 0 min 0,000 mm 0,0 UV-I 0 W/m² 5,3 °C 7,8 °C 3,2 km/h (1 Bft)
11.04.2018 00:26 7,8 °C 84 % 1003,8 hPa 0,0 mm 2,5 km/h (1 Bft) W-SW 255 ° 0 min 0,000 mm 0,0 UV-I 0 W/m² 5,3 °C 7,8 °C 3,2 km/h (1 Bft)
11.04.2018 00:27 7,8 °C 84 % 1003,8 hPa 0,0 mm 2,5 km/h (1 Bft) W-SW 240 ° 0 min 0,000 mm 0,0 UV-I 0 W/m² 5,3 °C 7,8 °C 4,8 km/h (1 Bft)
11.04.2018 00:28 7,8 °C 84 % 1003,7 hPa 0,0 mm 3,2 km/h (1 Bft) SW 236 ° 0 min 0,000 mm 0,0 UV-I 0 W/m² 5,3 °C 7,8 °C 4,8 km/h (1 Bft)
11.04.2018 00:29 7,8 °C 84 % 1003,8 hPa 0,0 mm 1,5 km/h (1 Bft) SW 236 ° 0 min 0,000 mm 0,0 UV-I 0 W/m² 5,3 °C 7,8 °C 3,2 km/h (1 Bft)
11.04.2018 00:30 7,8 °C 84 % 1003,7 hPa 0,0 mm 1,1 km/h (1 Bft) SW 236 ° 0 min 0,000 mm 0,0 UV-I 0 W/m² 5,3 °C 7,8 °C 3,2 km/h (1 Bft)
11.04.2018 00:31 7,8 °C 84 % 1003,7 hPa 0,0 mm 2,4 km/h (1 Bft) W-SW 238 ° 0 min 0,000 mm 0,0 UV-I 0 W/m² 5,3 °C 7,8 °C 6,4 km/h (2 Bft)
11.04.2018 00:32 7,8 °C 84 % 1003,7 hPa 0,0 mm 2,7 km/h (1 Bft) W-SW 238 ° 0 min 0,000 mm 0,0 UV-I 0 W/m² 5,3 °C 7,8 °C 4,8 km/h (1 Bft)
11.04.2018 00:33 7,8 °C 84 % 1003,7 hPa 0,0 mm 2,7 km/h (1 Bft) W-SW 238 ° 0 min 0,000 mm 0,0 UV-I 0 W/m² 5,3 °C 7,8 °C 3,2 km/h (1 Bft)
11.04.2018 00:34 7,8 °C 84 % 1003,8 hPa 0,0 mm 3,6 km/h (1 Bft) W-SW 238 ° 0 min 0,000 mm 0,0 UV-I 0 W/m² 5,3 °C 7,8 °C 4,8 km/h (1 Bft)
11.04.2018 00:35 7,8 °C 84 % 1003,8 hPa 0,0 mm 3,2 km/h (1 Bft) W 266 ° 0 min 0,000 mm 0,0 UV-I 0 W/m² 5,3 °C 7,8 °C 6,4 km/h (2 Bft)
11.04.2018 00:36 7,8 °C 84 % 1003,7 hPa 0,0 mm 3,6 km/h (1 Bft) W-SW 252 ° 0 min 0,000 mm 0,0 UV-I 0 W/m² 5,3 °C 7,8 °C 6,4 km/h (2 Bft)
11.04.2018 00:37 7,8 °C 84 % 1003,7 hPa 0,0 mm 2,7 km/h (1 Bft) W-SW 250 ° 0 min 0,000 mm 0,0 UV-I 0 W/m² 5,3 °C 7,8 °C 4,8 km/h (1 Bft)
11.04.2018 00:38 7,8 °C 84 % 1003,8 hPa 0,0 mm 1,5 km/h (1 Bft) W-SW 250 ° 0 min 0,000 mm 0,0 UV-I 0 W/m² 5,3 °C 7,8 °C 3,2 km/h (1 Bft)
11.04.2018 00:39 7,8 °C 84 % 1003,7 hPa 0,0 mm 0,0 km/h (0 Bft) W-SW 250 ° 0 min 0,000 mm 0,0 UV-I 0 W/m² 5,3 °C 7,8 °C 0,0 km/h (0 Bft)
11.04.2018 00:40 7,8 °C 84 % 1003,7 hPa 0,0 mm 1,5 km/h (1 Bft) W-SW 250 ° 0 min 0,000 mm 0,0 UV-I 0 W/m² 5,3 °C 7,8 °C 3,2 km/h (1 Bft)
11.04.2018 00:41 7,8 °C 84 % 1003,7 hPa 0,0 mm 0,8 km/h (0 Bft) W-SW 250 ° 0 min 0,000 mm 0,0 UV-I 0 W/m² 5,3 °C 7,8 °C 3,2 km/h (1 Bft)
11.04.2018 00:42 7,8 °C 84 % 1003,7 hPa 0,0 mm 0,1 km/h (0 Bft) W-SW 250 ° 0 min 0,000 mm 0,0 UV-I 0 W/m² 5,3 °C 7,8 °C 1,6 km/h (1 Bft)
11.04.2018 00:43 7,8 °C 84 % 1003,7 hPa 0,0 mm 1,0 km/h (0 Bft) W-SW 250 ° 0 min 0,000 mm 0,0 UV-I 0 W/m² 5,3 °C 7,8 °C 3,2 km/h (1 Bft)
11.04.2018 00:44 7,8 °C 84 % 1003,7 hPa 0,0 mm 0,3 km/h (0 Bft) W-SW 250 ° 0 min 0,000 mm 0,0 UV-I 0 W/m² 5,3 °C 7,8 °C 1,6 km/h (1 Bft)
11.04.2018 00:45 7,8 °C 84 % 1003,7 hPa 0,0 mm 0,1 km/h (0 Bft) W-SW 250 ° 0 min 0,000 mm 0,0 UV-I 0 W/m² 5,3 °C 7,8 °C 1,6 km/h (1 Bft)
11.04.2018 00:46 7,7 °C 84 % 1003,7 hPa 0,0 mm 3,1 km/h (1 Bft) W-SW 243 ° 0 min 0,000 mm 0,0 UV-I 0 W/m² 5,2 °C 7,7 °C 4,8 km/h (1 Bft)
11.04.2018 00:47 7,7 °C 84 % 1003,8 hPa 0,0 mm 1,3 km/h (1 Bft) W-SW 243 ° 0 min 0,000 mm 0,0 UV-I 0 W/m² 5,2 °C 7,7 °C 3,2 km/h (1 Bft)
11.04.2018 00:48 7,7 °C 84 % 1003,8 hPa 0,0 mm 1,3 km/h (1 Bft) W-SW 243 ° 0 min 0,000 mm 0,0 UV-I 0 W/m² 5,2 °C 7,7 °C 3,2 km/h (1 Bft)
11.04.2018 00:49 7,7 °C 84 % 1003,8 hPa 0,0 mm 1,8 km/h (1 Bft) W-SW 243 ° 0 min 0,000 mm 0,0 UV-I 0 W/m² 5,2 °C 7,7 °C 3,2 km/h (1 Bft)
11.04.2018 00:50 7,6 °C 84 % 1003,8 hPa 0,0 mm 3,8 km/h (1 Bft) SW 229 ° 0 min 0,000 mm 0,0 UV-I 0 W/m² 5,1 °C 7,6 °C 6,4 km/h (2 Bft)
11.04.2018 00:51 7,6 °C 84 % 1003,8 hPa 0,0 mm 5,4 km/h (1 Bft) S-SW 209 ° 0 min 0,000 mm 0,0 UV-I 0 W/m² 5,1 °C 6,9 °C 8,0 km/h (2 Bft)
11.04.2018 00:52 7,6 °C 84 % 1003,8 hPa 0,0 mm 4,8 km/h (1 Bft) S-SW 209 ° 0 min 0,000 mm 0,0 UV-I 0 W/m² 5,1 °C 7,1 °C 6,4 km/h (2 Bft)
11.04.2018 00:53 7,6 °C 84 % 1003,8 hPa 0,0 mm 2,7 km/h (1 Bft) S-SW 209 ° 0 min 0,000 mm 0,0 UV-I 0 W/m² 5,1 °C 7,6 °C 6,4 km/h (2 Bft)
11.04.2018 00:54 7,5 °C 84 % 1003,8 hPa 0,0 mm 6,1 km/h (2 Bft) S-SW 198 ° 0 min 0,000 mm 0,0 UV-I 0 W/m² 5,0 °C 6,6 °C 8,0 km/h (2 Bft)
11.04.2018 00:55 7,5 °C 84 % 1003,8 hPa 0,0 mm 5,7 km/h (1 Bft) S-SW 194 ° 0 min 0,000 mm 0,0 UV-I 0 W/m² 5,0 °C 6,7 °C 8,0 km/h (2 Bft)
11.04.2018 00:56 7,5 °C 84 % 1003,8 hPa 0,0 mm 4,0 km/h (1 Bft) SW 217 ° 0 min 0,000 mm 0,0 UV-I 0 W/m² 5,0 °C 7,5 °C 6,4 km/h (2 Bft)
11.04.2018 00:57 7,5 °C 84 % 1003,8 hPa 0,0 mm 6,8 km/h (2 Bft) S-SW 196 ° 0 min 0,000 mm 0,0 UV-I 0 W/m² 5,0 °C 6,4 °C 9,7 km/h (2 Bft)
11.04.2018 00:58 7,5 °C 84 % 1003,8 hPa 0,0 mm 5,0 km/h (1 Bft) S 190 ° 0 min 0,000 mm 0,0 UV-I 0 W/m² 5,0 °C 6,9 °C 8,0 km/h (2 Bft)
11.04.2018 00:59 7,5 °C 84 % 1003,8 hPa 0,0 mm 2,4 km/h (1 Bft) S 190 ° 0 min 0,000 mm 0,0 UV-I 0 W/m² 5,0 °C 7,5 °C 4,8 km/h (1 Bft)
11.04.2018 01:00 7,4 °C 84 % 1003,8 hPa 0,0 mm 0,2 km/h (0 Bft) S 190 ° 0 min 0,000 mm 0,0 UV-I 0 W/m² 4,9 °C 7,4 °C 1,6 km/h (1 Bft)
11.04.2018 01:01 7,3 °C 84 % 1003,9 hPa 0,0 mm 0,0 km/h (0 Bft) S 190 ° 0 min 0,000 mm 0,0 UV-I 0 W/m² 4,8 °C 7,3 °C 0,0 km/h (0 Bft)
11.04.2018 01:02 7,2 °C 84 % 1003,9 hPa 0,0 mm 0,0 km/h (0 Bft) S 190 ° 0 min 0,000 mm 0,0 UV-I 0 W/m² 4,7 °C 7,2 °C 0,0 km/h (0 Bft)
11.04.2018 01:03 7,1 °C 85 % 1003,8 hPa 0,0 mm 0,0 km/h (0 Bft) S 190 ° 0 min 0,000 mm 0,0 UV-I 0 W/m² 4,8 °C 7,1 °C 0,0 km/h (0 Bft)
11.04.2018 01:04 7,1 °C 85 % 1003,8 hPa 0,0 mm 0,0 km/h (0 Bft) S 190 ° 0 min 0,000 mm 0,0 UV-I 0 W/m² 4,8 °C 7,1 °C 0,0 km/h (0 Bft)
11.04.2018 01:05 7,1 °C 85 % 1003,9 hPa 0,0 mm 0,0 km/h (0 Bft) S 190 ° 0 min 0,000 mm 0,0 UV-I 0 W/m² 4,8 °C 7,1 °C 0,0 km/h (0 Bft)
11.04.2018 01:06 7,1 °C 85 % 1003,9 hPa 0,0 mm 0,0 km/h (0 Bft) S 190 ° 0 min 0,000 mm 0,0 UV-I 0 W/m² 4,8 °C 7,1 °C 0,0 km/h (0 Bft)
11.04.2018 01:07 7,1 °C 85 % 1003,9 hPa 0,0 mm 0,0 km/h (0 Bft) S 190 ° 0 min 0,000 mm 0,0 UV-I 0 W/m² 4,8 °C 7,1 °C 0,0 km/h (0 Bft)
11.04.2018 01:08 6,9 °C 85 % 1003,9 hPa 0,0 mm 0,0 km/h (0 Bft) S 190 ° 0 min 0,000 mm 0,0 UV-I 0 W/m² 4,6 °C 6,9 °C 0,0 km/h (0 Bft)
11.04.2018 01:09 6,9 °C 85 % 1003,9 hPa 0,0 mm 0,9 km/h (0 Bft) W 259 ° 0 min 0,000 mm 0,0 UV-I 0 W/m² 4,6 °C 6,9 °C 4,8 km/h (1 Bft)
11.04.2018 01:10 6,9 °C 85 % 1003,9 hPa 0,0 mm 3,2 km/h (1 Bft) W 259 ° 0 min 0,000 mm 0,0 UV-I 0 W/m² 4,6 °C 6,9 °C 3,2 km/h (1 Bft)
11.04.2018 01:11 6,9 °C 86 % 1003,9 hPa 0,0 mm 1,7 km/h (1 Bft) W 259 ° 0 min 0,000 mm 0,0 UV-I 0 W/m² 4,7 °C 6,9 °C 3,2 km/h (1 Bft)
11.04.2018 01:12 6,9 °C 86 % 1003,9 hPa 0,0 mm 1,7 km/h (1 Bft) W 259 ° 0 min 0,000 mm 0,0 UV-I 0 W/m² 4,7 °C 6,9 °C 3,2 km/h (1 Bft)
11.04.2018 01:13 6,8 °C 85 % 1003,9 hPa 0,0 mm 0,3 km/h (0 Bft) W 259 ° 0 min 0,000 mm 0,0 UV-I 0 W/m² 4,5 °C 6,8 °C 1,6 km/h (1 Bft)
11.04.2018 01:14 6,8 °C 86 % 1003,8 hPa 0,0 mm 0,0 km/h (0 Bft) W 259 ° 0 min 0,000 mm 0,0 UV-I 0 W/m² 4,6 °C 6,8 °C 0,0 km/h (0 Bft)
11.04.2018 01:15 6,8 °C 86 % 1003,9 hPa 0,0 mm 0,0 km/h (0 Bft) W 259 ° 0 min 0,000 mm 0,0 UV-I 0 W/m² 4,6 °C 6,8 °C 0,0 km/h (0 Bft)
11.04.2018 01:16 6,8 °C 86 % 1003,9 hPa 0,0 mm 0,0 km/h (0 Bft) W 259 ° 0 min 0,000 mm 0,0 UV-I 0 W/m² 4,6 °C 6,8 °C 0,0 km/h (0 Bft)
11.04.2018 01:17 6,9 °C 86 % 1003,9 hPa 0,0 mm 0,0 km/h (0 Bft) W 259 ° 0 min 0,000 mm 0,0 UV-I 0 W/m² 4,7 °C 6,9 °C 0,0 km/h (0 Bft)
11.04.2018 01:18 6,9 °C 86 % 1003,9 hPa 0,0 mm 0,0 km/h (0 Bft) W 259 ° 0 min 0,000 mm 0,0 UV-I 0 W/m² 4,7 °C 6,9 °C 0,0 km/h (0 Bft)
11.04.2018 01:19 6,9 °C 86 % 1003,9 hPa 0,0 mm 0,0 km/h (0 Bft) W 259 ° 0 min 0,000 mm 0,0 UV-I 0 W/m² 4,7 °C 6,9 °C 0,0 km/h (0 Bft)
11.04.2018 01:20 6,9 °C 86 % 1003,9 hPa 0,0 mm 0,0 km/h (0 Bft) W 259 ° 0 min 0,000 mm 0,0 UV-I 0 W/m² 4,7 °C 6,9 °C 0,0 km/h (0 Bft)
11.04.2018 01:21 6,9 °C 86 % 1003,9 hPa 0,0 mm 0,0 km/h (0 Bft) W 259 ° 0 min 0,000 mm 0,0 UV-I 0 W/m² 4,7 °C 6,9 °C 0,0 km/h (0 Bft)
11.04.2018 01:22 6,8 °C 86 % 1003,9 hPa 0,0 mm 0,0 km/h (0 Bft) W 259 ° 0 min 0,000 mm 0,0 UV-I 0 W/m² 4,6 °C 6,8 °C 0,0 km/h (0 Bft)
11.04.2018 01:23 6,8 °C 86 % 1003,9 hPa 0,0 mm 0,0 km/h (0 Bft) W 259 ° 0 min 0,000 mm 0,0 UV-I 0 W/m² 4,6 °C 6,8 °C 0,0 km/h (0 Bft)
11.04.2018 01:24 6,8 °C 86 % 1003,9 hPa 0,0 mm 0,0 km/h (0 Bft) W 259 ° 0 min 0,000 mm 0,0 UV-I 0 W/m² 4,6 °C 6,8 °C 0,0 km/h (0 Bft)
11.04.2018 01:25 6,7 °C 86 % 1003,9 hPa 0,0 mm 0,0 km/h (0 Bft) W 259 ° 0 min 0,000 mm 0,0 UV-I 0 W/m² 4,5 °C 6,7 °C 0,0 km/h (0 Bft)
11.04.2018 01:26 6,7 °C 86 % 1003,9 hPa 0,0 mm 0,0 km/h (0 Bft) W 259 ° 0 min 0,000 mm 0,0 UV-I 0 W/m² 4,5 °C 6,7 °C 0,0 km/h (0 Bft)
11.04.2018 01:27 6,6 °C 87 % 1003,9 hPa 0,0 mm 0,0 km/h (0 Bft) W 259 ° 0 min 0,000 mm 0,0 UV-I 0 W/m² 4,6 °C 6,6 °C 0,0 km/h (0 Bft)
11.04.2018 01:28 6,7 °C 87 % 1003,9 hPa 0,0 mm 0,0 km/h (0 Bft) W 259 ° 0 min 0,000 mm 0,0 UV-I 0 W/m² 4,7 °C 6,7 °C 0,0 km/h (0 Bft)
11.04.2018 01:29 6,7 °C 87 % 1003,9 hPa 0,0 mm 0,0 km/h (0 Bft) W 259 ° 0 min 0,000 mm 0,0 UV-I 0 W/m² 4,7 °C 6,7 °C 0,0 km/h (0 Bft)
11.04.2018 01:30 6,7 °C 87 % 1003,9 hPa 0,0 mm 0,0 km/h (0 Bft) W 259 ° 0 min 0,000 mm 0,0 UV-I 0 W/m² 4,7 °C 6,7 °C 0,0 km/h (0 Bft)
11.04.2018 01:31 6,7 °C 87 % 1003,9 hPa 0,0 mm 0,0 km/h (0 Bft) W 259 ° 0 min 0,000 mm 0,0 UV-I 0 W/m² 4,7 °C 6,7 °C 0,0 km/h (0 Bft)
11.04.2018 01:32 6,8 °C 87 % 1003,9 hPa 0,0 mm 0,0 km/h (0 Bft) W 259 ° 0 min 0,000 mm 0,0 UV-I 0 W/m² 4,8 °C 6,8 °C 0,0 km/h (0 Bft)
11.04.2018 01:33 6,8 °C 87 % 1004,0 hPa 0,0 mm 0,8 km/h (0 Bft) W 259 ° 0 min 0,000 mm 0,0 UV-I 0 W/m² 4,8 °C 6,8 °C 3,2 km/h (1 Bft)
11.04.2018 01:34 6,8 °C 87 % 1004,0 hPa 0,0 mm 1,9 km/h (1 Bft) W 259 ° 0 min 0,000 mm 0,0 UV-I 0 W/m² 4,8 °C 6,8 °C 4,8 km/h (1 Bft)
11.04.2018 01:35 6,8 °C 87 % 1004,0 hPa 0,0 mm 2,2 km/h (1 Bft) W-SW 256 ° 0 min 0,000 mm 0,0 UV-I 0 W/m² 4,8 °C 6,8 °C 3,2 km/h (1 Bft)
11.04.2018 01:36 6,9 °C 87 % 1004,0 hPa 0,0 mm 3,2 km/h (1 Bft) W-SW 254 ° 0 min 0,000 mm 0,0 UV-I 0 W/m² 4,9 °C 6,9 °C 4,8 km/h (1 Bft)
11.04.2018 01:37 6,9 °C 87 % 1004,0 hPa 0,0 mm 2,9 km/h (1 Bft) W-SW 258 ° 0 min 0,000 mm 0,0 UV-I 0 W/m² 4,9 °C 6,9 °C 6,4 km/h (2 Bft)
11.04.2018 01:38 6,9 °C 87 % 1004,0 hPa 0,0 mm 2,1 km/h (1 Bft) W-SW 250 ° 0 min 0,000 mm 0,0 UV-I 0 W/m² 4,9 °C 6,9 °C 4,8 km/h (1 Bft)
11.04.2018 01:39 6,9 °C 87 % 1004,0 hPa 0,0 mm 3,2 km/h (1 Bft) SW 227 ° 0 min 0,000 mm 0,0 UV-I 0 W/m² 4,9 °C 6,9 °C 6,4 km/h (2 Bft)
11.04.2018 01:40 6,9 °C 87 % 1004,0 hPa 0,0 mm 2,3 km/h (1 Bft) SW 227 ° 0 min 0,000 mm 0,0 UV-I 0 W/m² 4,9 °C 6,9 °C 4,8 km/h (1 Bft)
11.04.2018 01:41 6,9 °C 87 % 1003,9 hPa 0,0 mm 0,9 km/h (0 Bft) SW 227 ° 0 min 0,000 mm 0,0 UV-I 0 W/m² 4,9 °C 6,9 °C 1,6 km/h (1 Bft)
11.04.2018 01:42 6,9 °C 87 % 1003,9 hPa 0,0 mm 1,0 km/h (0 Bft) SW 227 ° 0 min 0,000 mm 0,0 UV-I 0 W/m² 4,9 °C 6,9 °C 1,6 km/h (1 Bft)
11.04.2018 01:43 6,9 °C 87 % 1003,9 hPa 0,0 mm 0,1 km/h (0 Bft) SW 227 ° 0 min 0,000 mm 0,0 UV-I 0 W/m² 4,9 °C 6,9 °C 1,6 km/h (1 Bft)
11.04.2018 01:44 7,0 °C 87 % 1004,0 hPa 0,0 mm 0,1 km/h (0 Bft) SW 227 ° 0 min 0,000 mm 0,0 UV-I 0 W/m² 5,0 °C 7,0 °C 1,6 km/h (1 Bft)
11.04.2018 01:45 7,1 °C 87 % 1004,0 hPa 0,0 mm 0,1 km/h (0 Bft) SW 227 ° 0 min 0,000 mm 0,0 UV-I 0 W/m² 5,1 °C 7,1 °C 1,6 km/h (1 Bft)
11.04.2018 01:46 7,0 °C 87 % 1004,0 hPa 0,0 mm 0,0 km/h (0 Bft) SW 227 ° 0 min 0,000 mm 0,0 UV-I 0 W/m² 5,0 °C 7,0 °C 0,0 km/h (0 Bft)
11.04.2018 01:47 6,9 °C 87 % 1004,0 hPa 0,0 mm 0,0 km/h (0 Bft) SW 227 ° 0 min 0,000 mm 0,0 UV-I 0 W/m² 4,9 °C 6,9 °C 0,0 km/h (0 Bft)
11.04.2018 01:48 6,9 °C 87 % 1004,0 hPa 0,0 mm 0,0 km/h (0 Bft) SW 227 ° 0 min 0,000 mm 0,0 UV-I 0 W/m² 4,9 °C 6,9 °C 0,0 km/h (0 Bft)
11.04.2018 01:49 6,9 °C 87 % 1004,1 hPa 0,0 mm 0,8 km/h (0 Bft) SW 227 ° 0 min 0,000 mm 0,0 UV-I 0 W/m² 4,9 °C 6,9 °C 3,2 km/h (1 Bft)
11.04.2018 01:50 6,9 °C 87 % 1004,2 hPa 0,0 mm 2,3 km/h (1 Bft) SW 227 ° 0 min 0,000 mm 0,0 UV-I 0 W/m² 4,9 °C 6,9 °C 3,2 km/h (1 Bft)
11.04.2018 01:51 6,9 °C 87 % 1004,2 hPa 0,0 mm 1,8 km/h (1 Bft) SW 227 ° 0 min 0,000 mm 0,0 UV-I 0 W/m² 4,9 °C 6,9 °C 3,2 km/h (1 Bft)
11.04.2018 01:52 6,9 °C 87 % 1004,3 hPa 0,0 mm 0,1 km/h (0 Bft) SW 227 ° 0 min 0,000 mm 0,0 UV-I 0 W/m² 4,9 °C 6,9 °C 1,6 km/h (1 Bft)
11.04.2018 01:53 6,9 °C 87 % 1004,3 hPa 0,0 mm 1,0 km/h (0 Bft) SW 227 ° 0 min 0,000 mm 0,0 UV-I 0 W/m² 4,9 °C 6,9 °C 3,2 km/h (1 Bft)
11.04.2018 01:54 6,8 °C 87 % 1004,3 hPa 0,0 mm 0,1 km/h (0 Bft) SW 227 ° 0 min 0,000 mm 0,0 UV-I 0 W/m² 4,8 °C 6,8 °C 1,6 km/h (1 Bft)
11.04.2018 01:55 6,8 °C 87 % 1004,3 hPa 0,0 mm 1,3 km/h (1 Bft) SW 227 ° 0 min 0,000 mm 0,0 UV-I 0 W/m² 4,8 °C 6,8 °C 3,2 km/h (1 Bft)
11.04.2018 01:56 6,8 °C 87 % 1004,3 hPa 0,0 mm 0,3 km/h (0 Bft) SW 227 ° 0 min 0,000 mm 0,0 UV-I 0 W/m² 4,8 °C 6,8 °C 1,6 km/h (1 Bft)
11.04.2018 01:57 6,8 °C 87 % 1004,3 hPa 0,0 mm 0,3 km/h (0 Bft) SW 227 ° 0 min 0,000 mm 0,0 UV-I 0 W/m² 4,8 °C 6,8 °C 1,6 km/h (1 Bft)
11.04.2018 01:58 6,7 °C 87 % 1004,3 hPa 0,0 mm 0,0 km/h (0 Bft) SW 227 ° 0 min 0,000 mm 0,0 UV-I 0 W/m² 4,7 °C 6,7 °C 0,0 km/h (0 Bft)
11.04.2018 01:59 6,7 °C 88 % 1004,3 hPa 0,0 mm 0,4 km/h (0 Bft) SW 227 ° 0 min 0,000 mm 0,0 UV-I 0 W/m² 4,9 °C 6,7 °C 1,6 km/h (1 Bft)
11.04.2018 02:00 6,7 °C 88 % 1004,3 hPa 0,0 mm 0,1 km/h (0 Bft) SW 227 ° 0 min 0,000 mm 0,0 UV-I 0 W/m² 4,9 °C 6,7 °C 1,6 km/h (1 Bft)
11.04.2018 02:01 6,7 °C 88 % 1004,3 hPa 0,0 mm 0,3 km/h (0 Bft) SW 227 ° 0 min 0,000 mm 0,0 UV-I 0 W/m² 4,9 °C 6,7 °C 1,6 km/h (1 Bft)
11.04.2018 02:02 6,7 °C 88 % 1004,3 hPa 0,0 mm 0,3 km/h (0 Bft) SW 227 ° 0 min 0,000 mm 0,0 UV-I 0 W/m² 4,9 °C 6,7 °C 1,6 km/h (1 Bft)
11.04.2018 02:03 6,7 °C 88 % 1004,3 hPa 0,0 mm 0,0 km/h (0 Bft) SW 227 ° 0 min 0,000 mm 0,0 UV-I 0 W/m² 4,9 °C 6,7 °C 0,0 km/h (0 Bft)
11.04.2018 02:04 6,7 °C 88 % 1004,3 hPa 0,0 mm 0,0 km/h (0 Bft) SW 227 ° 0 min 0,000 mm 0,0 UV-I 0 W/m² 4,9 °C 6,7 °C 0,0 km/h (0 Bft)
11.04.2018 02:05 6,7 °C 88 % 1004,3 hPa 0,0 mm 0,0 km/h (0 Bft) SW 227 ° 0 min 0,000 mm 0,0 UV-I 0 W/m² 4,9 °C 6,7 °C 0,0 km/h (0 Bft)
11.04.2018 02:06 6,7 °C 88 % 1004,3 hPa 0,0 mm 0,4 km/h (0 Bft) SW 227 ° 0 min 0,000 mm 0,0 UV-I 0 W/m² 4,9 °C 6,7 °C 1,6 km/h (1 Bft)
11.04.2018 02:07 6,7 °C 88 % 1004,3 hPa 0,0 mm 0,1 km/h (0 Bft) SW 227 ° 0 min 0,000 mm 0,0 UV-I 0 W/m² 4,9 °C 6,7 °C 1,6 km/h (1 Bft)
11.04.2018 02:08 6,7 °C 88 % 1004,4 hPa 0,0 mm 0,4 km/h (0 Bft) SW 227 ° 0 min 0,000 mm 0,0 UV-I 0 W/m² 4,9 °C 6,7 °C 1,6 km/h (1 Bft)
11.04.2018 02:09 6,7 °C 87 % 1004,3 hPa 0,0 mm 0,1 km/h (0 Bft) SW 227 ° 0 min 0,000 mm 0,0 UV-I 0 W/m² 4,7 °C 6,7 °C 1,6 km/h (1 Bft)
11.04.2018 02:10 6,7 °C 87 % 1004,3 hPa 0,0 mm 0,0 km/h (0 Bft) SW 227 ° 0 min 0,000 mm 0,0 UV-I 0 W/m² 4,7 °C 6,7 °C 0,0 km/h (0 Bft)
11.04.2018 02:11 6,7 °C 87 % 1004,3 hPa 0,0 mm 0,0 km/h (0 Bft) SW 227 ° 0 min 0,000 mm 0,0 UV-I 0 W/m² 4,7 °C 6,7 °C 0,0 km/h (0 Bft)
11.04.2018 02:12 6,7 °C 87 % 1004,3 hPa 0,0 mm 0,0 km/h (0 Bft) SW 227 ° 0 min 0,000 mm 0,0 UV-I 0 W/m² 4,7 °C 6,7 °C 0,0 km/h (0 Bft)
11.04.2018 02:13 6,6 °C 86 % 1004,3 hPa 0,0 mm 0,0 km/h (0 Bft) SW 227 ° 0 min 0,000 mm 0,0 UV-I 0 W/m² 4,4 °C 6,6 °C 0,0 km/h (0 Bft)
11.04.2018 02:14 6,5 °C 87 % 1004,4 hPa 0,0 mm 0,0 km/h (0 Bft) SW 227 ° 0 min 0,000 mm 0,0 UV-I 0 W/m² 4,5 °C 6,5 °C 0,0 km/h (0 Bft)
11.04.2018 02:15 6,4 °C 87 % 1004,4 hPa 0,0 mm 0,0 km/h (0 Bft) SW 227 ° 0 min 0,000 mm 0,0 UV-I 0 W/m² 4,4 °C 6,4 °C 0,0 km/h (0 Bft)
11.04.2018 02:16 6,4 °C 88 % 1004,4 hPa 0,0 mm 0,0 km/h (0 Bft) SW 227 ° 0 min 0,000 mm 0,0 UV-I 0 W/m² 4,6 °C 6,4 °C 0,0 km/h (0 Bft)
11.04.2018 02:17 6,5 °C 88 % 1004,4 hPa 0,0 mm 0,0 km/h (0 Bft) SW 227 ° 0 min 0,000 mm 0,0 UV-I 0 W/m² 4,7 °C 6,5 °C 0,0 km/h (0 Bft)
11.04.2018 02:18 6,5 °C 88 % 1004,4 hPa 0,0 mm 0,1 km/h (0 Bft) SW 227 ° 0 min 0,000 mm 0,0 UV-I 0 W/m² 4,7 °C 6,5 °C 1,6 km/h (1 Bft)
11.04.2018 02:19 6,4 °C 88 % 1004,3 hPa 0,0 mm 1,1 km/h (1 Bft) SW 227 ° 0 min 0,000 mm 0,0 UV-I 0 W/m² 4,6 °C 6,4 °C 1,6 km/h (1 Bft)
11.04.2018 02:20 6,5 °C 88 % 1004,4 hPa 0,0 mm 0,4 km/h (0 Bft) SW 227 ° 0 min 0,000 mm 0,0 UV-I 0 W/m² 4,7 °C 6,5 °C 1,6 km/h (1 Bft)
11.04.2018 02:21 6,5 °C 88 % 1004,4 hPa 0,0 mm 0,3 km/h (0 Bft) SW 227 ° 0 min 0,000 mm 0,0 UV-I 0 W/m² 4,7 °C 6,5 °C 1,6 km/h (1 Bft)
11.04.2018 02:22 6,5 °C 88 % 1004,4 hPa 0,0 mm 0,0 km/h (0 Bft) SW 227 ° 0 min 0,000 mm 0,0 UV-I 0 W/m² 4,7 °C 6,5 °C 0,0 km/h (0 Bft)
11.04.2018 02:23 6,5 °C 88 % 1004,4 hPa 0,0 mm 0,0 km/h (0 Bft) SW 227 ° 0 min 0,000 mm 0,0 UV-I 0 W/m² 4,7 °C 6,5 °C 0,0 km/h (0 Bft)
11.04.2018 02:24 6,4 °C 88 % 1004,4 hPa 0,0 mm 1,1 km/h (1 Bft) SW 227 ° 0 min 0,000 mm 0,0 UV-I 0 W/m² 4,6 °C 6,4 °C 1,6 km/h (1 Bft)
11.04.2018 02:25 6,4 °C 88 % 1004,4 hPa 0,0 mm 1,2 km/h (1 Bft) SW 227 ° 0 min 0,000 mm 0,0 UV-I 0 W/m² 4,6 °C 6,4 °C 1,6 km/h (1 Bft)
11.04.2018 02:26 6,4 °C 88 % 1004,3 hPa 0,0 mm 0,2 km/h (0 Bft) SW 227 ° 0 min 0,000 mm 0,0 UV-I 0 W/m² 4,6 °C 6,4 °C 1,6 km/h (1 Bft)
11.04.2018 02:27 6,4 °C 88 % 1004,4 hPa 0,0 mm 2,1 km/h (1 Bft) SW 227 ° 0 min 0,000 mm 0,0 UV-I 0 W/m² 4,6 °C 6,4 °C 3,2 km/h (1 Bft)
11.04.2018 02:28 6,4 °C 88 % 1004,4 hPa 0,0 mm 1,5 km/h (1 Bft) SW 227 ° 0 min 0,000 mm 0,0 UV-I 0 W/m² 4,6 °C 6,4 °C 3,2 km/h (1 Bft)
11.04.2018 02:29 6,4 °C 88 % 1004,4 hPa 0,0 mm 0,0 km/h (0 Bft) SW 227 ° 0 min 0,000 mm 0,0 UV-I 0 W/m² 4,6 °C 6,4 °C 0,0 km/h (0 Bft)
11.04.2018 02:30 6,4 °C 88 % 1004,4 hPa 0,0 mm 0,5 km/h (0 Bft) SW 227 ° 0 min 0,000 mm 0,0 UV-I 0 W/m² 4,6 °C 6,4 °C 3,2 km/h (1 Bft)
11.04.2018 02:31 6,4 °C 88 % 1004,4 hPa 0,0 mm 1,4 km/h (1 Bft) SW 227 ° 0 min 0,000 mm 0,0 UV-I 0 W/m² 4,6 °C 6,4 °C 3,2 km/h (1 Bft)
11.04.2018 02:32 6,4 °C 88 % 1004,4 hPa 0,0 mm 0,1 km/h (0 Bft) SW 227 ° 0 min 0,000 mm 0,0 UV-I 0 W/m² 4,6 °C 6,4 °C 1,6 km/h (1 Bft)
11.04.2018 02:33 6,3 °C 87 % 1004,4 hPa 0,0 mm 0,1 km/h (0 Bft) SW 227 ° 0 min 0,000 mm 0,0 UV-I 0 W/m² 4,3 °C 6,3 °C 1,6 km/h (1 Bft)
11.04.2018 02:34 6,2 °C 87 % 1004,4 hPa 0,0 mm 0,0 km/h (0 Bft) SW 227 ° 0 min 0,000 mm 0,0 UV-I 0 W/m² 4,2 °C 6,2 °C 0,0 km/h (0 Bft)
11.04.2018 02:35 6,2 °C 87 % 1004,4 hPa 0,0 mm 0,0 km/h (0 Bft) SW 227 ° 0 min 0,000 mm 0,0 UV-I 0 W/m² 4,2 °C 6,2 °C 0,0 km/h (0 Bft)
11.04.2018 02:36 5,9 °C 87 % 1004,5 hPa 0,0 mm 0,0 km/h (0 Bft) SW 227 ° 0 min 0,000 mm 0,0 UV-I 0 W/m² 3,9 °C 5,9 °C 0,0 km/h (0 Bft)
11.04.2018 02:37 5,9 °C 87 % 1004,4 hPa 0,0 mm 0,0 km/h (0 Bft) SW 227 ° 0 min 0,000 mm 0,0 UV-I 0 W/m² 3,9 °C 5,9 °C 0,0 km/h (0 Bft)
11.04.2018 02:38 5,8 °C 88 % 1004,4 hPa 0,0 mm 0,0 km/h (0 Bft) SW 227 ° 0 min 0,000 mm 0,0 UV-I 0 W/m² 4,0 °C 5,8 °C 0,0 km/h (0 Bft)
11.04.2018 02:39 5,8 °C 88 % 1004,5 hPa 0,0 mm 0,0 km/h (0 Bft) SW 227 ° 0 min 0,000 mm 0,0 UV-I 0 W/m² 4,0 °C 5,8 °C 0,0 km/h (0 Bft)
11.04.2018 02:40 5,7 °C 88 % 1004,5 hPa 0,0 mm 0,0 km/h (0 Bft) SW 227 ° 0 min 0,000 mm 0,0 UV-I 0 W/m² 3,9 °C 5,7 °C 0,0 km/h (0 Bft)
11.04.2018 02:41 5,7 °C 88 % 1004,5 hPa 0,0 mm 0,0 km/h (0 Bft) SW 227 ° 0 min 0,000 mm 0,0 UV-I 0 W/m² 3,9 °C 5,7 °C 0,0 km/h (0 Bft)
11.04.2018 02:42 5,6 °C 88 % 1004,5 hPa 0,0 mm 0,0 km/h (0 Bft) SW 227 ° 0 min 0,000 mm 0,0 UV-I 0 W/m² 3,8 °C 5,6 °C 0,0 km/h (0 Bft)
11.04.2018 02:43 5,6 °C 88 % 1004,5 hPa 0,0 mm 0,0 km/h (0 Bft) SW 227 ° 0 min 0,000 mm 0,0 UV-I 0 W/m² 3,8 °C 5,6 °C 0,0 km/h (0 Bft)
11.04.2018 02:44 5,7 °C 89 % 1004,5 hPa 0,0 mm 0,0 km/h (0 Bft) SW 227 ° 0 min 0,000 mm 0,0 UV-I 0 W/m² 4,0 °C 5,7 °C 0,0 km/h (0 Bft)
11.04.2018 02:45 5,7 °C 89 % 1004,5 hPa 0,0 mm 0,0 km/h (0 Bft) SW 227 ° 0 min 0,000 mm 0,0 UV-I 0 W/m² 4,0 °C 5,7 °C 0,0 km/h (0 Bft)
11.04.2018 02:46 5,6 °C 88 % 1004,5 hPa 0,0 mm 0,0 km/h (0 Bft) SW 227 ° 0 min 0,000 mm 0,0 UV-I 0 W/m² 3,8 °C 5,6 °C 0,0 km/h (0 Bft)
11.04.2018 02:47 5,6 °C 88 % 1004,5 hPa 0,0 mm 0,0 km/h (0 Bft) SW 227 ° 0 min 0,000 mm 0,0 UV-I 0 W/m² 3,8 °C 5,6 °C 0,0 km/h (0 Bft)
11.04.2018 02:48 5,5 °C 88 % 1004,5 hPa 0,0 mm 0,0 km/h (0 Bft) SW 227 ° 0 min 0,000 mm 0,0 UV-I 0 W/m² 3,7 °C 5,5 °C 0,0 km/h (0 Bft)
11.04.2018 02:49 5,4 °C 88 % 1004,5 hPa 0,0 mm 0,0 km/h (0 Bft) SW 227 ° 0 min 0,000 mm 0,0 UV-I 0 W/m² 3,6 °C 5,4 °C 0,0 km/h (0 Bft)
11.04.2018 02:50 5,3 °C 89 % 1004,6 hPa 0,0 mm 0,0 km/h (0 Bft) SW 227 ° 0 min 0,000 mm 0,0 UV-I 0 W/m² 3,6 °C 5,3 °C 0,0 km/h (0 Bft)
11.04.2018 02:51 5,4 °C 89 % 1004,6 hPa 0,0 mm 0,7 km/h (0 Bft) SW 227 ° 0 min 0,000 mm 0,0 UV-I 0 W/m² 3,7 °C 5,4 °C 1,6 km/h (1 Bft)
11.04.2018 02:52 5,5 °C 89 % 1004,6 hPa 0,0 mm 0,0 km/h (0 Bft) SW 227 ° 0 min 0,000 mm 0,0 UV-I 0 W/m² 3,8 °C 5,5 °C 0,0 km/h (0 Bft)
11.04.2018 02:53 5,6 °C 90 % 1004,6 hPa 0,0 mm 0,0 km/h (0 Bft) SW 227 ° 0 min 0,000 mm 0,0 UV-I 0 W/m² 4,1 °C 5,6 °C 0,0 km/h (0 Bft)
11.04.2018 02:54 5,6 °C 89 % 1004,6 hPa 0,0 mm 0,0 km/h (0 Bft) SW 227 ° 0 min 0,000 mm 0,0 UV-I 0 W/m² 3,9 °C 5,6 °C 0,0 km/h (0 Bft)
11.04.2018 02:55 5,5 °C 89 % 1004,5 hPa 0,0 mm 0,0 km/h (0 Bft) SW 227 ° 0 min 0,000 mm 0,0 UV-I 0 W/m² 3,8 °C 5,5 °C 0,0 km/h (0 Bft)
11.04.2018 02:56 5,4 °C 89 % 1004,5 hPa 0,0 mm 0,0 km/h (0 Bft) SW 227 ° 0 min 0,000 mm 0,0 UV-I 0 W/m² 3,7 °C 5,4 °C 0,0 km/h (0 Bft)
11.04.2018 02:57 5,3 °C 89 % 1004,5 hPa 0,0 mm 0,0 km/h (0 Bft) SW 227 ° 0 min 0,000 mm 0,0 UV-I 0 W/m² 3,6 °C 5,3 °C 0,0 km/h (0 Bft)
11.04.2018 02:58 5,3 °C 89 % 1004,5 hPa 0,0 mm 0,0 km/h (0 Bft) SW 227 ° 0 min 0,000 mm 0,0 UV-I 0 W/m² 3,6 °C 5,3 °C 0,0 km/h (0 Bft)
11.04.2018 02:59 5,3 °C 89 % 1004,5 hPa 0,0 mm 0,0 km/h (0 Bft) SW 227 ° 0 min 0,000 mm 0,0 UV-I 0 W/m² 3,6 °C 5,3 °C 0,0 km/h (0 Bft)
11.04.2018 03:00 5,4 °C 90 % 1004,5 hPa 0,0 mm 0,0 km/h (0 Bft) SW 227 ° 0 min 0,000 mm 0,0 UV-I 0 W/m² 3,9 °C 5,4 °C 0,0 km/h (0 Bft)
11.04.2018 03:01 5,3 °C 89 % 1004,5 hPa 0,0 mm 0,0 km/h (0 Bft) SW 227 ° 0 min 0,000 mm 0,0 UV-I 0 W/m² 3,6 °C 5,3 °C 0,0 km/h (0 Bft)
11.04.2018 03:02 5,4 °C 90 % 1004,6 hPa 0,0 mm 0,0 km/h (0 Bft) SW 227 ° 0 min 0,000 mm 0,0 UV-I 0 W/m² 3,9 °C 5,4 °C 0,0 km/h (0 Bft)
11.04.2018 03:03 5,4 °C 90 % 1004,6 hPa 0,0 mm 0,0 km/h (0 Bft) SW 227 ° 0 min 0,000 mm 0,0 UV-I 0 W/m² 3,9 °C 5,4 °C 0,0 km/h (0 Bft)
11.04.2018 03:04 5,5 °C 90 % 1004,6 hPa 0,0 mm 0,0 km/h (0 Bft) SW 227 ° 0 min 0,000 mm 0,0 UV-I 0 W/m² 4,0 °C 5,5 °C 0,0 km/h (0 Bft)
11.04.2018 03:05 5,6 °C 90 % 1004,6 hPa 0,0 mm 0,0 km/h (0 Bft) SW 227 ° 0 min 0,000 mm 0,0 UV-I 0 W/m² 4,1 °C 5,6 °C 0,0 km/h (0 Bft)
11.04.2018 03:06 5,6 °C 89 % 1004,6 hPa 0,0 mm 0,0 km/h (0 Bft) SW 227 ° 0 min 0,000 mm 0,0 UV-I 0 W/m² 3,9 °C 5,6 °C 0,0 km/h (0 Bft)
11.04.2018 03:07 5,6 °C 89 % 1004,6 hPa 0,0 mm 0,0 km/h (0 Bft) SW 227 ° 0 min 0,000 mm 0,0 UV-I 0 W/m² 3,9 °C 5,6 °C 0,0 km/h (0 Bft)
11.04.2018 03:08 5,6 °C 89 % 1004,6 hPa 0,0 mm 0,0 km/h (0 Bft) SW 227 ° 0 min 0,000 mm 0,0 UV-I 0 W/m² 3,9 °C 5,6 °C 0,0 km/h (0 Bft)
11.04.2018 03:09 5,7 °C 89 % 1004,6 hPa 0,0 mm 0,0 km/h (0 Bft) SW 227 ° 0 min 0,000 mm 0,0 UV-I 0 W/m² 4,0 °C 5,7 °C 0,0 km/h (0 Bft)
11.04.2018 03:10 5,7 °C 89 % 1004,6 hPa 0,0 mm 0,0 km/h (0 Bft) SW 227 ° 0 min 0,000 mm 0,0 UV-I 0 W/m² 4,0 °C 5,7 °C 0,0 km/h (0 Bft)
11.04.2018 03:11 5,7 °C 89 % 1004,5 hPa 0,0 mm 0,0 km/h (0 Bft) SW 227 ° 0 min 0,000 mm 0,0 UV-I 0 W/m² 4,0 °C 5,7 °C 0,0 km/h (0 Bft)
11.04.2018 03:12 5,8 °C 89 % 1004,6 hPa 0,0 mm 0,0 km/h (0 Bft) SW 227 ° 0 min 0,000 mm 0,0 UV-I 0 W/m² 4,1 °C 5,8 °C 0,0 km/h (0 Bft)
11.04.2018 03:13 5,8 °C 89 % 1004,6 hPa 0,0 mm 0,0 km/h (0 Bft) SW 227 ° 0 min 0,000 mm 0,0 UV-I 0 W/m² 4,1 °C 5,8 °C 0,0 km/h (0 Bft)
11.04.2018 03:14 5,8 °C 89 % 1004,6 hPa 0,0 mm 0,0 km/h (0 Bft) SW 227 ° 0 min 0,000 mm 0,0 UV-I 0 W/m² 4,1 °C 5,8 °C 0,0 km/h (0 Bft)
11.04.2018 03:15 5,8 °C 89 % 1004,6 hPa 0,0 mm 0,0 km/h (0 Bft) SW 227 ° 0 min 0,000 mm 0,0 UV-I 0 W/m² 4,1 °C 5,8 °C 0,0 km/h (0 Bft)
11.04.2018 03:16 5,8 °C 89 % 1004,6 hPa 0,0 mm 0,0 km/h (0 Bft) SW 227 ° 0 min 0,000 mm 0,0 UV-I 0 W/m² 4,1 °C 5,8 °C 0,0 km/h (0 Bft)
11.04.2018 03:17 5,8 °C 89 % 1004,5 hPa 0,0 mm 0,0 km/h (0 Bft) SW 227 ° 0 min 0,000 mm 0,0 UV-I 0 W/m² 4,1 °C 5,8 °C 0,0 km/h (0 Bft)
11.04.2018 03:18 5,8 °C 89 % 1004,6 hPa 0,0 mm 0,0 km/h (0 Bft) SW 227 ° 0 min 0,000 mm 0,0 UV-I 0 W/m² 4,1 °C 5,8 °C 0,0 km/h (0 Bft)
11.04.2018 03:19 5,7 °C 89 % 1004,6 hPa 0,0 mm 0,0 km/h (0 Bft) SW 227 ° 0 min 0,000 mm 0,0 UV-I 0 W/m² 4,0 °C 5,7 °C 0,0 km/h (0 Bft)
11.04.2018 03:20 5,7 °C 89 % 1004,5 hPa 0,0 mm 0,0 km/h (0 Bft) SW 227 ° 0 min 0,000 mm 0,0 UV-I 0 W/m² 4,0 °C 5,7 °C 0,0 km/h (0 Bft)
11.04.2018 03:21 5,6 °C 89 % 1004,5 hPa 0,0 mm 0,0 km/h (0 Bft) SW 227 ° 0 min 0,000 mm 0,0 UV-I 0 W/m² 3,9 °C 5,6 °C 0,0 km/h (0 Bft)
11.04.2018 03:22 5,6 °C 89 % 1004,5 hPa 0,0 mm 0,0 km/h (0 Bft) SW 227 ° 0 min 0,000 mm 0,0 UV-I 0 W/m² 3,9 °C 5,6 °C 0,0 km/h (0 Bft)
11.04.2018 03:23 5,6 °C 89 % 1004,5 hPa 0,0 mm 0,0 km/h (0 Bft) SW 227 ° 0 min 0,000 mm 0,0 UV-I 0 W/m² 3,9 °C 5,6 °C 0,0 km/h (0 Bft)
11.04.2018 03:24 5,6 °C 89 % 1004,5 hPa 0,0 mm 0,0 km/h (0 Bft) SW 227 ° 0 min 0,000 mm 0,0 UV-I 0 W/m² 3,9 °C 5,6 °C 0,0 km/h (0 Bft)
11.04.2018 03:25 5,6 °C 89 % 1004,5 hPa 0,0 mm 0,0 km/h (0 Bft) SW 227 ° 0 min 0,000 mm 0,0 UV-I 0 W/m² 3,9 °C 5,6 °C 0,0 km/h (0 Bft)
11.04.2018 03:26 5,6 °C 90 % 1004,5 hPa 0,0 mm 0,0 km/h (0 Bft) SW 227 ° 0 min 0,000 mm 0,0 UV-I 0 W/m² 4,1 °C 5,6 °C 0,0 km/h (0 Bft)
11.04.2018 03:27 5,6 °C 90 % 1004,6 hPa 0,0 mm 0,0 km/h (0 Bft) SW 227 ° 0 min 0,000 mm 0,0 UV-I 0 W/m² 4,1 °C 5,6 °C 0,0 km/h (0 Bft)
11.04.2018 03:28 5,6 °C 90 % 1004,6 hPa 0,0 mm 0,0 km/h (0 Bft) SW 227 ° 0 min 0,000 mm 0,0 UV-I 0 W/m² 4,1 °C 5,6 °C 0,0 km/h (0 Bft)
11.04.2018 03:29 5,7 °C 90 % 1004,6 hPa 0,0 mm 0,0 km/h (0 Bft) SW 227 ° 0 min 0,000 mm 0,0 UV-I 0 W/m² 4,2 °C 5,7 °C 0,0 km/h (0 Bft)
11.04.2018 03:30 5,7 °C 90 % 1004,6 hPa 0,0 mm 0,0 km/h (0 Bft) SW 227 ° 0 min 0,000 mm 0,0 UV-I 0 W/m² 4,2 °C 5,7 °C 0,0 km/h (0 Bft)
11.04.2018 03:31 5,8 °C 90 % 1004,6 hPa 0,0 mm 0,0 km/h (0 Bft) SW 227 ° 0 min 0,000 mm 0,0 UV-I 0 W/m² 4,3 °C 5,8 °C 0,0 km/h (0 Bft)
11.04.2018 03:32 5,8 °C 90 % 1004,5 hPa 0,0 mm 0,0 km/h (0 Bft) SW 227 ° 0 min 0,000 mm 0,0 UV-I 0 W/m² 4,3 °C 5,8 °C 0,0 km/h (0 Bft)
11.04.2018 03:33 5,8 °C 90 % 1004,5 hPa 0,0 mm 0,0 km/h (0 Bft) SW 227 ° 0 min 0,000 mm 0,0 UV-I 0 W/m² 4,3 °C 5,8 °C 0,0 km/h (0 Bft)
11.04.2018 03:34 5,8 °C 90 % 1004,6 hPa 0,0 mm 0,0 km/h (0 Bft) SW 227 ° 0 min 0,000 mm 0,0 UV-I 0 W/m² 4,3 °C 5,8 °C 0,0 km/h (0 Bft)
11.04.2018 03:35 5,8 °C 90 % 1004,6 hPa 0,0 mm 0,0 km/h (0 Bft) SW 227 ° 0 min 0,000 mm 0,0 UV-I 0 W/m² 4,3 °C 5,8 °C 0,0 km/h (0 Bft)
11.04.2018 03:36 5,8 °C 90 % 1004,6 hPa 0,0 mm 0,0 km/h (0 Bft) SW 227 ° 0 min 0,000 mm 0,0 UV-I 0 W/m² 4,3 °C 5,8 °C 0,0 km/h (0 Bft)
11.04.2018 03:37 5,8 °C 90 % 1004,7 hPa 0,0 mm 0,8 km/h (0 Bft) NW 304 ° 0 min 0,000 mm 0,0 UV-I 0 W/m² 4,3 °C 5,8 °C 3,2 km/h (1 Bft)
11.04.2018 03:38 5,7 °C 89 % 1004,6 hPa 0,0 mm 1,7 km/h (1 Bft) NW 304 ° 0 min 0,000 mm 0,0 UV-I 0 W/m² 4,0 °C 5,7 °C 3,2 km/h (1 Bft)
11.04.2018 03:39 5,5 °C 89 % 1004,7 hPa 0,0 mm 0,4 km/h (0 Bft) NW 304 ° 0 min 0,000 mm 0,0 UV-I 0 W/m² 3,8 °C 5,5 °C 1,6 km/h (1 Bft)
11.04.2018 03:40 5,3 °C 89 % 1004,6 hPa 0,0 mm 0,0 km/h (0 Bft) NW 304 ° 0 min 0,000 mm 0,0 UV-I 0 W/m² 3,6 °C 5,3 °C 0,0 km/h (0 Bft)
11.04.2018 03:41 5,2 °C 89 % 1004,6 hPa 0,0 mm 0,0 km/h (0 Bft) NW 304 ° 0 min 0,000 mm 0,0 UV-I 0 W/m² 3,5 °C 5,2 °C 0,0 km/h (0 Bft)
11.04.2018 03:42 5,1 °C 89 % 1004,6 hPa 0,0 mm 0,0 km/h (0 Bft) NW 304 ° 0 min 0,000 mm 0,0 UV-I 0 W/m² 3,4 °C 5,1 °C 0,0 km/h (0 Bft)
11.04.2018 03:43 4,9 °C 90 % 1004,6 hPa 0,0 mm 0,0 km/h (0 Bft) NW 304 ° 0 min 0,000 mm 0,0 UV-I 0 W/m² 3,4 °C 4,9 °C 0,0 km/h (0 Bft)
11.04.2018 03:44 4,9 °C 90 % 1004,6 hPa 0,0 mm 0,0 km/h (0 Bft) NW 304 ° 0 min 0,000 mm 0,0 UV-I 0 W/m² 3,4 °C 4,9 °C 0,0 km/h (0 Bft)
11.04.2018 03:45 5,0 °C 90 % 1004,7 hPa 0,0 mm 0,0 km/h (0 Bft) NW 304 ° 0 min 0,000 mm 0,0 UV-I 0 W/m² 3,5 °C 5,0 °C 0,0 km/h (0 Bft)
11.04.2018 03:46 5,1 °C 91 % 1004,7 hPa 0,0 mm 0,0 km/h (0 Bft) NW 304 ° 0 min 0,000 mm 0,0 UV-I 0 W/m² 3,8 °C 5,1 °C 0,0 km/h (0 Bft)
11.04.2018 03:47 5,1 °C 91 % 1004,7 hPa 0,0 mm 0,0 km/h (0 Bft) NW 304 ° 0 min 0,000 mm 0,0 UV-I 0 W/m² 3,8 °C 5,1 °C 0,0 km/h (0 Bft)
11.04.2018 03:48 5,2 °C 91 % 1004,7 hPa 0,0 mm 0,0 km/h (0 Bft) NW 304 ° 0 min 0,000 mm 0,0 UV-I 0 W/m² 3,9 °C 5,2 °C 0,0 km/h (0 Bft)
11.04.2018 03:49 5,3 °C 91 % 1004,7 hPa 0,0 mm 0,0 km/h (0 Bft) NW 304 ° 0 min 0,000 mm 0,0 UV-I 0 W/m² 4,0 °C 5,3 °C 0,0 km/h (0 Bft)
11.04.2018 03:50 5,3 °C 91 % 1004,7 hPa 0,0 mm 0,0 km/h (0 Bft) NW 304 ° 0 min 0,000 mm 0,0 UV-I 0 W/m² 4,0 °C 5,3 °C 0,0 km/h (0 Bft)
11.04.2018 03:51 5,4 °C 91 % 1004,7 hPa 0,0 mm 0,0 km/h (0 Bft) NW 304 ° 0 min 0,000 mm 0,0 UV-I 0 W/m² 4,1 °C 5,4 °C 0,0 km/h (0 Bft)
11.04.2018 03:52 5,5 °C 91 % 1004,7 hPa 0,0 mm 0,0 km/h (0 Bft) NW 304 ° 0 min 0,000 mm 0,0 UV-I 0 W/m² 4,2 °C 5,5 °C 0,0 km/h (0 Bft)
11.04.2018 03:53 5,6 °C 91 % 1004,7 hPa 0,0 mm 0,0 km/h (0 Bft) NW 304 ° 0 min 0,000 mm 0,0 UV-I 0 W/m² 4,2 °C 5,6 °C 0,0 km/h (0 Bft)
11.04.2018 03:54 5,7 °C 91 % 1004,7 hPa 0,0 mm 0,0 km/h (0 Bft) NW 304 ° 0 min 0,000 mm 0,0 UV-I 0 W/m² 4,3 °C 5,7 °C 0,0 km/h (0 Bft)
11.04.2018 03:55 5,7 °C 91 % 1004,7 hPa 0,0 mm 0,0 km/h (0 Bft) NW 304 ° 0 min 0,000 mm 0,0 UV-I 0 W/m² 4,3 °C 5,7 °C 0,0 km/h (0 Bft)
11.04.2018 03:56 5,7 °C 91 % 1004,6 hPa 0,0 mm 1,5 km/h (1 Bft) NW 304 ° 0 min 0,000 mm 0,0 UV-I 0 W/m² 4,3 °C 5,7 °C 3,2 km/h (1 Bft)
11.04.2018 03:57 5,8 °C 91 % 1004,6 hPa 0,0 mm 2,3 km/h (1 Bft) NW 304 ° 0 min 0,000 mm 0,0 UV-I 0 W/m² 4,4 °C 5,8 °C 3,2 km/h (1 Bft)
11.04.2018 03:58 5,8 °C 91 % 1004,6 hPa 0,0 mm 2,7 km/h (1 Bft) NW 304 ° 0 min 0,000 mm 0,0 UV-I 0 W/m² 4,4 °C 5,8 °C 3,2 km/h (1 Bft)
11.04.2018 03:59 5,9 °C 91 % 1004,6 hPa 0,0 mm 1,3 km/h (1 Bft) NW 304 ° 0 min 0,000 mm 0,0 UV-I 0 W/m² 4,5 °C 5,9 °C 3,2 km/h (1 Bft)
11.04.2018 04:00 5,9 °C 91 % 1004,6 hPa 0,0 mm 1,0 km/h (0 Bft) NW 304 ° 0 min 0,000 mm 0,0 UV-I 0 W/m² 4,5 °C 5,9 °C 3,2 km/h (1 Bft)
11.04.2018 04:02 6,0 °C 90 % 1004,6 hPa 0,0 mm 0,4 km/h (0 Bft) NW 304 ° 0 min 0,000 mm 0,0 UV-I 0 W/m² 4,5 °C 6,0 °C 1,6 km/h (1 Bft)
11.04.2018 04:03 6,1 °C 90 % 1004,6 hPa 0,0 mm 0,0 km/h (0 Bft) NW 304 ° 0 min 0,000 mm 0,0 UV-I 0 W/m² 4,6 °C 6,1 °C 0,0 km/h (0 Bft)
11.04.2018 04:04 6,1 °C 90 % 1004,6 hPa 0,0 mm 0,0 km/h (0 Bft) NW 304 ° 0 min 0,000 mm 0,0 UV-I 0 W/m² 4,6 °C 6,1 °C 0,0 km/h (0 Bft)
11.04.2018 04:05 6,2 °C 90 % 1004,6 hPa 0,0 mm 0,0 km/h (0 Bft) NW 304 ° 0 min 0,000 mm 0,0 UV-I 0 W/m² 4,7 °C 6,2 °C 0,0 km/h (0 Bft)
11.04.2018 04:06 6,2 °C 90 % 1004,6 hPa 0,0 mm 0,0 km/h (0 Bft) NW 304 ° 0 min 0,000 mm 0,0 UV-I 0 W/m² 4,7 °C 6,2 °C 0,0 km/h (0 Bft)
11.04.2018 04:07 6,2 °C 90 % 1004,5 hPa 0,0 mm 0,0 km/h (0 Bft) NW 304 ° 0 min 0,000 mm 0,0 UV-I 0 W/m² 4,7 °C 6,2 °C 0,0 km/h (0 Bft)
11.04.2018 04:08 6,2 °C 90 % 1004,5 hPa 0,0 mm 0,0 km/h (0 Bft) NW 304 ° 0 min 0,000 mm 0,0 UV-I 0 W/m² 4,7 °C 6,2 °C 0,0 km/h (0 Bft)
11.04.2018 04:09 6,3 °C 90 % 1004,5 hPa 0,0 mm 0,0 km/h (0 Bft) NW 304 ° 0 min 0,000 mm 0,0 UV-I 0 W/m² 4,8 °C 6,3 °C 0,0 km/h (0 Bft)
11.04.2018 04:10 6,3 °C 90 % 1004,5 hPa 0,0 mm 0,0 km/h (0 Bft) NW 304 ° 0 min 0,000 mm 0,0 UV-I 0 W/m² 4,8 °C 6,3 °C 0,0 km/h (0 Bft)
11.04.2018 04:11 6,3 °C 90 % 1004,5 hPa 0,0 mm 0,0 km/h (0 Bft) NW 304 ° 0 min 0,000 mm 0,0 UV-I 0 W/m² 4,8 °C 6,3 °C 0,0 km/h (0 Bft)
11.04.2018 04:12 6,3 °C 90 % 1004,5 hPa 0,0 mm 0,0 km/h (0 Bft) NW 304 ° 0 min 0,000 mm 0,0 UV-I 0 W/m² 4,8 °C 6,3 °C 0,0 km/h (0 Bft)
11.04.2018 04:13 6,3 °C 90 % 1004,5 hPa 0,0 mm 0,0 km/h (0 Bft) NW 304 ° 0 min 0,000 mm 0,0 UV-I 0 W/m² 4,8 °C 6,3 °C 0,0 km/h (0 Bft)
11.04.2018 04:14 6,3 °C 90 % 1004,5 hPa 0,0 mm 0,0 km/h (0 Bft) NW 304 ° 0 min 0,000 mm 0,0 UV-I 0 W/m² 4,8 °C 6,3 °C 0,0 km/h (0 Bft)
11.04.2018 04:15 6,3 °C 90 % 1004,4 hPa 0,0 mm 0,0 km/h (0 Bft) NW 304 ° 0 min 0,000 mm 0,0 UV-I 0 W/m² 4,8 °C 6,3 °C 0,0 km/h (0 Bft)
11.04.2018 04:16 6,3 °C 90 % 1004,4 hPa 0,0 mm 0,0 km/h (0 Bft) NW 304 ° 0 min 0,000 mm 0,0 UV-I 0 W/m² 4,8 °C 6,3 °C 0,0 km/h (0 Bft)
11.04.2018 04:17 6,4 °C 90 % 1004,4 hPa 0,0 mm 0,0 km/h (0 Bft) NW 304 ° 0 min 0,000 mm 0,0 UV-I 0 W/m² 4,9 °C 6,4 °C 0,0 km/h (0 Bft)
11.04.2018 04:18 6,4 °C 90 % 1004,5 hPa 0,0 mm 0,0 km/h (0 Bft) NW 304 ° 0 min 0,000 mm 0,0 UV-I 0 W/m² 4,9 °C 6,4 °C 0,0 km/h (0 Bft)
11.04.2018 04:19 6,4 °C 90 % 1004,5 hPa 0,0 mm 0,0 km/h (0 Bft) NW 304 ° 0 min 0,000 mm 0,0 UV-I 0 W/m² 4,9 °C 6,4 °C 0,0 km/h (0 Bft)
11.04.2018 04:20 6,4 °C 90 % 1004,5 hPa 0,0 mm 0,0 km/h (0 Bft) NW 304 ° 0 min 0,000 mm 0,0 UV-I 0 W/m² 4,9 °C 6,4 °C 0,0 km/h (0 Bft)
11.04.2018 04:21 6,4 °C 90 % 1004,5 hPa 0,0 mm 0,0 km/h (0 Bft) NW 304 ° 0 min 0,000 mm 0,0 UV-I 0 W/m² 4,9 °C 6,4 °C 0,0 km/h (0 Bft)
11.04.2018 04:22 6,4 °C 90 % 1004,5 hPa 0,0 mm 0,0 km/h (0 Bft) NW 304 ° 0 min 0,000 mm 0,0 UV-I 0 W/m² 4,9 °C 6,4 °C 0,0 km/h (0 Bft)
11.04.2018 04:23 6,4 °C 90 % 1004,6 hPa 0,0 mm 0,0 km/h (0 Bft) NW 304 ° 0 min 0,000 mm 0,0 UV-I 0 W/m² 4,9 °C 6,4 °C 0,0 km/h (0 Bft)
11.04.2018 04:24 6,4 °C 90 % 1004,6 hPa 0,0 mm 0,0 km/h (0 Bft) NW 304 ° 0 min 0,000 mm 0,0 UV-I 0 W/m² 4,9 °C 6,4 °C 0,0 km/h (0 Bft)
11.04.2018 04:25 6,3 °C 90 % 1004,6 hPa 0,0 mm 0,0 km/h (0 Bft) NW 304 ° 0 min 0,000 mm 0,0 UV-I 0 W/m² 4,8 °C 6,3 °C 0,0 km/h (0 Bft)
11.04.2018 04:26 6,3 °C 90 % 1004,6 hPa 0,0 mm 0,0 km/h (0 Bft) NW 304 ° 0 min 0,000 mm 0,0 UV-I 0 W/m² 4,8 °C 6,3 °C 0,0 km/h (0 Bft)
11.04.2018 04:27 6,3 °C 90 % 1004,6 hPa 0,0 mm 0,0 km/h (0 Bft) NW 304 ° 0 min 0,000 mm 0,0 UV-I 0 W/m² 4,8 °C 6,3 °C 0,0 km/h (0 Bft)
11.04.2018 04:28 6,3 °C 90 % 1004,6 hPa 0,0 mm 0,0 km/h (0 Bft) NW 304 ° 0 min 0,000 mm 0,0 UV-I 0 W/m² 4,8 °C 6,3 °C 0,0 km/h (0 Bft)
11.04.2018 04:29 6,3 °C 90 % 1004,6 hPa 0,0 mm 0,0 km/h (0 Bft) NW 304 ° 0 min 0,000 mm 0,0 UV-I 0 W/m² 4,8 °C 6,3 °C 0,0 km/h (0 Bft)
11.04.2018 04:30 6,2 °C 90 % 1004,6 hPa 0,0 mm 0,0 km/h (0 Bft) NW 304 ° 0 min 0,000 mm 0,0 UV-I 0 W/m² 4,7 °C 6,2 °C 0,0 km/h (0 Bft)
11.04.2018 04:31 6,2 °C 91 % 1004,6 hPa 0,0 mm 0,0 km/h (0 Bft) NW 304 ° 0 min 0,000 mm 0,0 UV-I 0 W/m² 4,8 °C 6,2 °C 0,0 km/h (0 Bft)
11.04.2018 04:32 6,2 °C 90 % 1004,6 hPa 0,0 mm 0,0 km/h (0 Bft) NW 304 ° 0 min 0,000 mm 0,0 UV-I 0 W/m² 4,7 °C 6,2 °C 0,0 km/h (0 Bft)
11.04.2018 04:33 6,2 °C 91 % 1004,6 hPa 0,0 mm 0,0 km/h (0 Bft) NW 304 ° 0 min 0,000 mm 0,0 UV-I 0 W/m² 4,8 °C 6,2 °C 0,0 km/h (0 Bft)
11.04.2018 04:34 6,2 °C 91 % 1004,6 hPa 0,0 mm 0,0 km/h (0 Bft) NW 304 ° 0 min 0,000 mm 0,0 UV-I 0 W/m² 4,8 °C 6,2 °C 0,0 km/h (0 Bft)
11.04.2018 04:35 6,2 °C 91 % 1004,6 hPa 0,0 mm 0,0 km/h (0 Bft) NW 304 ° 0 min 0,000 mm 0,0 UV-I 0 W/m² 4,8 °C 6,2 °C 0,0 km/h (0 Bft)
11.04.2018 04:36 6,2 °C 91 % 1004,6 hPa 0,0 mm 0,0 km/h (0 Bft) NW 304 ° 0 min 0,000 mm 0,0 UV-I 0 W/m² 4,8 °C 6,2 °C 0,0 km/h (0 Bft)
11.04.2018 04:37 6,2 °C 91 % 1004,6 hPa 0,0 mm 0,0 km/h (0 Bft) NW 304 ° 0 min 0,000 mm 0,0 UV-I 0 W/m² 4,8 °C 6,2 °C 0,0 km/h (0 Bft)
11.04.2018 04:38 6,2 °C 91 % 1004,6 hPa 0,0 mm 0,0 km/h (0 Bft) NW 304 ° 0 min 0,000 mm 0,0 UV-I 0 W/m² 4,8 °C 6,2 °C 0,0 km/h (0 Bft)
11.04.2018 04:39 6,2 °C 91 % 1004,6 hPa 0,0 mm 0,0 km/h (0 Bft) NW 304 ° 0 min 0,000 mm 0,0 UV-I 0 W/m² 4,8 °C 6,2 °C 0,0 km/h (0 Bft)
11.04.2018 04:40 6,2 °C 91 % 1004,6 hPa 0,0 mm 0,1 km/h (0 Bft) NW 308 ° 0 min 0,000 mm 0,0 UV-I 0 W/m² 4,8 °C 6,2 °C 1,6 km/h (1 Bft)
11.04.2018 04:41 6,2 °C 91 % 1004,6 hPa 0,0 mm 0,8 km/h (0 Bft) NW 308 ° 0 min 0,000 mm 0,0 UV-I 0 W/m² 4,8 °C 6,2 °C 1,6 km/h (1 Bft)
11.04.2018 04:42 6,2 °C 91 % 1004,7 hPa 0,0 mm 1,1 km/h (1 Bft) NW 308 ° 0 min 0,000 mm 0,0 UV-I 0 W/m² 4,8 °C 6,2 °C 3,2 km/h (1 Bft)
11.04.2018 04:43 6,2 °C 91 % 1004,7 hPa 0,0 mm 0,0 km/h (0 Bft) NW 308 ° 0 min 0,000 mm 0,0 UV-I 0 W/m² 4,8 °C 6,2 °C 0,0 km/h (0 Bft)
11.04.2018 04:44 6,2 °C 91 % 1004,7 hPa 0,0 mm 0,2 km/h (0 Bft) NW 308 ° 0 min 0,000 mm 0,0 UV-I 0 W/m² 4,8 °C 6,2 °C 1,6 km/h (1 Bft)
11.04.2018 04:45 6,2 °C 91 % 1004,7 hPa 0,0 mm 0,9 km/h (0 Bft) NW 308 ° 0 min 0,000 mm 0,0 UV-I 0 W/m² 4,8 °C 6,2 °C 3,2 km/h (1 Bft)
11.04.2018 04:46 6,2 °C 91 % 1004,7 hPa 0,0 mm 1,9 km/h (1 Bft) NW 308 ° 0 min 0,000 mm 0,0 UV-I 0 W/m² 4,8 °C 6,2 °C 3,2 km/h (1 Bft)
11.04.2018 04:47 6,2 °C 91 % 1004,7 hPa 0,0 mm 0,3 km/h (0 Bft) NW 308 ° 0 min 0,000 mm 0,0 UV-I 0 W/m² 4,8 °C 6,2 °C 1,6 km/h (1 Bft)
11.04.2018 04:48 6,3 °C 91 % 1004,7 hPa 0,0 mm 0,0 km/h (0 Bft) NW 308 ° 0 min 0,000 mm 0,0 UV-I 0 W/m² 4,9 °C 6,3 °C 0,0 km/h (0 Bft)
11.04.2018 04:49 6,3 °C 91 % 1004,7 hPa 0,0 mm 0,0 km/h (0 Bft) NW 308 ° 0 min 0,000 mm 0,0 UV-I 0 W/m² 4,9 °C 6,3 °C 0,0 km/h (0 Bft)
11.04.2018 04:50 6,3 °C 91 % 1004,7 hPa 0,0 mm 0,0 km/h (0 Bft) NW 308 ° 0 min 0,000 mm 0,0 UV-I 0 W/m² 4,9 °C 6,3 °C 0,0 km/h (0 Bft)
11.04.2018 04:51 6,3 °C 91 % 1004,7 hPa 0,0 mm 0,0 km/h (0 Bft) NW 308 ° 0 min 0,000 mm 0,0 UV-I 0 W/m² 4,9 °C 6,3 °C 0,0 km/h (0 Bft)
11.04.2018 04:52 6,3 °C 91 % 1004,7 hPa 0,0 mm 1,3 km/h (1 Bft) NW 308 ° 0 min 0,000 mm 0,0 UV-I 0 W/m² 4,9 °C 6,3 °C 3,2 km/h (1 Bft)
11.04.2018 04:53 6,2 °C 90 % 1004,7 hPa 0,0 mm 3,2 km/h (1 Bft) NW 308 ° 0 min 0,000 mm 0,0 UV-I 0 W/m² 4,7 °C 6,2 °C 4,8 km/h (1 Bft)
11.04.2018 04:54 6,2 °C 90 % 1004,7 hPa 0,0 mm 3,0 km/h (1 Bft) NW 308 ° 0 min 0,000 mm 0,0 UV-I 0 W/m² 4,7 °C 6,2 °C 4,8 km/h (1 Bft)
11.04.2018 04:55 6,2 °C 91 % 1004,7 hPa 0,0 mm 3,3 km/h (1 Bft) NW 308 ° 0 min 0,000 mm 0,0 UV-I 0 W/m² 4,8 °C 6,2 °C 4,8 km/h (1 Bft)
11.04.2018 04:56 6,2 °C 91 % 1004,7 hPa 0,0 mm 0,9 km/h (0 Bft) NW 308 ° 0 min 0,000 mm 0,0 UV-I 0 W/m² 4,8 °C 6,2 °C 3,2 km/h (1 Bft)
11.04.2018 04:57 6,2 °C 90 % 1004,7 hPa 0,0 mm 1,0 km/h (0 Bft) NW 308 ° 0 min 0,000 mm 0,0 UV-I 0 W/m² 4,7 °C 6,2 °C 1,6 km/h (1 Bft)
11.04.2018 04:58 6,1 °C 90 % 1004,7 hPa 0,0 mm 0,1 km/h (0 Bft) NW 308 ° 0 min 0,000 mm 0,0 UV-I 0 W/m² 4,6 °C 6,1 °C 1,6 km/h (1 Bft)
11.04.2018 04:59 6,1 °C 91 % 1004,7 hPa 0,0 mm 0,0 km/h (0 Bft) NW 308 ° 0 min 0,000 mm 0,0 UV-I 0 W/m² 4,7 °C 6,1 °C 0,0 km/h (0 Bft)
11.04.2018 05:00 6,1 °C 91 % 1004,7 hPa 0,0 mm 0,0 km/h (0 Bft) NW 308 ° 0 min 0,000 mm 0,0 UV-I 0 W/m² 4,7 °C 6,1 °C 0,0 km/h (0 Bft)
11.04.2018 05:01 6,1 °C 91 % 1004,7 hPa 0,0 mm 0,0 km/h (0 Bft) NW 308 ° 0 min 0,000 mm 0,0 UV-I 0 W/m² 4,7 °C 6,1 °C 0,0 km/h (0 Bft)
11.04.2018 05:02 6,0 °C 91 % 1004,7 hPa 0,0 mm 0,0 km/h (0 Bft) NW 308 ° 0 min 0,000 mm 0,0 UV-I 0 W/m² 4,6 °C 6,0 °C 0,0 km/h (0 Bft)
11.04.2018 05:03 6,1 °C 91 % 1004,7 hPa 0,0 mm 0,0 km/h (0 Bft) NW 308 ° 0 min 0,000 mm 0,0 UV-I 0 W/m² 4,7 °C 6,1 °C 0,0 km/h (0 Bft)
11.04.2018 05:04 6,1 °C 91 % 1004,7 hPa 0,0 mm 0,0 km/h (0 Bft) NW 308 ° 0 min 0,000 mm 0,0 UV-I 0 W/m² 4,7 °C 6,1 °C 0,0 km/h (0 Bft)
11.04.2018 05:05 6,1 °C 91 % 1004,8 hPa 0,0 mm 0,0 km/h (0 Bft) NW 308 ° 0 min 0,000 mm 0,0 UV-I 0 W/m² 4,7 °C 6,1 °C 0,0 km/h (0 Bft)
11.04.2018 05:06 6,1 °C 91 % 1004,8 hPa 0,0 mm 0,0 km/h (0 Bft) NW 308 ° 0 min 0,000 mm 0,0 UV-I 0 W/m² 4,7 °C 6,1 °C 0,0 km/h (0 Bft)
11.04.2018 05:07 6,1 °C 91 % 1004,8 hPa 0,0 mm 0,0 km/h (0 Bft) NW 308 ° 0 min 0,000 mm 0,0 UV-I 0 W/m² 4,7 °C 6,1 °C 0,0 km/h (0 Bft)
11.04.2018 05:08 6,1 °C 91 % 1004,8 hPa 0,0 mm 0,0 km/h (0 Bft) NW 308 ° 0 min 0,000 mm 0,0 UV-I 0 W/m² 4,7 °C 6,1 °C 0,0 km/h (0 Bft)
11.04.2018 05:09 6,1 °C 91 % 1004,8 hPa 0,0 mm 0,0 km/h (0 Bft) NW 308 ° 0 min 0,000 mm 0,0 UV-I 0 W/m² 4,7 °C 6,1 °C 0,0 km/h (0 Bft)
11.04.2018 05:10 6,1 °C 91 % 1004,8 hPa 0,0 mm 0,0 km/h (0 Bft) NW 308 ° 0 min 0,000 mm 0,0 UV-I 0 W/m² 4,7 °C 6,1 °C 0,0 km/h (0 Bft)
11.04.2018 05:11 6,1 °C 91 % 1004,7 hPa 0,0 mm 0,0 km/h (0 Bft) NW 308 ° 0 min 0,000 mm 0,0 UV-I 0 W/m² 4,7 °C 6,1 °C 0,0 km/h (0 Bft)
11.04.2018 05:12 6,1 °C 90 % 1004,8 hPa 0,0 mm 0,0 km/h (0 Bft) NW 308 ° 0 min 0,000 mm 0,0 UV-I 0 W/m² 4,6 °C 6,1 °C 0,0 km/h (0 Bft)
11.04.2018 05:13 6,1 °C 90 % 1004,8 hPa 0,0 mm 0,0 km/h (0 Bft) NW 308 ° 0 min 0,000 mm 0,0 UV-I 0 W/m² 4,6 °C 6,1 °C 0,0 km/h (0 Bft)
11.04.2018 05:14 6,1 °C 90 % 1004,7 hPa 0,0 mm 0,0 km/h (0 Bft) NW 308 ° 0 min 0,000 mm 0,0 UV-I 0 W/m² 4,6 °C 6,1 °C 0,0 km/h (0 Bft)
11.04.2018 05:15 6,1 °C 90 % 1004,7 hPa 0,0 mm 0,0 km/h (0 Bft) NW 308 ° 0 min 0,000 mm 0,0 UV-I 0 W/m² 4,6 °C 6,1 °C 0,0 km/h (0 Bft)
11.04.2018 05:16 6,1 °C 91 % 1004,8 hPa 0,0 mm 0,0 km/h (0 Bft) NW 308 ° 0 min 0,000 mm 0,0 UV-I 0 W/m² 4,7 °C 6,1 °C 0,0 km/h (0 Bft)
11.04.2018 05:17 6,1 °C 91 % 1004,8 hPa 0,0 mm 0,0 km/h (0 Bft) NW 308 ° 0 min 0,000 mm 0,0 UV-I 0 W/m² 4,7 °C 6,1 °C 0,0 km/h (0 Bft)
11.04.2018 05:18 6,1 °C 91 % 1004,8 hPa 0,0 mm 0,0 km/h (0 Bft) NW 308 ° 0 min 0,000 mm 0,0 UV-I 0 W/m² 4,7 °C 6,1 °C 0,0 km/h (0 Bft)
11.04.2018 05:19 6,1 °C 91 % 1004,7 hPa 0,0 mm 0,0 km/h (0 Bft) NW 308 ° 0 min 0,000 mm 0,0 UV-I 0 W/m² 4,7 °C 6,1 °C 0,0 km/h (0 Bft)
11.04.2018 05:20 6,1 °C 90 % 1004,7 hPa 0,0 mm 0,0 km/h (0 Bft) NW 308 ° 0 min 0,000 mm 0,0 UV-I 0 W/m² 4,6 °C 6,1 °C 0,0 km/h (0 Bft)
11.04.2018 05:21 6,1 °C 90 % 1004,7 hPa 0,0 mm 0,0 km/h (0 Bft) NW 308 ° 0 min 0,000 mm 0,0 UV-I 0 W/m² 4,6 °C 6,1 °C 0,0 km/h (0 Bft)
11.04.2018 05:22 6,1 °C 90 % 1004,7 hPa 0,0 mm 0,0 km/h (0 Bft) NW 308 ° 0 min 0,000 mm 0,0 UV-I 0 W/m² 4,6 °C 6,1 °C 0,0 km/h (0 Bft)
11.04.2018 05:23 6,0 °C 90 % 1004,7 hPa 0,0 mm 0,0 km/h (0 Bft) NW 308 ° 0 min 0,000 mm 0,0 UV-I 0 W/m² 4,5 °C 6,0 °C 0,0 km/h (0 Bft)
11.04.2018 05:24 6,0 °C 91 % 1004,8 hPa 0,0 mm 0,0 km/h (0 Bft) NW 308 ° 0 min 0,000 mm 0,0 UV-I 0 W/m² 4,6 °C 6,0 °C 0,0 km/h (0 Bft)
11.04.2018 05:25 6,0 °C 91 % 1004,8 hPa 0,0 mm 0,0 km/h (0 Bft) NW 308 ° 0 min 0,000 mm 0,0 UV-I 0 W/m² 4,6 °C 6,0 °C 0,0 km/h (0 Bft)
11.04.2018 05:26 5,9 °C 91 % 1004,8 hPa 0,0 mm 0,0 km/h (0 Bft) NW 308 ° 0 min 0,000 mm 0,0 UV-I 0 W/m² 4,5 °C 5,9 °C 0,0 km/h (0 Bft)
11.04.2018 05:27 5,9 °C 91 % 1004,8 hPa 0,0 mm 0,0 km/h (0 Bft) NW 308 ° 0 min 0,000 mm 0,0 UV-I 0 W/m² 4,5 °C 5,9 °C 0,0 km/h (0 Bft)
11.04.2018 05:28 5,9 °C 91 % 1004,8 hPa 0,0 mm 0,0 km/h (0 Bft) NW 308 ° 0 min 0,000 mm 0,0 UV-I 0 W/m² 4,5 °C 5,9 °C 0,0 km/h (0 Bft)
11.04.2018 05:29 6,0 °C 91 % 1004,8 hPa 0,0 mm 0,7 km/h (0 Bft) NW 308 ° 0 min 0,000 mm 0,0 UV-I 0 W/m² 4,6 °C 6,0 °C 3,2 km/h (1 Bft)
11.04.2018 05:30 6,0 °C 91 % 1004,8 hPa 0,0 mm 3,2 km/h (1 Bft) S 182 ° 0 min 0,000 mm 0,0 UV-I 0 W/m² 4,6 °C 6,0 °C 4,8 km/h (1 Bft)
11.04.2018 05:31 6,0 °C 91 % 1004,8 hPa 0,0 mm 0,6 km/h (0 Bft) S 182 ° 0 min 0,000 mm 0,0 UV-I 0 W/m² 4,6 °C 6,0 °C 4,8 km/h (1 Bft)
11.04.2018 05:32 5,9 °C 91 % 1004,8 hPa 0,0 mm 0,2 km/h (0 Bft) S 182 ° 0 min 0,000 mm 0,0 UV-I 0 W/m² 4,5 °C 5,9 °C 1,6 km/h (1 Bft)
11.04.2018 05:33 5,9 °C 91 % 1004,8 hPa 0,0 mm 1,1 km/h (1 Bft) S-SO 164 ° 0 min 0,000 mm 0,0 UV-I 0 W/m² 4,5 °C 5,9 °C 3,2 km/h (1 Bft)
11.04.2018 05:34 5,9 °C 91 % 1004,8 hPa 0,0 mm 1,1 km/h (1 Bft) O-NO 77 ° 0 min 0,000 mm 0,0 UV-I 0 W/m² 4,5 °C 5,9 °C 3,2 km/h (1 Bft)
11.04.2018 05:35 5,9 °C 91 % 1004,8 hPa 0,0 mm 0,0 km/h (0 Bft) O-NO 77 ° 0 min 0,000 mm 0,0 UV-I 0 W/m² 4,5 °C 5,9 °C 0,0 km/h (0 Bft)
11.04.2018 05:36 5,9 °C 91 % 1004,8 hPa 0,0 mm 0,0 km/h (0 Bft) O-NO 77 ° 0 min 0,000 mm 0,0 UV-I 0 W/m² 4,5 °C 5,9 °C 0,0 km/h (0 Bft)
11.04.2018 05:37 6,0 °C 91 % 1004,7 hPa 0,0 mm 1,0 km/h (0 Bft) O-NO 71 ° 0 min 0,000 mm 0,0 UV-I 0 W/m² 4,6 °C 6,0 °C 4,8 km/h (1 Bft)
11.04.2018 05:38 5,9 °C 91 % 1004,7 hPa 0,0 mm 1,8 km/h (1 Bft) O-NO 71 ° 0 min 0,000 mm 0,0 UV-I 0 W/m² 4,5 °C 5,9 °C 4,8 km/h (1 Bft)
11.04.2018 05:39 5,9 °C 91 % 1004,7 hPa 0,0 mm 0,0 km/h (0 Bft) O-NO 71 ° 0 min 0,000 mm 0,0 UV-I 0 W/m² 4,5 °C 5,9 °C 0,0 km/h (0 Bft)
11.04.2018 05:40 5,9 °C 91 % 1004,7 hPa 0,0 mm 0,0 km/h (0 Bft) O-NO 71 ° 0 min 0,000 mm 0,0 UV-I 0 W/m² 4,5 °C 5,9 °C 0,0 km/h (0 Bft)
11.04.2018 05:41 5,8 °C 90 % 1004,7 hPa 0,0 mm 1,5 km/h (1 Bft) O 100 ° 0 min 0,000 mm 0,0 UV-I 0 W/m² 4,3 °C 5,8 °C 3,2 km/h (1 Bft)
11.04.2018 05:42 5,8 °C 91 % 1004,7 hPa 0,0 mm 0,0 km/h (0 Bft) O 100 ° 0 min 0,000 mm 0,0 UV-I 0 W/m² 4,4 °C 5,8 °C 0,0 km/h (0 Bft)
11.04.2018 05:43 5,7 °C 91 % 1004,7 hPa 0,0 mm 0,0 km/h (0 Bft) O 100 ° 0 min 0,000 mm 0,0 UV-I 0 W/m² 4,3 °C 5,7 °C 0,0 km/h (0 Bft)
11.04.2018 05:44 5,7 °C 91 % 1004,7 hPa 0,0 mm 0,5 km/h (0 Bft) O 100 ° 0 min 0,000 mm 0,0 UV-I 0 W/m² 4,3 °C 5,7 °C 1,6 km/h (1 Bft)
11.04.2018 05:45 5,7 °C 91 % 1004,7 hPa 0,0 mm 2,7 km/h (1 Bft) O-SO 117 ° 0 min 0,000 mm 0,0 UV-I 0 W/m² 4,3 °C 5,7 °C 4,8 km/h (1 Bft)
11.04.2018 05:46 5,7 °C 91 % 1004,7 hPa 0,0 mm 0,1 km/h (0 Bft) O-SO 117 ° 0 min 0,000 mm 0,0 UV-I 0 W/m² 4,3 °C 5,7 °C 1,6 km/h (1 Bft)
11.04.2018 05:47 5,7 °C 91 % 1004,7 hPa 0,0 mm 0,0 km/h (0 Bft) O-SO 117 ° 0 min 0,000 mm 0,0 UV-I 0 W/m² 4,3 °C 5,7 °C 0,0 km/h (0 Bft)
11.04.2018 05:48 5,6 °C 91 % 1004,7 hPa 0,0 mm 1,1 km/h (1 Bft) O-SO 117 ° 0 min 0,000 mm 0,0 UV-I 0 W/m² 4,2 °C 5,6 °C 3,2 km/h (1 Bft)
11.04.2018 05:49 5,6 °C 91 % 1004,7 hPa 0,0 mm 0,0 km/h (0 Bft) O-SO 117 ° 0 min 0,000 mm 0,0 UV-I 0 W/m² 4,2 °C 5,6 °C 0,0 km/h (0 Bft)
11.04.2018 05:50 5,6 °C 91 % 1004,7 hPa 0,0 mm 0,0 km/h (0 Bft) O-SO 117 ° 0 min 0,000 mm 0,0 UV-I 0 W/m² 4,2 °C 5,6 °C 0,0 km/h (0 Bft)
11.04.2018 05:51 5,6 °C 91 % 1004,6 hPa 0,0 mm 1,5 km/h (1 Bft) O-SO 108 ° 0 min 0,000 mm 0,0 UV-I 0 W/m² 4,2 °C 5,6 °C 3,2 km/h (1 Bft)
11.04.2018 05:52 5,4 °C 91 % 1004,7 hPa 0,0 mm 1,7 km/h (1 Bft) O-SO 108 ° 0 min 0,000 mm 0,0 UV-I 0 W/m² 4,1 °C 5,4 °C 4,8 km/h (1 Bft)
11.04.2018 05:53 5,4 °C 91 % 1004,7 hPa 0,0 mm 0,1 km/h (0 Bft) O-SO 108 ° 0 min 0,000 mm 0,0 UV-I 0 W/m² 4,1 °C 5,4 °C 1,6 km/h (1 Bft)
11.04.2018 05:54 5,3 °C 91 % 1004,7 hPa 0,0 mm 2,3 km/h (1 Bft) SO 130 ° 0 min 0,000 mm 0,0 UV-I 0 W/m² 4,0 °C 5,3 °C 4,8 km/h (1 Bft)
11.04.2018 05:55 5,3 °C 91 % 1004,7 hPa 0,0 mm 2,7 km/h (1 Bft) O-SO 119 ° 0 min 0,000 mm 0,0 UV-I 0 W/m² 4,0 °C 5,3 °C 6,4 km/h (2 Bft)
11.04.2018 05:56 5,3 °C 91 % 1004,7 hPa 0,0 mm 0,0 km/h (0 Bft) O-SO 119 ° 0 min 0,000 mm 0,0 UV-I 0 W/m² 4,0 °C 5,3 °C 0,0 km/h (0 Bft)
11.04.2018 05:57 5,3 °C 91 % 1004,7 hPa 0,0 mm 0,0 km/h (0 Bft) O-SO 119 ° 0 min 0,000 mm 0,0 UV-I 0 W/m² 4,0 °C 5,3 °C 0,0 km/h (0 Bft)
11.04.2018 05:58 5,3 °C 91 % 1004,6 hPa 0,0 mm 2,7 km/h (1 Bft) O 98 ° 0 min 0,000 mm 0,0 UV-I 0 W/m² 4,0 °C 5,3 °C 4,8 km/h (1 Bft)
11.04.2018 05:59 5,3 °C 91 % 1004,7 hPa 0,0 mm 3,3 km/h (1 Bft) O-SO 119 ° 0 min 0,000 mm 0,0 UV-I 0 W/m² 4,0 °C 5,3 °C 6,4 km/h (2 Bft)
11.04.2018 06:00 5,2 °C 91 % 1004,7 hPa 0,0 mm 2,7 km/h (1 Bft) O-SO 120 ° 0 min 0,000 mm 0,0 UV-I 0 W/m² 3,9 °C 5,2 °C 4,8 km/h (1 Bft)
11.04.2018 06:01 5,1 °C 91 % 1004,8 hPa 0,0 mm 0,2 km/h (0 Bft) O-SO 120 ° 0 min 0,000 mm 0,0 UV-I 0 W/m² 3,8 °C 5,1 °C 1,6 km/h (1 Bft)
11.04.2018 06:02 4,9 °C 91 % 1004,8 hPa 0,0 mm 0,0 km/h (0 Bft) O-SO 120 ° 0 min 0,000 mm 0,0 UV-I 0 W/m² 3,6 °C 4,9 °C 0,0 km/h (0 Bft)
11.04.2018 06:03 5,0 °C 92 % 1004,8 hPa 0,0 mm 0,0 km/h (0 Bft) O-SO 120 ° 0 min 0,000 mm 0,0 UV-I 0 W/m² 3,8 °C 5,0 °C 0,0 km/h (0 Bft)
11.04.2018 06:04 4,9 °C 92 % 1004,7 hPa 0,0 mm 1,7 km/h (1 Bft) O-SO 119 ° 0 min 0,000 mm 0,0 UV-I 0 W/m² 3,7 °C 4,9 °C 4,8 km/h (1 Bft)
11.04.2018 06:05 4,9 °C 92 % 1004,8 hPa 0,0 mm 1,4 km/h (1 Bft) O-SO 119 ° 0 min 0,000 mm 0,0 UV-I 0 W/m² 3,7 °C 4,9 °C 3,2 km/h (1 Bft)
11.04.2018 06:06 4,9 °C 92 % 1004,8 hPa 0,0 mm 2,7 km/h (1 Bft) O-SO 113 ° 0 min 0,000 mm 0,0 UV-I 0 W/m² 3,7 °C 4,9 °C 3,2 km/h (1 Bft)
11.04.2018 06:07 4,9 °C 92 % 1004,7 hPa 0,0 mm 2,5 km/h (1 Bft) O-SO 119 ° 0 min 0,000 mm 0,0 UV-I 0 W/m² 3,7 °C 4,9 °C 4,8 km/h (1 Bft)
11.04.2018 06:08 5,0 °C 92 % 1004,8 hPa 0,0 mm 1,3 km/h (1 Bft) O-SO 122 ° 0 min 0,000 mm 0,0 UV-I 0 W/m² 3,8 °C 5,0 °C 4,8 km/h (1 Bft)
11.04.2018 06:09 5,1 °C 92 % 1004,8 hPa 0,0 mm 0,0 km/h (0 Bft) O-SO 122 ° 0 min 0,000 mm 0,0 UV-I 0 W/m² 3,9 °C 5,1 °C 0,0 km/h (0 Bft)
11.04.2018 06:10 5,1 °C 92 % 1004,8 hPa 0,0 mm 0,0 km/h (0 Bft) O-SO 122 ° 0 min 0,000 mm 0,0 UV-I 0 W/m² 3,9 °C 5,1 °C 0,0 km/h (0 Bft)
11.04.2018 06:11 5,0 °C 92 % 1004,8 hPa 0,0 mm 0,0 km/h (0 Bft) O-SO 122 ° 0 min 0,000 mm 0,0 UV-I 0 W/m² 3,8 °C 5,0 °C 0,0 km/h (0 Bft)
11.04.2018 06:12 5,1 °C 92 % 1004,7 hPa 0,0 mm 0,0 km/h (0 Bft) O-SO 122 ° 0 min 0,000 mm 0,0 UV-I 0 W/m² 3,9 °C 5,1 °C 0,0 km/h (0 Bft)
11.04.2018 06:13 5,1 °C 92 % 1004,8 hPa 0,0 mm 0,0 km/h (0 Bft) O-SO 122 ° 0 min 0,000 mm 0,0 UV-I 0 W/m² 3,9 °C 5,1 °C 0,0 km/h (0 Bft)
11.04.2018 06:14 5,1 °C 92 % 1004,7 hPa 0,0 mm 0,0 km/h (0 Bft) O-SO 122 ° 0 min 0,000 mm 0,0 UV-I 0 W/m² 3,9 °C 5,1 °C 0,0 km/h (0 Bft)
11.04.2018 06:15 5,1 °C 92 % 1004,8 hPa 0,0 mm 1,2 km/h (1 Bft) O-SO 122 ° 0 min 0,000 mm 0,0 UV-I 0 W/m² 3,9 °C 5,1 °C 3,2 km/h (1 Bft)
11.04.2018 06:16 5,0 °C 92 % 1004,8 hPa 0,0 mm 0,4 km/h (0 Bft) O-SO 122 ° 0 min 0,000 mm 0,0 UV-I 0 W/m² 3,8 °C 5,0 °C 3,2 km/h (1 Bft)
11.04.2018 06:17 5,0 °C 92 % 1004,8 hPa 0,0 mm 0,0 km/h (0 Bft) O-SO 122 ° 0 min 0,000 mm 0,0 UV-I 0 W/m² 3,8 °C 5,0 °C 0,0 km/h (0 Bft)
11.04.2018 06:18 5,0 °C 92 % 1004,8 hPa 0,0 mm 0,0 km/h (0 Bft) O-SO 122 ° 0 min 0,000 mm 0,0 UV-I 0 W/m² 3,8 °C 5,0 °C 0,0 km/h (0 Bft)
11.04.2018 06:19 5,1 °C 93 % 1004,8 hPa 0,0 mm 0,0 km/h (0 Bft) O-SO 122 ° 0 min 0,000 mm 0,0 UV-I 0 W/m² 4,1 °C 5,1 °C 0,0 km/h (0 Bft)
11.04.2018 06:20 5,1 °C 92 % 1004,8 hPa 0,0 mm 0,0 km/h (0 Bft) O-SO 122 ° 0 min 0,000 mm 0,0 UV-I 0 W/m² 3,9 °C 5,1 °C 0,0 km/h (0 Bft)
11.04.2018 06:21 5,1 °C 92 % 1004,8 hPa 0,0 mm 0,0 km/h (0 Bft) O-SO 122 ° 0 min 0,000 mm 0,0 UV-I 0 W/m² 3,9 °C 5,1 °C 0,0 km/h (0 Bft)
11.04.2018 06:22 5,0 °C 92 % 1004,8 hPa 0,0 mm 0,0 km/h (0 Bft) O-SO 122 ° 0 min 0,000 mm 0,0 UV-I 0 W/m² 3,8 °C 5,0 °C 0,0 km/h (0 Bft)
11.04.2018 06:23 5,0 °C 92 % 1004,7 hPa 0,0 mm 0,0 km/h (0 Bft) O-SO 122 ° 0 min 0,000 mm 0,0 UV-I 0 W/m² 3,8 °C 5,0 °C 0,0 km/h (0 Bft)
11.04.2018 06:24 5,1 °C 92 % 1004,7 hPa 0,0 mm 0,0 km/h (0 Bft) O-SO 122 ° 0 min 0,000 mm 0,0 UV-I 0 W/m² 3,9 °C 5,1 °C 0,0 km/h (0 Bft)
11.04.2018 06:25 5,1 °C 92 % 1004,7 hPa 0,0 mm 0,0 km/h (0 Bft) O-SO 122 ° 0 min 0,000 mm 0,0 UV-I 0 W/m² 3,9 °C 5,1 °C 0,0 km/h (0 Bft)
11.04.2018 06:26 5,1 °C 93 % 1004,7 hPa 0,0 mm 0,0 km/h (0 Bft) O-SO 122 ° 0 min 0,000 mm 0,0 UV-I 0 W/m² 4,1 °C 5,1 °C 0,0 km/h (0 Bft)
11.04.2018 06:27 5,1 °C 92 % 1004,7 hPa 0,0 mm 0,0 km/h (0 Bft) O-SO 122 ° 0 min 0,000 mm 0,0 UV-I 0 W/m² 3,9 °C 5,1 °C 0,0 km/h (0 Bft)
11.04.2018 06:28 5,1 °C 92 % 1004,7 hPa 0,0 mm 0,0 km/h (0 Bft) O-SO 122 ° 0 min 0,000 mm 0,0 UV-I 0 W/m² 3,9 °C 5,1 °C 0,0 km/h (0 Bft)
11.04.2018 06:29 5,1 °C 92 % 1004,7 hPa 0,0 mm 0,0 km/h (0 Bft) O-SO 122 ° 0 min 0,000 mm 0,0 UV-I 0 W/m² 3,9 °C 5,1 °C 0,0 km/h (0 Bft)
11.04.2018 06:30 5,1 °C 92 % 1004,7 hPa 0,0 mm 0,0 km/h (0 Bft) O-SO 122 ° 0 min 0,000 mm 0,0 UV-I 0 W/m² 3,9 °C 5,1 °C 0,0 km/h (0 Bft)
11.04.2018 06:31 5,2 °C 92 % 1004,7 hPa 0,0 mm 0,0 km/h (0 Bft) O-SO 122 ° 0 min 0,000 mm 0,0 UV-I 0 W/m² 4,0 °C 5,2 °C 0,0 km/h (0 Bft)
11.04.2018 06:32 5,1 °C 92 % 1004,8 hPa 0,0 mm 0,0 km/h (0 Bft) O-SO 122 ° 0 min 0,000 mm 0,0 UV-I 0 W/m² 3,9 °C 5,1 °C 0,0 km/h (0 Bft)
11.04.2018 06:33 5,1 °C 92 % 1004,7 hPa 0,0 mm 0,0 km/h (0 Bft) O-SO 122 ° 0 min 0,000 mm 0,0 UV-I 0 W/m² 3,9 °C 5,1 °C 0,0 km/h (0 Bft)
11.04.2018 06:34 5,1 °C 92 % 1004,7 hPa 0,0 mm 0,0 km/h (0 Bft) O-SO 122 ° 0 min 0,000 mm 0,0 UV-I 0 W/m² 3,9 °C 5,1 °C 0,0 km/h (0 Bft)
11.04.2018 06:35 5,1 °C 92 % 1004,7 hPa 0,0 mm 0,0 km/h (0 Bft) O-SO 122 ° 0 min 0,000 mm 0,0 UV-I 0 W/m² 3,9 °C 5,1 °C 0,0 km/h (0 Bft)
11.04.2018 06:36 5,1 °C 92 % 1004,7 hPa 0,0 mm 0,0 km/h (0 Bft) O-SO 122 ° 0 min 0,000 mm 0,0 UV-I 0 W/m² 3,9 °C 5,1 °C 0,0 km/h (0 Bft)
11.04.2018 06:37 5,1 °C 92 % 1004,7 hPa 0,0 mm 0,0 km/h (0 Bft) O-SO 122 ° 0 min 0,000 mm 0,0 UV-I 5 W/m² 3,9 °C 5,1 °C 0,0 km/h (0 Bft)
11.04.2018 06:38 4,9 °C 92 % 1004,8 hPa 0,0 mm 0,0 km/h (0 Bft) O-SO 122 ° 0 min 0,000 mm 0,0 UV-I 5 W/m² 3,7 °C 4,9 °C 0,0 km/h (0 Bft)
11.04.2018 06:39 4,8 °C 92 % 1004,7 hPa 0,0 mm 0,0 km/h (0 Bft) O-SO 122 ° 0 min 0,000 mm 0,0 UV-I 5 W/m² 3,6 °C 4,8 °C 0,0 km/h (0 Bft)
11.04.2018 06:40 4,6 °C 91 % 1004,7 hPa 0,0 mm 0,0 km/h (0 Bft) O-SO 122 ° 0 min 0,000 mm 0,0 UV-I 5 W/m² 3,3 °C 4,6 °C 0,0 km/h (0 Bft)
11.04.2018 06:41 4,6 °C 92 % 1004,8 hPa 0,0 mm 0,0 km/h (0 Bft) O-SO 122 ° 0 min 0,000 mm 0,0 UV-I 5 W/m² 3,4 °C 4,6 °C 0,0 km/h (0 Bft)
11.04.2018 06:42 4,4 °C 92 % 1004,7 hPa 0,0 mm 0,0 km/h (0 Bft) O-SO 122 ° 0 min 0,000 mm 0,0 UV-I 7 W/m² 3,2 °C 4,4 °C 0,0 km/h (0 Bft)
11.04.2018 06:43 4,5 °C 92 % 1004,7 hPa 0,0 mm 0,0 km/h (0 Bft) O-SO 122 ° 0 min 0,000 mm 0,0 UV-I 7 W/m² 3,3 °C 4,5 °C 0,0 km/h (0 Bft)
11.04.2018 06:44 4,6 °C 92 % 1004,7 hPa 0,0 mm 0,0 km/h (0 Bft) O-SO 122 ° 0 min 0,000 mm 0,0 UV-I 7 W/m² 3,4 °C 4,6 °C 0,0 km/h (0 Bft)
11.04.2018 06:45 4,6 °C 93 % 1004,7 hPa 0,0 mm 0,0 km/h (0 Bft) O-SO 122 ° 0 min 0,000 mm 0,0 UV-I 7 W/m² 3,6 °C 4,6 °C 0,0 km/h (0 Bft)
11.04.2018 06:46 4,6 °C 92 % 1004,7 hPa 0,0 mm 0,0 km/h (0 Bft) O-SO 122 ° 0 min 0,000 mm 0,0 UV-I 9 W/m² 3,4 °C 4,6 °C 0,0 km/h (0 Bft)
11.04.2018 06:47 4,6 °C 92 % 1004,7 hPa 0,0 mm 0,0 km/h (0 Bft) O-SO 122 ° 0 min 0,000 mm 0,0 UV-I 9 W/m² 3,4 °C 4,6 °C 0,0 km/h (0 Bft)
11.04.2018 06:48 4,5 °C 92 % 1004,8 hPa 0,0 mm 0,0 km/h (0 Bft) O-SO 122 ° 0 min 0,000 mm 0,0 UV-I 9 W/m² 3,3 °C 4,5 °C 0,0 km/h (0 Bft)
11.04.2018 06:49 4,4 °C 92 % 1004,7 hPa 0,0 mm 0,0 km/h (0 Bft) O-SO 122 ° 0 min 0,000 mm 0,0 UV-I 11 W/m² 3,2 °C 4,4 °C 0,0 km/h (0 Bft)
11.04.2018 06:50 4,3 °C 92 % 1004,7 hPa 0,0 mm 0,0 km/h (0 Bft) O-SO 122 ° 0 min 0,000 mm 0,0 UV-I 11 W/m² 3,1 °C 4,3 °C 0,0 km/h (0 Bft)
11.04.2018 06:51 4,3 °C 92 % 1004,7 hPa 0,0 mm 0,0 km/h (0 Bft) O-SO 122 ° 0 min 0,000 mm 0,0 UV-I 11 W/m² 3,1 °C 4,3 °C 0,0 km/h (0 Bft)
11.04.2018 06:52 4,2 °C 92 % 1004,7 hPa 0,0 mm 0,0 km/h (0 Bft) O-SO 122 ° 0 min 0,000 mm 0,0 UV-I 11 W/m² 3,0 °C 4,2 °C 0,0 km/h (0 Bft)
11.04.2018 06:53 4,2 °C 92 % 1004,7 hPa 0,0 mm 0,0 km/h (0 Bft) O-SO 122 ° 0 min 0,000 mm 0,0 UV-I 12 W/m² 3,0 °C 4,2 °C 0,0 km/h (0 Bft)
11.04.2018 06:54 4,2 °C 92 % 1004,7 hPa 0,0 mm 0,0 km/h (0 Bft) O-SO 122 ° 0 min 0,000 mm 0,0 UV-I 12 W/m² 3,0 °C 4,2 °C 0,0 km/h (0 Bft)
11.04.2018 06:55 4,2 °C 92 % 1004,8 hPa 0,0 mm 0,0 km/h (0 Bft) O-SO 122 ° 0 min 0,000 mm 0,0 UV-I 12 W/m² 3,0 °C 4,2 °C 0,0 km/h (0 Bft)
11.04.2018 06:56 4,2 °C 92 % 1004,7 hPa 0,0 mm 0,0 km/h (0 Bft) O-SO 122 ° 0 min 0,000 mm 0,0 UV-I 12 W/m² 3,0 °C 4,2 °C 0,0 km/h (0 Bft)
11.04.2018 06:57 4,1 °C 92 % 1004,7 hPa 0,0 mm 0,0 km/h (0 Bft) O-SO 122 ° 0 min 0,000 mm 0,0 UV-I 14 W/m² 2,9 °C 4,1 °C 0,0 km/h (0 Bft)
11.04.2018 06:58 4,1 °C 92 % 1004,7 hPa 0,0 mm 0,0 km/h (0 Bft) O-SO 122 ° 0 min 0,000 mm 0,0 UV-I 14 W/m² 2,9 °C 4,1 °C 0,0 km/h (0 Bft)
11.04.2018 06:59 3,9 °C 92 % 1004,7 hPa 0,0 mm 0,0 km/h (0 Bft) O-SO 122 ° 0 min 0,000 mm 0,0 UV-I 14 W/m² 2,7 °C 3,9 °C 0,0 km/h (0 Bft)
11.04.2018 07:00 3,9 °C 92 % 1004,7 hPa 0,0 mm 0,0 km/h (0 Bft) O-SO 122 ° 0 min 0,000 mm 0,0 UV-I 14 W/m² 2,7 °C 3,9 °C 0,0 km/h (0 Bft)
11.04.2018 07:01 3,8 °C 92 % 1004,7 hPa 0,0 mm 0,0 km/h (0 Bft) O-SO 122 ° 0 min 0,000 mm 0,0 UV-I 16 W/m² 2,6 °C 3,8 °C 0,0 km/h (0 Bft)
11.04.2018 07:02 3,7 °C 92 % 1004,8 hPa 0,0 mm 0,0 km/h (0 Bft) O-SO 122 ° 0 min 0,000 mm 0,0 UV-I 16 W/m² 2,5 °C 3,7 °C 0,0 km/h (0 Bft)
11.04.2018 07:03 3,7 °C 92 % 1004,8 hPa 0,0 mm 0,0 km/h (0 Bft) O-SO 122 ° 0 min 0,000 mm 0,0 UV-I 16 W/m² 2,5 °C 3,7 °C 0,0 km/h (0 Bft)
11.04.2018 07:04 3,8 °C 93 % 1004,8 hPa 0,0 mm 0,0 km/h (0 Bft) O-SO 122 ° 0 min 0,000 mm 0,0 UV-I 18 W/m² 2,8 °C 3,8 °C 0,0 km/h (0 Bft)
11.04.2018 07:05 3,9 °C 93 % 1004,7 hPa 0,0 mm 0,0 km/h (0 Bft) O-SO 122 ° 0 min 0,000 mm 0,0 UV-I 18 W/m² 2,9 °C 3,9 °C 0,0 km/h (0 Bft)
11.04.2018 07:06 4,0 °C 93 % 1004,8 hPa 0,0 mm 0,0 km/h (0 Bft) O-SO 122 ° 0 min 0,000 mm 0,0 UV-I 18 W/m² 3,0 °C 4,0 °C 0,0 km/h (0 Bft)
11.04.2018 07:07 4,2 °C 93 % 1004,8 hPa 0,0 mm 0,0 km/h (0 Bft) O-SO 122 ° 0 min 0,000 mm 0,0 UV-I 19 W/m² 3,2 °C 4,2 °C 0,0 km/h (0 Bft)
11.04.2018 07:08 4,3 °C 93 % 1004,8 hPa 0,0 mm 0,0 km/h (0 Bft) O-SO 122 ° 0 min 0,000 mm 0,0 UV-I 19 W/m² 3,3 °C 4,3 °C 0,0 km/h (0 Bft)
11.04.2018 07:09 4,3 °C 93 % 1004,8 hPa 0,0 mm 0,0 km/h (0 Bft) O-SO 122 ° 0 min 0,000 mm 0,0 UV-I 19 W/m² 3,3 °C 4,3 °C 0,0 km/h (0 Bft)
11.04.2018 07:10 4,3 °C 93 % 1004,8 hPa 0,0 mm 0,0 km/h (0 Bft) O-SO 122 ° 0 min 0,000 mm 0,0 UV-I 21 W/m² 3,3 °C 4,3 °C 0,0 km/h (0 Bft)
11.04.2018 07:11 4,3 °C 93 % 1004,8 hPa 0,0 mm 0,0 km/h (0 Bft) O-SO 122 ° 0 min 0,000 mm 0,0 UV-I 21 W/m² 3,3 °C 4,3 °C 0,0 km/h (0 Bft)
11.04.2018 07:12 4,4 °C 93 % 1004,8 hPa 0,0 mm 0,0 km/h (0 Bft) O-SO 122 ° 0 min 0,000 mm 0,0 UV-I 21 W/m² 3,4 °C 4,4 °C 0,0 km/h (0 Bft)
11.04.2018 07:13 4,4 °C 93 % 1004,8 hPa 0,0 mm 0,0 km/h (0 Bft) O-SO 122 ° 0 min 0,000 mm 0,0 UV-I 21 W/m² 3,4 °C 4,4 °C 0,0 km/h (0 Bft)
11.04.2018 07:14 4,4 °C 93 % 1004,8 hPa 0,0 mm 0,0 km/h (0 Bft) O-SO 122 ° 0 min 0,000 mm 0,0 UV-I 21 W/m² 3,4 °C 4,4 °C 0,0 km/h (0 Bft)
11.04.2018 07:15 4,4 °C 93 % 1004,8 hPa 0,0 mm 0,0 km/h (0 Bft) O-SO 122 ° 0 min 0,000 mm 0,0 UV-I 23 W/m² 3,4 °C 4,4 °C 0,0 km/h (0 Bft)
11.04.2018 07:16 4,3 °C 93 % 1004,8 hPa 0,0 mm 0,0 km/h (0 Bft) O-SO 122 ° 0 min 0,000 mm 0,0 UV-I 23 W/m² 3,3 °C 4,3 °C 0,0 km/h (0 Bft)
11.04.2018 07:17 4,3 °C 93 % 1004,8 hPa 0,0 mm 0,0 km/h (0 Bft) O-SO 122 ° 0 min 0,000 mm 0,0 UV-I 23 W/m² 3,3 °C 4,3 °C 0,0 km/h (0 Bft)
11.04.2018 07:18 4,4 °C 93 % 1004,8 hPa 0,0 mm 0,0 km/h (0 Bft) O-SO 122 ° 0 min 0,000 mm 0,0 UV-I 23 W/m² 3,4 °C 4,4 °C 0,0 km/h (0 Bft)
11.04.2018 07:19 4,4 °C 93 % 1004,8 hPa 0,0 mm 0,0 km/h (0 Bft) O-SO 122 ° 0 min 0,000 mm 0,0 UV-I 25 W/m² 3,4 °C 4,4 °C 0,0 km/h (0 Bft)
11.04.2018 07:20 4,4 °C 93 % 1004,7 hPa 0,0 mm 0,0 km/h (0 Bft) O-SO 122 ° 0 min 0,000 mm 0,0 UV-I 25 W/m² 3,4 °C 4,4 °C 0,0 km/h (0 Bft)
11.04.2018 07:21 4,3 °C 93 % 1004,8 hPa 0,0 mm 0,0 km/h (0 Bft) O-SO 122 ° 0 min 0,000 mm 0,0 UV-I 25 W/m² 3,3 °C 4,3 °C 0,0 km/h (0 Bft)
11.04.2018 07:22 4,3 °C 93 % 1004,8 hPa 0,0 mm 0,0 km/h (0 Bft) O-SO 122 ° 0 min 0,000 mm 0,0 UV-I 26 W/m² 3,3 °C 4,3 °C 0,0 km/h (0 Bft)
11.04.2018 07:23 4,1 °C 93 % 1004,8 hPa 0,0 mm 0,0 km/h (0 Bft) O-SO 122 ° 0 min 0,000 mm 0,0 UV-I 26 W/m² 3,1 °C 4,1 °C 0,0 km/h (0 Bft)
11.04.2018 07:24 3,7 °C 92 % 1004,8 hPa 0,0 mm 0,0 km/h (0 Bft) O-SO 122 ° 0 min 0,000 mm 0,0 UV-I 28 W/m² 2,5 °C 3,7 °C 0,0 km/h (0 Bft)
11.04.2018 07:25 3,4 °C 92 % 1004,8 hPa 0,0 mm 0,0 km/h (0 Bft) O-SO 122 ° 0 min 0,000 mm 0,0 UV-I 28 W/m² 2,2 °C 3,4 °C 0,0 km/h (0 Bft)
11.04.2018 07:26 3,3 °C 92 % 1004,8 hPa 0,0 mm 0,0 km/h (0 Bft) O-SO 122 ° 0 min 0,000 mm 0,0 UV-I 30 W/m² 2,1 °C 3,3 °C 0,0 km/h (0 Bft)
11.04.2018 07:27 3,2 °C 92 % 1004,8 hPa 0,0 mm 0,0 km/h (0 Bft) O-SO 122 ° 0 min 0,000 mm 0,0 UV-I 30 W/m² 2,0 °C 3,2 °C 0,0 km/h (0 Bft)
11.04.2018 07:28 3,2 °C 92 % 1004,8 hPa 0,0 mm 0,0 km/h (0 Bft) O-SO 122 ° 0 min 0,000 mm 0,0 UV-I 30 W/m² 2,0 °C 3,2 °C 0,0 km/h (0 Bft)
11.04.2018 07:29 3,3 °C 93 % 1004,8 hPa 0,0 mm 0,0 km/h (0 Bft) O-SO 122 ° 0 min 0,000 mm 0,0 UV-I 30 W/m² 2,3 °C 3,3 °C 0,0 km/h (0 Bft)
11.04.2018 07:30 3,4 °C 93 % 1004,8 hPa 0,0 mm 0,0 km/h (0 Bft) O-SO 122 ° 0 min 0,000 mm 0,0 UV-I 30 W/m² 2,4 °C 3,4 °C 0,0 km/h (0 Bft)
11.04.2018 07:31 3,4 °C 93 % 1004,7 hPa 0,0 mm 0,0 km/h (0 Bft) O-SO 122 ° 0 min 0,000 mm 0,0 UV-I 30 W/m² 2,4 °C 3,4 °C 0,0 km/h (0 Bft)
11.04.2018 07:32 3,6 °C 93 % 1004,7 hPa 0,0 mm 0,0 km/h (0 Bft) O-SO 122 ° 0 min 0,000 mm 0,0 UV-I 30 W/m² 2,6 °C 3,6 °C 0,0 km/h (0 Bft)
11.04.2018 07:33 3,8 °C 94 % 1004,8 hPa 0,0 mm 0,0 km/h (0 Bft) O-SO 122 ° 0 min 0,000 mm 0,0 UV-I 32 W/m² 2,9 °C 3,8 °C 0,0 km/h (0 Bft)
11.04.2018 07:34 4,1 °C 94 % 1004,8 hPa 0,0 mm 0,0 km/h (0 Bft) O-SO 122 ° 0 min 0,000 mm 0,0 UV-I 32 W/m² 3,2 °C 4,1 °C 0,0 km/h (0 Bft)
11.04.2018 07:35 4,1 °C 94 % 1004,7 hPa 0,0 mm 0,0 km/h (0 Bft) O-SO 122 ° 0 min 0,000 mm 0,0 UV-I 33 W/m² 3,2 °C 4,1 °C 0,0 km/h (0 Bft)
11.04.2018 07:36 4,0 °C 94 % 1004,7 hPa 0,0 mm 0,0 km/h (0 Bft) O-SO 122 ° 0 min 0,000 mm 0,0 UV-I 35 W/m² 3,1 °C 4,0 °C 0,0 km/h (0 Bft)
11.04.2018 07:37 4,1 °C 93 % 1004,7 hPa 0,0 mm 0,0 km/h (0 Bft) O-SO 122 ° 0 min 0,000 mm 0,0 UV-I 35 W/m² 3,1 °C 4,1 °C 0,0 km/h (0 Bft)
11.04.2018 07:38 4,1 °C 93 % 1004,7 hPa 0,0 mm 0,0 km/h (0 Bft) O-SO 122 ° 0 min 0,000 mm 0,0 UV-I 39 W/m² 3,1 °C 4,1 °C 0,0 km/h (0 Bft)
11.04.2018 07:39 4,1 °C 94 % 1004,7 hPa 0,0 mm 0,0 km/h (0 Bft) O-SO 122 ° 0 min 0,000 mm 0,0 UV-I 33 W/m² 3,2 °C 4,1 °C 0,0 km/h (0 Bft)
11.04.2018 07:40 4,2 °C 94 % 1004,7 hPa 0,0 mm 0,0 km/h (0 Bft) O-SO 122 ° 0 min 0,000 mm 0,0 UV-I 33 W/m² 3,3 °C 4,2 °C 0,0 km/h (0 Bft)
11.04.2018 07:41 4,2 °C 94 % 1004,7 hPa 0,0 mm 0,0 km/h (0 Bft) O-SO 122 ° 0 min 0,000 mm 0,0 UV-I 32 W/m² 3,3 °C 4,2 °C 0,0 km/h (0 Bft)
11.04.2018 07:42 4,2 °C 94 % 1004,7 hPa 0,0 mm 0,0 km/h (0 Bft) O-SO 122 ° 0 min 0,000 mm 0,0 UV-I 32 W/m² 3,3 °C 4,2 °C 0,0 km/h (0 Bft)
11.04.2018 07:43 4,2 °C 94 % 1004,7 hPa 0,0 mm 0,0 km/h (0 Bft) O-SO 122 ° 0 min 0,000 mm 0,0 UV-I 33 W/m² 3,3 °C 4,2 °C 0,0 km/h (0 Bft)
11.04.2018 07:44 4,3 °C 94 % 1004,7 hPa 0,0 mm 0,0 km/h (0 Bft) O-SO 122 ° 0 min 0,000 mm 0,0 UV-I 33 W/m² 3,4 °C 4,3 °C 0,0 km/h (0 Bft)
11.04.2018 07:45 4,3 °C 94 % 1004,7 hPa 0,0 mm 0,0 km/h (0 Bft) O-SO 122 ° 0 min 0,000 mm 0,0 UV-I 37 W/m² 3,4 °C 4,3 °C 0,0 km/h (0 Bft)
11.04.2018 07:46 4,3 °C 94 % 1004,7 hPa 0,0 mm 0,0 km/h (0 Bft) O-SO 122 ° 0 min 0,000 mm 0,0 UV-I 40 W/m² 3,4 °C 4,3 °C 0,0 km/h (0 Bft)
11.04.2018 07:47 4,3 °C 94 % 1004,7 hPa 0,0 mm 0,0 km/h (0 Bft) O-SO 122 ° 0 min 0,000 mm 0,0 UV-I 51 W/m² 3,4 °C 4,3 °C 0,0 km/h (0 Bft)
11.04.2018 07:48 4,3 °C 94 % 1004,7 hPa 0,0 mm 0,0 km/h (0 Bft) O-SO 122 ° 0 min 0,000 mm 0,5 UV-I 69 W/m² 3,4 °C 4,3 °C 0,0 km/h (0 Bft)
11.04.2018 07:49 4,3 °C 94 % 1004,7 hPa 0,0 mm 0,0 km/h (0 Bft) O-SO 122 ° 0 min 0,000 mm 0,5 UV-I 84 W/m² 3,4 °C 4,3 °C 0,0 km/h (0 Bft)
11.04.2018 07:50 4,4 °C 94 % 1004,7 hPa 0,0 mm 0,0 km/h (0 Bft) O-SO 122 ° 0 min 0,000 mm 0,5 UV-I 93 W/m² 3,5 °C 4,4 °C 0,0 km/h (0 Bft)
11.04.2018 07:51 4,4 °C 94 % 1004,7 hPa 0,0 mm 0,0 km/h (0 Bft) O-SO 122 ° 0 min 0,000 mm 0,5 UV-I 97 W/m² 3,5 °C 4,4 °C 0,0 km/h (0 Bft)
11.04.2018 07:52 4,4 °C 93 % 1004,7 hPa 0,0 mm 0,0 km/h (0 Bft) O-SO 122 ° 0 min 0,000 mm 0,5 UV-I 97 W/m² 3,4 °C 4,4 °C 0,0 km/h (0 Bft)
11.04.2018 07:53 4,5 °C 93 % 1004,7 hPa 0,0 mm 0,0 km/h (0 Bft) O-SO 122 ° 0 min 0,000 mm 0,5 UV-I 100 W/m² 3,5 °C 4,5 °C 0,0 km/h (0 Bft)
11.04.2018 07:54 4,7 °C 94 % 1004,7 hPa 0,0 mm 0,0 km/h (0 Bft) O-SO 122 ° 0 min 0,000 mm 0,5 UV-I 107 W/m² 3,8 °C 4,7 °C 0,0 km/h (0 Bft)
11.04.2018 07:55 4,8 °C 94 % 1004,6 hPa 0,0 mm 0,0 km/h (0 Bft) O-SO 122 ° 0 min 0,000 mm 0,5 UV-I 118 W/m² 3,9 °C 4,8 °C 0,0 km/h (0 Bft)
11.04.2018 07:56 4,7 °C 94 % 1004,6 hPa 0,0 mm 0,0 km/h (0 Bft) O-SO 122 ° 0 min 0,000 mm 0,6 UV-I 134 W/m² 3,8 °C 4,7 °C 0,0 km/h (0 Bft)
11.04.2018 07:57 4,7 °C 94 % 1004,6 hPa 0,0 mm 0,0 km/h (0 Bft) O-SO 122 ° 0 min 0,000 mm 0,6 UV-I 151 W/m² 3,8 °C 4,7 °C 0,0 km/h (0 Bft)
11.04.2018 07:58 4,8 °C 93 % 1004,6 hPa 0,0 mm 0,0 km/h (0 Bft) O-SO 122 ° 0 min 0,000 mm 0,6 UV-I 155 W/m² 3,8 °C 4,8 °C 0,0 km/h (0 Bft)
11.04.2018 07:59 4,9 °C 94 % 1004,6 hPa 0,0 mm 0,0 km/h (0 Bft) O-SO 122 ° 0 min 0,000 mm 0,6 UV-I 156 W/m² 4,0 °C 4,9 °C 0,0 km/h (0 Bft)
11.04.2018 08:00 4,9 °C 94 % 1004,6 hPa 0,0 mm 0,0 km/h (0 Bft) O-SO 122 ° 0 min 0,025 mm 0,6 UV-I 158 W/m² 4,0 °C 4,9 °C 0,0 km/h (0 Bft)
11.04.2018 08:01 5,1 °C 94 % 1004,7 hPa 0,0 mm 0,0 km/h (0 Bft) O-SO 122 ° 0 min 0,000 mm 0,6 UV-I 155 W/m² 4,2 °C 5,1 °C 0,0 km/h (0 Bft)
11.04.2018 08:02 5,1 °C 94 % 1004,6 hPa 0,0 mm 0,0 km/h (0 Bft) O-SO 122 ° 0 min 0,000 mm 0,6 UV-I 158 W/m² 4,2 °C 5,1 °C 0,0 km/h (0 Bft)
11.04.2018 08:03 5,2 °C 93 % 1004,6 hPa 0,0 mm 0,0 km/h (0 Bft) O-SO 122 ° 0 min 0,000 mm 0,6 UV-I 167 W/m² 4,2 °C 5,2 °C 0,0 km/h (0 Bft)
11.04.2018 08:04 5,3 °C 94 % 1004,6 hPa 0,0 mm 0,0 km/h (0 Bft) O-SO 122 ° 0 min 0,000 mm 0,7 UV-I 172 W/m² 4,4 °C 5,3 °C 0,0 km/h (0 Bft)
11.04.2018 08:05 5,4 °C 94 % 1004,6 hPa 0,0 mm 0,0 km/h (0 Bft) O-SO 122 ° 0 min 0,000 mm 0,7 UV-I 174 W/m² 4,5 °C 5,4 °C 0,0 km/h (0 Bft)
11.04.2018 08:06 5,4 °C 93 % 1004,6 hPa 0,0 mm 0,0 km/h (0 Bft) O-SO 122 ° 0 min 0,000 mm 0,7 UV-I 178 W/m² 4,4 °C 5,4 °C 0,0 km/h (0 Bft)
11.04.2018 08:07 5,5 °C 93 % 1004,6 hPa 0,0 mm 0,0 km/h (0 Bft) O-SO 122 ° 0 min 0,000 mm 0,7 UV-I 181 W/m² 4,5 °C 5,5 °C 0,0 km/h (0 Bft)
11.04.2018 08:08 5,6 °C 93 % 1004,6 hPa 0,0 mm 0,0 km/h (0 Bft) O-SO 122 ° 0 min 0,000 mm 0,7 UV-I 185 W/m² 4,6 °C 5,6 °C 0,0 km/h (0 Bft)
11.04.2018 08:09 5,6 °C 93 % 1004,6 hPa 0,0 mm 0,0 km/h (0 Bft) O-SO 122 ° 0 min 0,000 mm 0,7 UV-I 192 W/m² 4,6 °C 5,6 °C 0,0 km/h (0 Bft)
11.04.2018 08:10 5,7 °C 93 % 1004,6 hPa 0,0 mm 0,0 km/h (0 Bft) O-SO 122 ° 0 min 0,000 mm 0,7 UV-I 192 W/m² 4,7 °C 5,7 °C 0,0 km/h (0 Bft)
11.04.2018 08:11 5,8 °C 93 % 1004,6 hPa 0,0 mm 0,0 km/h (0 Bft) O-SO 122 ° 0 min 0,000 mm 0,8 UV-I 195 W/m² 4,8 °C 5,8 °C 0,0 km/h (0 Bft)
11.04.2018 08:12 5,9 °C 93 % 1004,6 hPa 0,0 mm 0,0 km/h (0 Bft) O-SO 122 ° 0 min 0,000 mm 0,8 UV-I 199 W/m² 4,9 °C 5,9 °C 0,0 km/h (0 Bft)
11.04.2018 08:13 5,9 °C 93 % 1004,6 hPa 0,0 mm 0,0 km/h (0 Bft) O-SO 122 ° 0 min 0,000 mm 0,8 UV-I 200 W/m² 4,9 °C 5,9 °C 0,0 km/h (0 Bft)
11.04.2018 08:14 5,9 °C 93 % 1004,6 hPa 0,0 mm 0,0 km/h (0 Bft) O-SO 122 ° 0 min 0,000 mm 0,8 UV-I 202 W/m² 4,9 °C 5,9 °C 0,0 km/h (0 Bft)
11.04.2018 08:15 6,0 °C 93 % 1004,6 hPa 0,0 mm 0,1 km/h (0 Bft) O-SO 122 ° 0 min 0,000 mm 0,8 UV-I 207 W/m² 5,0 °C 6,0 °C 1,6 km/h (1 Bft)
11.04.2018 08:16 6,0 °C 93 % 1004,5 hPa 0,0 mm 0,9 km/h (0 Bft) O-SO 122 ° 0 min 0,000 mm 0,8 UV-I 209 W/m² 5,0 °C 6,0 °C 3,2 km/h (1 Bft)
11.04.2018 08:17 6,1 °C 92 % 1004,6 hPa 0,0 mm 2,0 km/h (1 Bft) O-SO 111 ° 0 min 0,000 mm 0,9 UV-I 211 W/m² 4,9 °C 6,1 °C 4,8 km/h (1 Bft)
11.04.2018 08:18 6,1 °C 92 % 1004,6 hPa 0,0 mm 5,0 km/h (1 Bft) O-SO 109 ° 0 min 0,000 mm 0,9 UV-I 214 W/m² 4,9 °C 5,3 °C 6,4 km/h (2 Bft)
11.04.2018 08:19 6,2 °C 92 % 1004,5 hPa 0,0 mm 3,1 km/h (1 Bft) O-SO 108 ° 0 min 0,000 mm 0,9 UV-I 216 W/m² 5,0 °C 6,2 °C 4,8 km/h (1 Bft)
11.04.2018 08:20 6,3 °C 92 % 1004,5 hPa 0,0 mm 1,3 km/h (1 Bft) O-SO 108 ° 0 min 0,000 mm 0,9 UV-I 220 W/m² 5,1 °C 6,3 °C 3,2 km/h (1 Bft)
11.04.2018 08:21 6,4 °C 92 % 1004,5 hPa 0,0 mm 0,5 km/h (0 Bft) O-SO 108 ° 0 min 0,000 mm 0,9 UV-I 227 W/m² 5,2 °C 6,4 °C 3,2 km/h (1 Bft)
11.04.2018 08:22 6,5 °C 91 % 1004,5 hPa 0,0 mm 1,5 km/h (1 Bft) O-SO 108 ° 0 min 0,000 mm 0,9 UV-I 227 W/m² 5,1 °C 6,5 °C 3,2 km/h (1 Bft)
11.04.2018 08:23 6,6 °C 91 % 1004,5 hPa 0,0 mm 1,3 km/h (1 Bft) O-SO 108 ° 0 min 0,000 mm 1,0 UV-I 232 W/m² 5,2 °C 6,6 °C 1,6 km/h (1 Bft)
11.04.2018 08:24 6,7 °C 90 % 1004,5 hPa 0,0 mm 0,1 km/h (0 Bft) O-SO 108 ° 0 min 0,000 mm 1,0 UV-I 236 W/m² 5,2 °C 6,7 °C 1,6 km/h (1 Bft)
11.04.2018 08:25 6,8 °C 90 % 1004,5 hPa 0,0 mm 0,0 km/h (0 Bft) O-SO 108 ° 0 min 0,000 mm 1,0 UV-I 237 W/m² 5,3 °C 6,8 °C 0,0 km/h (0 Bft)
11.04.2018 08:26 6,8 °C 90 % 1004,5 hPa 0,0 mm 0,0 km/h (0 Bft) O-SO 108 ° 0 min 0,000 mm 1,0 UV-I 241 W/m² 5,3 °C 6,8 °C 0,0 km/h (0 Bft)
11.04.2018 08:27 6,9 °C 89 % 1004,5 hPa 0,0 mm 0,0 km/h (0 Bft) O-SO 108 ° 0 min 0,000 mm 1,0 UV-I 244 W/m² 5,2 °C 6,9 °C 0,0 km/h (0 Bft)
11.04.2018 08:28 7,0 °C 89 % 1004,4 hPa 0,0 mm 0,1 km/h (0 Bft) O-SO 108 ° 0 min 0,000 mm 1,1 UV-I 246 W/m² 5,3 °C 7,0 °C 1,6 km/h (1 Bft)
11.04.2018 08:29 7,0 °C 89 % 1004,5 hPa 0,0 mm 0,2 km/h (0 Bft) O-SO 108 ° 0 min 0,000 mm 1,1 UV-I 250 W/m² 5,3 °C 7,0 °C 1,6 km/h (1 Bft)
11.04.2018 08:30 7,1 °C 88 % 1004,5 hPa 0,0 mm 0,0 km/h (0 Bft) O-SO 108 ° 0 min 0,000 mm 1,1 UV-I 251 W/m² 5,2 °C 7,1 °C 0,0 km/h (0 Bft)
11.04.2018 08:31 7,2 °C 88 % 1004,5 hPa 0,0 mm 0,0 km/h (0 Bft) O-SO 108 ° 0 min 0,000 mm 1,1 UV-I 255 W/m² 5,3 °C 7,2 °C 0,0 km/h (0 Bft)
11.04.2018 08:32 7,3 °C 88 % 1004,5 hPa 0,0 mm 1,2 km/h (1 Bft) O-SO 109 ° 0 min 0,000 mm 1,1 UV-I 260 W/m² 5,4 °C 7,3 °C 1,6 km/h (1 Bft)
11.04.2018 08:33 7,6 °C 88 % 1004,5 hPa 0,0 mm 2,9 km/h (1 Bft) O-SO 107 ° 0 min 0,000 mm 1,1 UV-I 262 W/m² 5,7 °C 7,6 °C 3,2 km/h (1 Bft)
11.04.2018 08:34 7,7 °C 87 % 1004,5 hPa 0,0 mm 0,5 km/h (0 Bft) O-SO 107 ° 0 min 0,000 mm 1,2 UV-I 265 W/m² 5,7 °C 7,7 °C 1,6 km/h (1 Bft)
11.04.2018 08:35 7,6 °C 86 % 1004,5 hPa 0,0 mm 1,6 km/h (1 Bft) O-SO 107 ° 0 min 0,000 mm 1,2 UV-I 267 W/m² 5,4 °C 7,6 °C 4,8 km/h (1 Bft)
11.04.2018 08:36 7,7 °C 87 % 1004,5 hPa 0,0 mm 1,5 km/h (1 Bft) O-SO 107 ° 0 min 0,000 mm 1,2 UV-I 269 W/m² 5,7 °C 7,7 °C 3,2 km/h (1 Bft)
11.04.2018 08:37 7,8 °C 86 % 1004,5 hPa 0,0 mm 0,5 km/h (0 Bft) SW 224 ° 0 min 0,000 mm 1,2 UV-I 272 W/m² 5,6 °C 7,8 °C 3,2 km/h (1 Bft)
11.04.2018 08:38 7,9 °C 86 % 1004,5 hPa 0,0 mm 0,7 km/h (0 Bft) N-NO 32 ° 0 min 0,000 mm 1,2 UV-I 278 W/m² 5,7 °C 7,9 °C 3,2 km/h (1 Bft)
11.04.2018 08:39 8,1 °C 86 % 1004,5 hPa 0,0 mm 3,0 km/h (1 Bft) NO 54 ° 0 min 0,000 mm 1,3 UV-I 279 W/m² 5,9 °C 8,1 °C 6,4 km/h (2 Bft)
11.04.2018 08:40 8,2 °C 85 % 1004,5 hPa 0,0 mm 4,3 km/h (1 Bft) SO 132 ° 0 min 0,000 mm 1,3 UV-I 281 W/m² 5,8 °C 8,2 °C 9,7 km/h (2 Bft)
11.04.2018 08:41 8,2 °C 84 % 1004,5 hPa 0,0 mm 1,0 km/h (0 Bft) O 84 ° 0 min 0,000 mm 1,3 UV-I 285 W/m² 5,7 °C 8,2 °C 3,2 km/h (1 Bft)
11.04.2018 08:42 8,3 °C 84 % 1004,5 hPa 0,0 mm 0,1 km/h (0 Bft) O 84 ° 0 min 0,000 mm 1,3 UV-I 288 W/m² 5,8 °C 8,3 °C 1,6 km/h (1 Bft)
11.04.2018 08:43 8,4 °C 85 % 1004,4 hPa 0,0 mm 0,7 km/h (0 Bft) O 84 ° 1 min 0,000 mm 1,3 UV-I 290 W/m² 6,0 °C 8,4 °C 1,6 km/h (1 Bft)
11.04.2018 08:44 8,4 °C 84 % 1004,4 hPa 0,0 mm 2,5 km/h (1 Bft) O-SO 119 ° 1 min 0,000 mm 1,3 UV-I 295 W/m² 5,9 °C 8,4 °C 3,2 km/h (1 Bft)
11.04.2018 08:45 8,3 °C 84 % 1004,4 hPa 0,0 mm 0,5 km/h (0 Bft) O-SO 119 ° 1 min 0,000 mm 1,3 UV-I 299 W/m² 5,8 °C 8,3 °C 3,2 km/h (1 Bft)
11.04.2018 08:46 8,4 °C 84 % 1004,4 hPa 0,0 mm 0,5 km/h (0 Bft) O-SO 119 ° 1 min 0,000 mm 1,4 UV-I 302 W/m² 5,9 °C 8,4 °C 3,2 km/h (1 Bft)
11.04.2018 08:47 8,4 °C 83 % 1004,3 hPa 0,0 mm 0,0 km/h (0 Bft) O-SO 119 ° 1 min 0,000 mm 1,4 UV-I 304 W/m² 5,7 °C 8,4 °C 0,0 km/h (0 Bft)
11.04.2018 08:48 8,4 °C 84 % 1004,4 hPa 0,0 mm 0,1 km/h (0 Bft) O-SO 119 ° 1 min 0,000 mm 1,4 UV-I 306 W/m² 5,9 °C 8,4 °C 1,6 km/h (1 Bft)
11.04.2018 08:49 8,6 °C 84 % 1004,4 hPa 0,0 mm 1,6 km/h (1 Bft) O-SO 119 ° 1 min 0,000 mm 1,4 UV-I 309 W/m² 6,1 °C 8,6 °C 4,8 km/h (1 Bft)
11.04.2018 08:50 8,6 °C 82 % 1004,4 hPa 0,0 mm 3,3 km/h (1 Bft) S-SO 148 ° 1 min 0,000 mm 1,4 UV-I 315 W/m² 5,7 °C 8,6 °C 6,4 km/h (2 Bft)
11.04.2018 08:51 8,7 °C 82 % 1004,3 hPa 0,0 mm 3,2 km/h (1 Bft) S-SO 153 ° 1 min 0,000 mm 1,5 UV-I 316 W/m² 5,8 °C 8,7 °C 6,4 km/h (2 Bft)
11.04.2018 08:52 8,8 °C 82 % 1004,4 hPa 0,0 mm 1,1 km/h (1 Bft) O-NO 61 ° 1 min 0,000 mm 1,5 UV-I 320 W/m² 5,9 °C 8,8 °C 3,2 km/h (1 Bft)
11.04.2018 08:53 8,9 °C 82 % 1004,4 hPa 0,0 mm 2,5 km/h (1 Bft) O 88 ° 1 min 0,000 mm 1,5 UV-I 322 W/m² 6,0 °C 8,9 °C 4,8 km/h (1 Bft)
11.04.2018 08:54 8,9 °C 81 % 1004,3 hPa 0,0 mm 4,0 km/h (1 Bft) O-NO 57 ° 1 min 0,000 mm 1,5 UV-I 325 W/m² 5,8 °C 8,9 °C 6,4 km/h (2 Bft)
11.04.2018 08:55 9,0 °C 81 % 1004,3 hPa 0,0 mm 4,0 km/h (1 Bft) O-NO 68 ° 1 min 0,000 mm 1,5 UV-I 330 W/m² 5,9 °C 9,0 °C 8,0 km/h (2 Bft)
11.04.2018 08:56 9,1 °C 80 % 1004,3 hPa 0,0 mm 5,4 km/h (1 Bft) O 81 ° 1 min 0,000 mm 1,5 UV-I 334 W/m² 5,8 °C 8,6 °C 8,0 km/h (2 Bft)
11.04.2018 08:57 9,1 °C 80 % 1004,3 hPa 0,0 mm 2,5 km/h (1 Bft) O-NO 60 ° 1 min 0,000 mm 1,6 UV-I 338 W/m² 5,8 °C 9,1 °C 4,8 km/h (1 Bft)
11.04.2018 08:58 9,2 °C 80 % 1004,3 hPa 0,0 mm 3,6 km/h (1 Bft) O-NO 68 ° 1 min 0,000 mm 1,6 UV-I 341 W/m² 5,9 °C 9,2 °C 4,8 km/h (1 Bft)
11.04.2018 08:59 9,3 °C 81 % 1004,3 hPa 0,0 mm 5,2 km/h (1 Bft) O-NO 61 ° 1 min 0,000 mm 1,6 UV-I 341 W/m² 6,2 °C 8,9 °C 8,0 km/h (2 Bft)
11.04.2018 09:00 9,3 °C 79 % 1004,3 hPa 0,0 mm 5,5 km/h (1 Bft) O-NO 67 ° 1 min 0,000 mm 1,6 UV-I 346 W/m² 5,8 °C 8,8 °C 8,0 km/h (2 Bft)
11.04.2018 09:01 9,3 °C 79 % 1004,3 hPa 0,0 mm 0,7 km/h (0 Bft) O-NO 67 ° 1 min 0,102 mm 1,7 UV-I 348 W/m² 5,8 °C 9,3 °C 3,2 km/h (1 Bft)
11.04.2018 09:02 9,3 °C 79 % 1004,3 hPa 0,0 mm 2,3 km/h (1 Bft) O-NO 59 ° 1 min 0,000 mm 1,7 UV-I 352 W/m² 5,8 °C 9,3 °C 6,4 km/h (2 Bft)
11.04.2018 09:03 9,4 °C 77 % 1004,3 hPa 0,0 mm 4,3 km/h (1 Bft) O-NO 60 ° 1 min 0,000 mm 1,7 UV-I 355 W/m² 5,6 °C 9,4 °C 8,0 km/h (2 Bft)
11.04.2018 09:04 9,4 °C 77 % 1004,3 hPa 0,0 mm 5,9 km/h (2 Bft) O-NO 74 ° 1 min 0,000 mm 1,7 UV-I 357 W/m² 5,6 °C 8,8 °C 8,0 km/h (2 Bft)
11.04.2018 09:05 9,6 °C 75 % 1004,3 hPa 0,0 mm 6,2 km/h (2 Bft) O-NO 74 ° 1 min 0,000 mm 1,7 UV-I 360 W/m² 5,4 °C 9,0 °C 9,7 km/h (2 Bft)
11.04.2018 09:06 9,6 °C 76 % 1004,3 hPa 0,0 mm 5,4 km/h (1 Bft) O-NO 76 ° 1 min 0,000 mm 1,7 UV-I 364 W/m² 5,6 °C 9,2 °C 8,0 km/h (2 Bft)
11.04.2018 09:07 9,6 °C 76 % 1004,3 hPa 0,0 mm 5,0 km/h (1 Bft) NO 53 ° 1 min 0,000 mm 1,8 UV-I 366 W/m² 5,6 °C 9,3 °C 8,0 km/h (2 Bft)
11.04.2018 09:08 9,6 °C 75 % 1004,3 hPa 0,0 mm 5,5 km/h (1 Bft) O-NO 67 ° 1 min 0,000 mm 1,8 UV-I 369 W/m² 5,4 °C 9,2 °C 8,0 km/h (2 Bft)
11.04.2018 09:09 9,5 °C 78 % 1004,3 hPa 0,0 mm 3,0 km/h (1 Bft) NO 52 ° 1 min 0,000 mm 1,8 UV-I 373 W/m² 5,9 °C 9,5 °C 6,4 km/h (2 Bft)
11.04.2018 09:10 9,7 °C 75 % 1004,3 hPa 0,0 mm 3,3 km/h (1 Bft) NO 49 ° 1 min 0,000 mm 1,8 UV-I 374 W/m² 5,5 °C 9,7 °C 4,8 km/h (1 Bft)
11.04.2018 09:11 9,8 °C 76 % 1004,3 hPa 0,0 mm 2,3 km/h (1 Bft) O-NO 74 ° 1 min 0,000 mm 1,8 UV-I 376 W/m² 5,8 °C 9,8 °C 8,0 km/h (2 Bft)
11.04.2018 09:12 9,8 °C 74 % 1004,3 hPa 0,0 mm 6,4 km/h (2 Bft) O-NO 71 ° 1 min 0,000 mm 1,9 UV-I 378 W/m² 5,4 °C 9,1 °C 9,7 km/h (2 Bft)
11.04.2018 09:13 9,8 °C 73 % 1004,3 hPa 0,0 mm 5,9 km/h (2 Bft) NO 40 ° 1 min 0,000 mm 1,9 UV-I 385 W/m² 5,2 °C 9,3 °C 9,7 km/h (2 Bft)
11.04.2018 09:14 9,8 °C 73 % 1004,3 hPa 0,0 mm 7,1 km/h (2 Bft) NO 42 ° 1 min 0,000 mm 1,9 UV-I 388 W/m² 5,2 °C 9,0 °C 11,3 km/h (2 Bft)
11.04.2018 09:15 9,8 °C 73 % 1004,3 hPa 0,0 mm 6,3 km/h (2 Bft) O 88 ° 1 min 0,000 mm 1,9 UV-I 392 W/m² 5,2 °C 9,2 °C 11,3 km/h (2 Bft)
11.04.2018 09:16 9,8 °C 72 % 1004,3 hPa 0,0 mm 6,1 km/h (2 Bft) O 90 ° 1 min 0,000 mm 1,9 UV-I 394 W/m² 5,0 °C 9,2 °C 9,7 km/h (2 Bft)
11.04.2018 09:17 9,8 °C 73 % 1004,3 hPa 0,0 mm 5,0 km/h (1 Bft) O-NO 72 ° 1 min 0,000 mm 2,0 UV-I 397 W/m² 5,2 °C 9,5 °C 8,0 km/h (2 Bft)
11.04.2018 09:18 9,8 °C 71 % 1004,2 hPa 0,0 mm 4,3 km/h (1 Bft) NO 53 ° 1 min 0,000 mm 2,0 UV-I 401 W/m² 4,8 °C 9,8 °C 6,4 km/h (2 Bft)
11.04.2018 09:19 9,8 °C 71 % 1004,2 hPa 0,0 mm 3,1 km/h (1 Bft) NO 38 ° 1 min 0,000 mm 2,0 UV-I 404 W/m² 4,8 °C 9,8 °C 6,4 km/h (2 Bft)
11.04.2018 09:20 9,9 °C 71 % 1004,2 hPa 0,0 mm 4,3 km/h (1 Bft) NO 52 ° 1 min 0,000 mm 2,0 UV-I 408 W/m² 4,9 °C 9,9 °C 8,0 km/h (2 Bft)
11.04.2018 09:21 10,1 °C 73 % 1004,2 hPa 0,0 mm 6,1 km/h (2 Bft) O-NO 71 ° 1 min 0,000 mm 2,0 UV-I 410 W/m² 5,5 °C 10,1 °C 8,0 km/h (2 Bft)
11.04.2018 09:22 10,2 °C 71 % 1004,1 hPa 0,0 mm 6,2 km/h (2 Bft) O-NO 59 ° 1 min 0,000 mm 2,1 UV-I 413 W/m² 5,2 °C 10,2 °C 8,0 km/h (2 Bft)
11.04.2018 09:23 10,2 °C 71 % 1004,2 hPa 0,0 mm 2,6 km/h (1 Bft) O-NO 64 ° 1 min 0,000 mm 2,1 UV-I 415 W/m² 5,2 °C 10,2 °C 9,7 km/h (2 Bft)
11.04.2018 09:24 10,2 °C 71 % 1004,2 hPa 0,0 mm 2,4 km/h (1 Bft) O 79 ° 1 min 0,000 mm 2,1 UV-I 417 W/m² 5,2 °C 10,2 °C 6,4 km/h (2 Bft)
11.04.2018 09:25 10,2 °C 71 % 1004,2 hPa 0,0 mm 6,9 km/h (2 Bft) O 87 ° 1 min 0,000 mm 2,1 UV-I 422 W/m² 5,2 °C 10,2 °C 9,7 km/h (2 Bft)
11.04.2018 09:26 10,2 °C 69 % 1004,2 hPa 0,0 mm 7,0 km/h (2 Bft) O 87 ° 1 min 0,000 mm 2,1 UV-I 425 W/m² 4,8 °C 10,2 °C 11,3 km/h (2 Bft)
11.04.2018 09:27 10,2 °C 69 % 1004,2 hPa 0,0 mm 4,2 km/h (1 Bft) O 88 ° 1 min 0,000 mm 2,2 UV-I 429 W/m² 4,8 °C 10,2 °C 6,4 km/h (2 Bft)
11.04.2018 09:28 10,3 °C 70 % 1004,2 hPa 0,0 mm 4,0 km/h (1 Bft) N-NO 31 ° 1 min 0,000 mm 2,2 UV-I 431 W/m² 5,1 °C 10,3 °C 6,4 km/h (2 Bft)
11.04.2018 09:29 10,3 °C 69 % 1004,2 hPa 0,0 mm 4,6 km/h (1 Bft) O-NO 65 ° 1 min 0,000 mm 2,2 UV-I 434 W/m² 4,9 °C 10,3 °C 6,4 km/h (2 Bft)
11.04.2018 09:30 10,4 °C 69 % 1004,2 hPa 0,0 mm 5,3 km/h (1 Bft) O-NO 71 ° 1 min 0,000 mm 2,2 UV-I 436 W/m² 5,0 °C 10,4 °C 8,0 km/h (2 Bft)
11.04.2018 09:31 10,4 °C 69 % 1004,2 hPa 0,0 mm 6,9 km/h (2 Bft) O-NO 75 ° 1 min 0,000 mm 2,2 UV-I 441 W/m² 5,0 °C 10,4 °C 8,0 km/h (2 Bft)
11.04.2018 09:32 10,4 °C 68 % 1004,2 hPa 0,0 mm 5,1 km/h (1 Bft) O-NO 63 ° 1 min 0,000 mm 2,2 UV-I 445 W/m² 4,8 °C 10,4 °C 6,4 km/h (2 Bft)
11.04.2018 09:33 10,4 °C 69 % 1004,1 hPa 0,0 mm 5,5 km/h (1 Bft) NO 50 ° 1 min 0,000 mm 2,2 UV-I 445 W/m² 5,0 °C 10,4 °C 8,0 km/h (2 Bft)
11.04.2018 09:34 10,4 °C 73 % 1004,2 hPa 0,0 mm 5,3 km/h (1 Bft) O 84 ° 1 min 0,000 mm 2,3 UV-I 448 W/m² 5,8 °C 10,4 °C 6,4 km/h (2 Bft)
11.04.2018 09:35 10,5 °C 68 % 1004,2 hPa 0,0 mm 3,2 km/h (1 Bft) O-NO 63 ° 1 min 0,000 mm 2,3 UV-I 450 W/m² 4,8 °C 10,5 °C 6,4 km/h (2 Bft)
11.04.2018 09:36 10,6 °C 67 % 1004,2 hPa 0,0 mm 4,2 km/h (1 Bft) O-NO 69 ° 1 min 0,000 mm 2,3 UV-I 454 W/m² 4,7 °C 10,6 °C 4,8 km/h (1 Bft)
11.04.2018 09:37 10,6 °C 69 % 1004,2 hPa 0,0 mm 5,5 km/h (1 Bft) O-NO 60 ° 1 min 0,000 mm 2,3 UV-I 457 W/m² 5,2 °C 10,6 °C 8,0 km/h (2 Bft)
11.04.2018 09:38 10,7 °C 72 % 1004,2 hPa 0,0 mm 4,3 km/h (1 Bft) O-NO 66 ° 1 min 0,000 mm 2,4 UV-I 461 W/m² 5,9 °C 10,7 °C 8,0 km/h (2 Bft)
11.04.2018 09:39 10,8 °C 73 % 1004,2 hPa 0,0 mm 5,3 km/h (1 Bft) NO 45 ° 1 min 0,000 mm 2,4 UV-I 461 W/m² 6,2 °C 10,8 °C 8,0 km/h (2 Bft)
11.04.2018 09:40 10,8 °C 69 % 1004,2 hPa 0,0 mm 6,2 km/h (2 Bft) NO 54 ° 1 min 0,000 mm 2,4 UV-I 464 W/m² 5,3 °C 10,8 °C 11,3 km/h (2 Bft)
11.04.2018 09:41 10,8 °C 68 % 1004,2 hPa 0,0 mm 7,1 km/h (2 Bft) NO 44 ° 1 min 0,000 mm 2,4 UV-I 468 W/m² 5,1 °C 10,8 °C 9,7 km/h (2 Bft)
11.04.2018 09:42 10,8 °C 68 % 1004,2 hPa 0,0 mm 3,9 km/h (1 Bft) NO 47 ° 1 min 0,000 mm 2,4 UV-I 471 W/m² 5,1 °C 10,8 °C 6,4 km/h (2 Bft)
11.04.2018 09:43 10,8 °C 70 % 1004,2 hPa 0,0 mm 4,7 km/h (1 Bft) NO 36 ° 1 min 0,000 mm 2,5 UV-I 475 W/m² 5,6 °C 10,8 °C 9,7 km/h (2 Bft)
11.04.2018 09:44 10,9 °C 69 % 1004,1 hPa 0,0 mm 6,4 km/h (2 Bft) NO 40 ° 1 min 0,000 mm 2,5 UV-I 478 W/m² 5,4 °C 10,9 °C 12,9 km/h (3 Bft)
11.04.2018 09:45 10,9 °C 67 % 1004,2 hPa 0,0 mm 5,8 km/h (2 Bft) O 80 ° 1 min 0,000 mm 2,5 UV-I 482 W/m² 5,0 °C 10,9 °C 8,0 km/h (2 Bft)
11.04.2018 09:46 10,9 °C 67 % 1004,2 hPa 0,0 mm 4,0 km/h (1 Bft) O-NO 59 ° 1 min 0,000 mm 2,5 UV-I 482 W/m² 5,0 °C 10,9 °C 8,0 km/h (2 Bft)
11.04.2018 09:47 11,0 °C 67 % 1004,1 hPa 0,0 mm 5,2 km/h (1 Bft) O-NO 65 ° 1 min 0,000 mm 2,5 UV-I 485 W/m² 5,1 °C 11,0 °C 9,7 km/h (2 Bft)
11.04.2018 09:48 11,0 °C 66 % 1004,1 hPa 0,0 mm 8,2 km/h (2 Bft) NO 42 ° 1 min 0,000 mm 2,5 UV-I 490 W/m² 4,9 °C 11,0 °C 11,3 km/h (2 Bft)
11.04.2018 09:49 10,9 °C 67 % 1004,1 hPa 0,0 mm 5,2 km/h (1 Bft) O 84 ° 1 min 0,000 mm 2,6 UV-I 494 W/m² 5,0 °C 10,9 °C 8,0 km/h (2 Bft)
11.04.2018 09:50 10,9 °C 67 % 1004,1 hPa 0,0 mm 6,0 km/h (2 Bft) O 81 ° 1 min 0,000 mm 2,6 UV-I 496 W/m² 5,0 °C 10,9 °C 8,0 km/h (2 Bft)
11.04.2018 09:51 10,9 °C 65 % 1004,1 hPa 0,0 mm 8,4 km/h (2 Bft) NO 42 ° 1 min 0,000 mm 2,6 UV-I 499 W/m² 4,6 °C 10,9 °C 11,3 km/h (2 Bft)
11.04.2018 09:52 10,9 °C 65 % 1004,1 hPa 0,0 mm 5,1 km/h (1 Bft) O-NO 69 ° 1 min 0,000 mm 2,6 UV-I 501 W/m² 4,6 °C 10,9 °C 8,0 km/h (2 Bft)
11.04.2018 09:53 11,1 °C 66 % 1004,1 hPa 0,0 mm 4,7 km/h (1 Bft) NO 46 ° 1 min 0,000 mm 2,6 UV-I 492 W/m² 5,0 °C 11,1 °C 6,4 km/h (2 Bft)
11.04.2018 09:54 11,1 °C 66 % 1004,1 hPa 0,0 mm 5,6 km/h (1 Bft) NO 37 ° 1 min 0,000 mm 2,6 UV-I 499 W/m² 5,0 °C 11,1 °C 11,3 km/h (2 Bft)
11.04.2018 09:55 11,1 °C 66 % 1004,1 hPa 0,0 mm 8,1 km/h (2 Bft) O 81 ° 1 min 0,000 mm 2,7 UV-I 513 W/m² 5,0 °C 11,1 °C 12,9 km/h (3 Bft)
11.04.2018 09:56 11,0 °C 66 % 1004,1 hPa 0,0 mm 6,7 km/h (2 Bft) NO 56 ° 1 min 0,000 mm 2,7 UV-I 515 W/m² 4,9 °C 11,0 °C 11,3 km/h (2 Bft)
11.04.2018 09:57 10,9 °C 65 % 1004,0 hPa 0,0 mm 4,5 km/h (1 Bft) NO 40 ° 1 min 0,000 mm 2,7 UV-I 508 W/m² 4,6 °C 10,9 °C 8,0 km/h (2 Bft)
11.04.2018 09:58 10,9 °C 67 % 1004,1 hPa 0,0 mm 4,6 km/h (1 Bft) O 97 ° 1 min 0,000 mm 2,7 UV-I 510 W/m² 5,0 °C 10,9 °C 6,4 km/h (2 Bft)
11.04.2018 09:59 11,0 °C 69 % 1004,1 hPa 0,0 mm 4,8 km/h (1 Bft) NO 34 ° 1 min 0,000 mm 2,8 UV-I 515 W/m² 5,5 °C 11,0 °C 9,7 km/h (2 Bft)
11.04.2018 10:00 11,1 °C 66 % 1004,1 hPa 0,0 mm 5,7 km/h (1 Bft) NO 51 ° 1 min 0,229 mm 2,8 UV-I 522 W/m² 5,0 °C 11,1 °C 8,0 km/h (2 Bft)
11.04.2018 10:01 11,1 °C 67 % 1004,0 hPa 0,0 mm 6,7 km/h (2 Bft) N-NO 32 ° 1 min 0,000 mm 2,8 UV-I 520 W/m² 5,2 °C 11,1 °C 12,9 km/h (3 Bft)
11.04.2018 10:02 11,1 °C 66 % 1004,1 hPa 0,0 mm 6,2 km/h (2 Bft) O 93 ° 1 min 0,000 mm 2,8 UV-I 524 W/m² 5,0 °C 11,1 °C 8,0 km/h (2 Bft)
11.04.2018 10:03 11,1 °C 64 % 1004,1 hPa 0,0 mm 5,1 km/h (1 Bft) N-NO 30 ° 1 min 0,000 mm 2,8 UV-I 524 W/m² 4,6 °C 11,1 °C 8,0 km/h (2 Bft)
11.04.2018 10:04 11,2 °C 66 % 1004,0 hPa 0,0 mm 8,8 km/h (2 Bft) NO 53 ° 1 min 0,000 mm 2,8 UV-I 524 W/m² 5,1 °C 11,2 °C 16,1 km/h (3 Bft)
11.04.2018 10:05 11,2 °C 65 % 1004,1 hPa 0,0 mm 11,2 km/h (2 Bft) NO 41 ° 1 min 0,000 mm 2,8 UV-I 526 W/m² 4,9 °C 11,2 °C 16,1 km/h (3 Bft)
11.04.2018 10:06 11,1 °C 65 % 1004,0 hPa 0,0 mm 9,5 km/h (2 Bft) O-NO 58 ° 1 min 0,000 mm 2,9 UV-I 534 W/m² 4,8 °C 11,1 °C 14,5 km/h (3 Bft)
11.04.2018 10:07 11,1 °C 65 % 1004,0 hPa 0,0 mm 3,2 km/h (1 Bft) NO 46 ° 1 min 0,000 mm 2,9 UV-I 536 W/m² 4,8 °C 11,1 °C 4,8 km/h (1 Bft)
11.04.2018 10:08 11,1 °C 67 % 1004,0 hPa 0,0 mm 7,0 km/h (2 Bft) N-NO 19 ° 1 min 0,000 mm 2,9 UV-I 540 W/m² 5,2 °C 11,1 °C 11,3 km/h (2 Bft)
11.04.2018 10:09 11,3 °C 66 % 1004,0 hPa 0,0 mm 5,5 km/h (1 Bft) O-NO 61 ° 1 min 0,000 mm 2,9 UV-I 543 W/m² 5,2 °C 11,3 °C 8,0 km/h (2 Bft)
11.04.2018 10:10 11,3 °C 65 % 1004,0 hPa 0,0 mm 4,8 km/h (1 Bft) O 101 ° 1 min 0,000 mm 3,0 UV-I 545 W/m² 5,0 °C 11,3 °C 8,0 km/h (2 Bft)
11.04.2018 10:11 11,4 °C 66 % 1004,0 hPa 0,0 mm 1,6 km/h (1 Bft) O 101 ° 1 min 0,000 mm 3,0 UV-I 547 W/m² 5,3 °C 11,4 °C 4,8 km/h (1 Bft)
11.04.2018 10:12 11,6 °C 68 % 1004,0 hPa 0,0 mm 5,5 km/h (1 Bft) O 80 ° 1 min 0,000 mm 3,0 UV-I 552 W/m² 5,9 °C 11,6 °C 9,7 km/h (2 Bft)
11.04.2018 10:13 11,6 °C 66 % 1004,0 hPa 0,0 mm 5,0 km/h (1 Bft) N-NO 30 ° 1 min 0,000 mm 3,0 UV-I 554 W/m² 5,5 °C 11,6 °C 8,0 km/h (2 Bft)
11.04.2018 10:14 11,7 °C 65 % 1004,0 hPa 0,0 mm 3,9 km/h (1 Bft) O-NO 71 ° 1 min 0,000 mm 3,1 UV-I 557 W/m² 5,3 °C 11,7 °C 8,0 km/h (2 Bft)
11.04.2018 10:15 11,8 °C 64 % 1004,0 hPa 0,0 mm 7,6 km/h (2 Bft) N 5 ° 1 min 0,000 mm 3,1 UV-I 559 W/m² 5,2 °C 11,8 °C 12,9 km/h (3 Bft)
11.04.2018 10:16 11,8 °C 63 % 1004,1 hPa 0,0 mm 6,0 km/h (2 Bft) O-NO 67 ° 1 min 0,000 mm 3,1 UV-I 563 W/m² 5,0 °C 11,8 °C 11,3 km/h (2 Bft)
11.04.2018 10:17 11,7 °C 62 % 1004,0 hPa 0,0 mm 5,9 km/h (2 Bft) O 80 ° 1 min 0,000 mm 3,1 UV-I 568 W/m² 4,7 °C 11,7 °C 11,3 km/h (2 Bft)
11.04.2018 10:18 11,8 °C 65 % 1004,0 hPa 0,0 mm 4,0 km/h (1 Bft) O-NO 76 ° 1 min 0,000 mm 3,1 UV-I 571 W/m² 5,4 °C 11,8 °C 6,4 km/h (2 Bft)
11.04.2018 10:19 11,8 °C 63 % 1004,0 hPa 0,0 mm 2,3 km/h (1 Bft) N-NO 23 ° 1 min 0,000 mm 3,1 UV-I 568 W/m² 5,0 °C 11,8 °C 4,8 km/h (1 Bft)
11.04.2018 10:20 11,9 °C 64 % 1004,0 hPa 0,0 mm 6,8 km/h (2 Bft) O 90 ° 1 min 0,000 mm 3,2 UV-I 573 W/m² 5,3 °C 11,9 °C 11,3 km/h (2 Bft)
11.04.2018 10:21 11,8 °C 61 % 1004,0 hPa 0,0 mm 6,7 km/h (2 Bft) NO 50 ° 1 min 0,000 mm 3,2 UV-I 578 W/m² 4,5 °C 11,8 °C 12,9 km/h (3 Bft)
11.04.2018 10:22 11,6 °C 62 % 1004,1 hPa 0,0 mm 4,4 km/h (1 Bft) O 82 ° 1 min 0,000 mm 3,2 UV-I 582 W/m² 4,6 °C 11,6 °C 6,4 km/h (2 Bft)
11.04.2018 10:23 11,6 °C 63 % 1004,0 hPa 0,0 mm 4,8 km/h (1 Bft) O-NO 57 ° 1 min 0,000 mm 3,2 UV-I 585 W/m² 4,8 °C 11,6 °C 6,4 km/h (2 Bft)
11.04.2018 10:24 11,6 °C 62 % 1004,0 hPa 0,0 mm 5,7 km/h (1 Bft) O-NO 73 ° 1 min 0,000 mm 3,2 UV-I 591 W/m² 4,6 °C 11,6 °C 8,0 km/h (2 Bft)
11.04.2018 10:25 11,6 °C 61 % 1004,0 hPa 0,0 mm 7,3 km/h (2 Bft) O 81 ° 1 min 0,000 mm 3,3 UV-I 585 W/m² 4,3 °C 11,6 °C 12,9 km/h (3 Bft)
11.04.2018 10:26 11,5 °C 62 % 1004,0 hPa 0,0 mm 5,8 km/h (2 Bft) NO 48 ° 1 min 0,000 mm 3,3 UV-I 599 W/m² 4,5 °C 11,5 °C 8,0 km/h (2 Bft)
11.04.2018 10:27 11,5 °C 61 % 1004,0 hPa 0,0 mm 4,8 km/h (1 Bft) O-SO 108 ° 1 min 0,000 mm 3,1 UV-I 520 W/m² 4,2 °C 11,5 °C 6,4 km/h (2 Bft)
11.04.2018 10:28 11,6 °C 64 % 1004,0 hPa 0,0 mm 3,9 km/h (1 Bft) NO 40 ° 1 min 0,000 mm 3,3 UV-I 508 W/m² 5,0 °C 11,6 °C 8,0 km/h (2 Bft)
11.04.2018 10:29 11,7 °C 62 % 1003,9 hPa 0,0 mm 4,8 km/h (1 Bft) N-NO 28 ° 1 min 0,000 mm 3,3 UV-I 550 W/m² 4,7 °C 11,7 °C 6,4 km/h (2 Bft)
11.04.2018 10:30 11,7 °C 61 % 1003,9 hPa 0,0 mm 5,6 km/h (1 Bft) O-NO 71 ° 1 min 0,000 mm 3,1 UV-I 517 W/m² 4,4 °C 11,7 °C 11,3 km/h (2 Bft)
11.04.2018 10:31 11,8 °C 63 % 1003,9 hPa 0,0 mm 9,2 km/h (2 Bft) NO 46 ° 1 min 0,000 mm 3,4 UV-I 615 W/m² 5,0 °C 11,8 °C 16,1 km/h (3 Bft)
11.04.2018 10:32 11,9 °C 64 % 1004,0 hPa 0,0 mm 4,5 km/h (1 Bft) NO 40 ° 1 min 0,000 mm 3,3 UV-I 561 W/m² 5,3 °C 11,9 °C 6,4 km/h (2 Bft)
11.04.2018 10:33 11,8 °C 61 % 1003,9 hPa 0,0 mm 5,3 km/h (1 Bft) O-NO 61 ° 1 min 0,000 mm 3,4 UV-I 617 W/m² 4,5 °C 11,8 °C 8,0 km/h (2 Bft)
11.04.2018 10:34 11,8 °C 62 % 1003,9 hPa 0,0 mm 7,3 km/h (2 Bft) NO 54 ° 1 min 0,000 mm 3,5 UV-I 621 W/m² 4,8 °C 11,8 °C 11,3 km/h (2 Bft)
11.04.2018 10:35 11,8 °C 62 % 1003,9 hPa 0,0 mm 4,3 km/h (1 Bft) NO 55 ° 1 min 0,000 mm 3,5 UV-I 619 W/m² 4,8 °C 11,8 °C 11,3 km/h (2 Bft)
11.04.2018 10:36 11,8 °C 61 % 1004,0 hPa 0,0 mm 5,4 km/h (1 Bft) NO 44 ° 1 min 0,000 mm 3,5 UV-I 619 W/m² 4,5 °C 11,8 °C 9,7 km/h (2 Bft)
11.04.2018 10:37 11,9 °C 60 % 1003,9 hPa 0,0 mm 7,7 km/h (2 Bft) NO 56 ° 1 min 0,000 mm 3,5 UV-I 621 W/m² 4,4 °C 11,9 °C 11,3 km/h (2 Bft)
11.04.2018 10:38 11,9 °C 61 % 1003,9 hPa 0,0 mm 6,6 km/h (2 Bft) NO 53 ° 1 min 0,000 mm 3,5 UV-I 624 W/m² 4,6 °C 11,9 °C 9,7 km/h (2 Bft)
11.04.2018 10:39 11,9 °C 60 % 1003,9 hPa 0,0 mm 5,2 km/h (1 Bft) N-NO 30 ° 1 min 0,000 mm 3,5 UV-I 624 W/m² 4,4 °C 11,9 °C 8,0 km/h (2 Bft)
11.04.2018 10:40 12,0 °C 58 % 1003,9 hPa 0,0 mm 6,7 km/h (2 Bft) O-NO 61 ° 1 min 0,000 mm 3,5 UV-I 626 W/m² 4,0 °C 12,0 °C 12,9 km/h (3 Bft)
11.04.2018 10:41 11,9 °C 58 % 1003,9 hPa 0,0 mm 6,6 km/h (2 Bft) O 79 ° 1 min 0,000 mm 3,6 UV-I 629 W/m² 3,9 °C 11,9 °C 11,3 km/h (2 Bft)
11.04.2018 10:42 11,9 °C 60 % 1003,9 hPa 0,0 mm 9,9 km/h (2 Bft) O 90 ° 1 min 0,000 mm 3,6 UV-I 631 W/m² 4,4 °C 11,9 °C 14,5 km/h (3 Bft)
11.04.2018 10:43 11,8 °C 60 % 1003,9 hPa 0,0 mm 7,5 km/h (2 Bft) O 87 ° 1 min 0,000 mm 3,5 UV-I 629 W/m² 4,3 °C 11,8 °C 11,3 km/h (2 Bft)
11.04.2018 10:44 11,9 °C 59 % 1003,9 hPa 0,0 mm 2,8 km/h (1 Bft) O 87 ° 1 min 0,000 mm 3,6 UV-I 633 W/m² 4,1 °C 11,9 °C 4,8 km/h (1 Bft)
11.04.2018 10:45 11,9 °C 61 % 1003,9 hPa 0,0 mm 4,8 km/h (1 Bft) N-NO 15 ° 1 min 0,000 mm 3,6 UV-I 624 W/m² 4,6 °C 11,9 °C 8,0 km/h (2 Bft)
11.04.2018 10:46 11,9 °C 62 % 1003,8 hPa 0,0 mm 5,6 km/h (1 Bft) O-NO 76 ° 1 min 0,000 mm 3,6 UV-I 622 W/m² 4,9 °C 11,9 °C 8,0 km/h (2 Bft)
11.04.2018 10:47 12,1 °C 59 % 1003,8 hPa 0,0 mm 4,6 km/h (1 Bft) NO 40 ° 1 min 0,000 mm 3,6 UV-I 640 W/m² 4,3 °C 12,1 °C 8,0 km/h (2 Bft)
11.04.2018 10:48 12,1 °C 61 % 1003,8 hPa 0,0 mm 2,5 km/h (1 Bft) NO 36 ° 1 min 0,000 mm 3,7 UV-I 633 W/m² 4,8 °C 12,1 °C 6,4 km/h (2 Bft)
11.04.2018 10:49 12,3 °C 61 % 1003,8 hPa 0,0 mm 5,8 km/h (2 Bft) N 360 ° 1 min 0,000 mm 3,6 UV-I 610 W/m² 5,0 °C 12,3 °C 8,0 km/h (2 Bft)
11.04.2018 10:50 12,4 °C 60 % 1003,8 hPa 0,0 mm 9,4 km/h (2 Bft) O 98 ° 1 min 0,000 mm 3,7 UV-I 638 W/m² 4,9 °C 12,4 °C 12,9 km/h (3 Bft)
11.04.2018 10:51 12,4 °C 60 % 1003,8 hPa 0,0 mm 4,2 km/h (1 Bft) NO 56 ° 1 min 0,000 mm 3,6 UV-I 624 W/m² 4,9 °C 12,4 °C 11,3 km/h (2 Bft)
11.04.2018 10:52 12,4 °C 60 % 1003,8 hPa 0,0 mm 5,6 km/h (1 Bft) N-NO 17 ° 1 min 0,000 mm 3,6 UV-I 622 W/m² 4,9 °C 12,4 °C 8,0 km/h (2 Bft)
11.04.2018 10:53 12,4 °C 60 % 1003,8 hPa 0,0 mm 6,6 km/h (2 Bft) N 9 ° 1 min 0,000 mm 3,8 UV-I 661 W/m² 4,9 °C 12,4 °C 8,0 km/h (2 Bft)
11.04.2018 10:54 12,6 °C 62 % 1003,8 hPa 0,0 mm 4,8 km/h (1 Bft) N-NO 22 ° 1 min 0,000 mm 3,8 UV-I 656 W/m² 5,5 °C 12,6 °C 6,4 km/h (2 Bft)
11.04.2018 10:55 12,6 °C 58 % 1003,8 hPa 0,0 mm 9,5 km/h (2 Bft) NO 34 ° 1 min 0,000 mm 3,8 UV-I 664 W/m² 4,6 °C 12,6 °C 16,1 km/h (3 Bft)
11.04.2018 10:56 12,6 °C 58 % 1003,8 hPa 0,0 mm 7,8 km/h (2 Bft) NO 48 ° 1 min 0,000 mm 3,9 UV-I 666 W/m² 4,6 °C 12,6 °C 14,5 km/h (3 Bft)
11.04.2018 10:57 12,6 °C 56 % 1003,8 hPa 0,0 mm 7,5 km/h (2 Bft) NO 40 ° 1 min 0,000 mm 3,9 UV-I 666 W/m² 4,1 °C 12,6 °C 9,7 km/h (2 Bft)
11.04.2018 10:58 12,4 °C 56 % 1003,8 hPa 0,0 mm 2,9 km/h (1 Bft) NO 40 ° 1 min 0,000 mm 3,9 UV-I 666 W/m² 3,9 °C 12,4 °C 4,8 km/h (1 Bft)
11.04.2018 10:59 12,5 °C 57 % 1003,8 hPa 0,0 mm 3,8 km/h (1 Bft) NO 46 ° 1 min 0,000 mm 3,9 UV-I 664 W/m² 4,2 °C 12,5 °C 6,4 km/h (2 Bft)
11.04.2018 11:00 12,7 °C 56 % 1003,8 hPa 0,0 mm 8,1 km/h (2 Bft) O-NO 61 ° 1 min 0,304 mm 3,9 UV-I 659 W/m² 4,2 °C 12,7 °C 9,7 km/h (2 Bft)
11.04.2018 11:01 12,7 °C 56 % 1003,8 hPa 0,0 mm 7,7 km/h (2 Bft) NO 38 ° 1 min 0,000 mm 3,9 UV-I 670 W/m² 4,2 °C 12,7 °C 9,7 km/h (2 Bft)
11.04.2018 11:02 12,9 °C 58 % 1003,8 hPa 0,0 mm 8,7 km/h (2 Bft) O 82 ° 1 min 0,000 mm 4,0 UV-I 671 W/m² 4,8 °C 12,9 °C 14,5 km/h (3 Bft)
11.04.2018 11:03 13,1 °C 55 % 1003,8 hPa 0,0 mm 8,5 km/h (2 Bft) NO 36 ° 1 min 0,000 mm 4,0 UV-I 671 W/m² 4,3 °C 13,1 °C 11,3 km/h (2 Bft)
11.04.2018 11:04 12,8 °C 54 % 1003,9 hPa 0,0 mm 3,7 km/h (1 Bft) NO 46 ° 1 min 0,000 mm 4,0 UV-I 675 W/m² 3,7 °C 12,8 °C 4,8 km/h (1 Bft)
11.04.2018 11:05 12,8 °C 57 % 1003,9 hPa 0,0 mm 3,0 km/h (1 Bft) N-NO 32 ° 1 min 0,000 mm 4,0 UV-I 682 W/m² 4,5 °C 12,8 °C 6,4 km/h (2 Bft)
11.04.2018 11:06 12,9 °C 59 % 1003,9 hPa 0,0 mm 5,0 km/h (1 Bft) O-NO 68 ° 1 min 0,000 mm 4,0 UV-I 684 W/m² 5,1 °C 12,9 °C 8,0 km/h (2 Bft)
11.04.2018 11:07 12,9 °C 54 % 1003,9 hPa 0,0 mm 6,2 km/h (2 Bft) NO 52 ° 1 min 0,000 mm 4,1 UV-I 686 W/m² 3,8 °C 12,9 °C 14,5 km/h (3 Bft)
11.04.2018 11:08 12,8 °C 53 % 1003,9 hPa 0,0 mm 4,8 km/h (1 Bft) NO 35 ° 1 min 0,000 mm 4,0 UV-I 675 W/m² 3,5 °C 12,8 °C 6,4 km/h (2 Bft)
11.04.2018 11:09 12,9 °C 53 % 1003,9 hPa 0,0 mm 8,5 km/h (2 Bft) NO 34 ° 1 min 0,000 mm 3,9 UV-I 633 W/m² 3,6 °C 12,9 °C 12,9 km/h (3 Bft)
11.04.2018 11:10 13,1 °C 55 % 1003,9 hPa 0,0 mm 7,2 km/h (2 Bft) O-NO 74 ° 1 min 0,000 mm 3,9 UV-I 629 W/m² 4,3 °C 13,1 °C 11,3 km/h (2 Bft)
11.04.2018 11:11 13,2 °C 54 % 1004,0 hPa 0,0 mm 7,4 km/h (2 Bft) O-NO 68 ° 1 min 0,000 mm 3,8 UV-I 592 W/m² 4,1 °C 13,2 °C 11,3 km/h (2 Bft)
11.04.2018 11:12 13,1 °C 56 % 1004,0 hPa 0,0 mm 5,2 km/h (1 Bft) NO 53 ° 1 min 0,000 mm 3,9 UV-I 638 W/m² 4,5 °C 13,1 °C 8,0 km/h (2 Bft)
11.04.2018 11:13 13,0 °C 55 % 1003,9 hPa 0,0 mm 7,2 km/h (2 Bft) NO 51 ° 1 min 0,000 mm 4,1 UV-I 671 W/m² 4,2 °C 13,0 °C 9,7 km/h (2 Bft)
11.04.2018 11:14 12,9 °C 53 % 1003,9 hPa 0,0 mm 4,1 km/h (1 Bft) O-NO 67 ° 1 min 0,000 mm 4,2 UV-I 703 W/m² 3,6 °C 12,9 °C 6,4 km/h (2 Bft)
11.04.2018 11:15 13,1 °C 55 % 1003,9 hPa 0,0 mm 6,8 km/h (2 Bft) O-NO 71 ° 1 min 0,000 mm 4,2 UV-I 705 W/m² 4,3 °C 13,1 °C 9,7 km/h (2 Bft)
11.04.2018 11:16 13,2 °C 54 % 1003,9 hPa 0,0 mm 7,0 km/h (2 Bft) O-NO 59 ° 1 min 0,000 mm 4,2 UV-I 701 W/m² 4,1 °C 13,2 °C 11,3 km/h (2 Bft)
11.04.2018 11:17 13,3 °C 55 % 1003,9 hPa 0,0 mm 7,6 km/h (2 Bft) NO 40 ° 1 min 0,000 mm 4,2 UV-I 703 W/m² 4,5 °C 13,3 °C 9,7 km/h (2 Bft)
11.04.2018 11:18 13,3 °C 53 % 1003,8 hPa 0,0 mm 5,6 km/h (1 Bft) N-NO 25 ° 1 min 0,000 mm 4,2 UV-I 691 W/m² 3,9 °C 13,3 °C 8,0 km/h (2 Bft)
11.04.2018 11:19 13,3 °C 54 % 1003,8 hPa 0,0 mm 5,5 km/h (1 Bft) O-NO 61 ° 1 min 0,000 mm 4,2 UV-I 694 W/m² 4,2 °C 13,3 °C 8,0 km/h (2 Bft)
11.04.2018 11:20 13,3 °C 54 % 1003,8 hPa 0,0 mm 5,2 km/h (1 Bft) N-NO 24 ° 1 min 0,000 mm 4,2 UV-I 705 W/m² 4,2 °C 13,3 °C 6,4 km/h (2 Bft)
11.04.2018 11:21 13,3 °C 54 % 1003,8 hPa 0,0 mm 8,9 km/h (2 Bft) O 81 ° 1 min 0,000 mm 4,2 UV-I 708 W/m² 4,2 °C 13,3 °C 16,1 km/h (3 Bft)
11.04.2018 11:22 13,3 °C 53 % 1003,8 hPa 0,0 mm 6,2 km/h (2 Bft) NO 40 ° 1 min 0,000 mm 4,3 UV-I 721 W/m² 3,9 °C 13,3 °C 14,5 km/h (3 Bft)
11.04.2018 11:23 13,4 °C 55 % 1003,7 hPa 0,0 mm 5,8 km/h (2 Bft) NO 50 ° 1 min 0,000 mm 4,3 UV-I 722 W/m² 4,5 °C 13,4 °C 12,9 km/h (3 Bft)
11.04.2018 11:24 13,6 °C 53 % 1003,8 hPa 0,0 mm 8,6 km/h (2 Bft) O-NO 65 ° 1 min 0,000 mm 4,3 UV-I 722 W/m² 4,2 °C 13,6 °C 12,9 km/h (3 Bft)
11.04.2018 11:25 13,5 °C 52 % 1003,7 hPa 0,0 mm 5,6 km/h (1 Bft) NO 42 ° 1 min 0,000 mm 4,3 UV-I 719 W/m² 3,8 °C 13,5 °C 9,7 km/h (2 Bft)
11.04.2018 11:26 13,5 °C 53 % 1003,7 hPa 0,0 mm 7,6 km/h (2 Bft) O 82 ° 1 min 0,000 mm 4,3 UV-I 717 W/m² 4,1 °C 13,5 °C 9,7 km/h (2 Bft)
11.04.2018 11:27 13,5 °C 52 % 1003,7 hPa 0,0 mm 5,6 km/h (1 Bft) O 90 ° 1 min 0,000 mm 4,3 UV-I 717 W/m² 3,8 °C 13,5 °C 8,0 km/h (2 Bft)
11.04.2018 11:28 13,4 °C 49 % 1003,7 hPa 0,0 mm 7,0 km/h (2 Bft) O 79 ° 1 min 0,000 mm 4,3 UV-I 721 W/m² 2,9 °C 13,4 °C 11,3 km/h (2 Bft)
11.04.2018 11:29 13,4 °C 51 % 1003,6 hPa 0,0 mm 7,4 km/h (2 Bft) O-NO 74 ° 1 min 0,000 mm 4,4 UV-I 724 W/m² 3,5 °C 13,4 °C 11,3 km/h (2 Bft)
11.04.2018 11:30 13,3 °C 52 % 1003,7 hPa 0,0 mm 3,5 km/h (1 Bft) O-NO 59 ° 1 min 0,000 mm 4,4 UV-I 726 W/m² 3,7 °C 13,3 °C 6,4 km/h (2 Bft)
11.04.2018 11:31 13,4 °C 54 % 1003,6 hPa 0,0 mm 5,0 km/h (1 Bft) O-NO 59 ° 1 min 0,000 mm 4,4 UV-I 724 W/m² 4,3 °C 13,4 °C 9,7 km/h (2 Bft)
11.04.2018 11:32 13,6 °C 53 % 1003,6 hPa 0,0 mm 6,1 km/h (2 Bft) N-NO 22 ° 1 min 0,000 mm 4,4 UV-I 726 W/m² 4,2 °C 13,6 °C 9,7 km/h (2 Bft)
11.04.2018 11:33 13,6 °C 51 % 1003,6 hPa 0,0 mm 5,8 km/h (2 Bft) N-NO 17 ° 1 min 0,000 mm 4,4 UV-I 724 W/m² 3,7 °C 13,6 °C 9,7 km/h (2 Bft)
11.04.2018 11:34 13,7 °C 53 % 1003,5 hPa 0,0 mm 7,9 km/h (2 Bft) N-NO 30 ° 1 min 0,000 mm 4,4 UV-I 729 W/m² 4,3 °C 13,7 °C 11,3 km/h (2 Bft)
11.04.2018 11:35 13,7 °C 51 % 1003,5 hPa 0,0 mm 3,7 km/h (1 Bft) O-NO 66 ° 1 min 0,000 mm 4,5 UV-I 729 W/m² 3,8 °C 13,7 °C 6,4 km/h (2 Bft)
11.04.2018 11:36 13,7 °C 52 % 1003,6 hPa 0,0 mm 6,6 km/h (2 Bft) NO 49 ° 1 min 0,000 mm 4,5 UV-I 729 W/m² 4,0 °C 13,7 °C 12,9 km/h (3 Bft)
11.04.2018 11:37 13,6 °C 51 % 1003,5 hPa 0,0 mm 3,3 km/h (1 Bft) NO 51 ° 1 min 0,000 mm 4,5 UV-I 731 W/m² 3,7 °C 13,6 °C 8,0 km/h (2 Bft)
11.04.2018 11:38 13,6 °C 52 % 1003,5 hPa 0,0 mm 9,1 km/h (2 Bft) O-SO 113 ° 1 min 0,000 mm 4,5 UV-I 731 W/m² 3,9 °C 13,6 °C 14,5 km/h (3 Bft)
11.04.2018 11:39 13,5 °C 51 % 1003,5 hPa 0,0 mm 10,7 km/h (2 Bft) O 87 ° 1 min 0,000 mm 4,5 UV-I 733 W/m² 3,6 °C 13,5 °C 14,5 km/h (3 Bft)
11.04.2018 11:40 13,5 °C 50 % 1003,5 hPa 0,0 mm 9,5 km/h (2 Bft) O 82 ° 1 min 0,000 mm 4,5 UV-I 735 W/m² 3,3 °C 13,5 °C 12,9 km/h (3 Bft)
11.04.2018 11:41 13,6 °C 51 % 1003,5 hPa 0,0 mm 9,3 km/h (2 Bft) N-NO 32 ° 1 min 0,000 mm 4,5 UV-I 737 W/m² 3,7 °C 13,6 °C 14,5 km/h (3 Bft)
11.04.2018 11:42 13,7 °C 50 % 1003,5 hPa 0,0 mm 4,8 km/h (1 Bft) NO 35 ° 1 min 0,000 mm 4,5 UV-I 737 W/m² 3,5 °C 13,7 °C 8,0 km/h (2 Bft)
11.04.2018 11:43 13,8 °C 50 % 1003,5 hPa 0,0 mm 5,7 km/h (1 Bft) N-NO 28 ° 1 min 0,000 mm 4,6 UV-I 740 W/m² 3,6 °C 13,8 °C 8,0 km/h (2 Bft)
11.04.2018 11:44 13,9 °C 48 % 1003,6 hPa 0,0 mm 3,1 km/h (1 Bft) NO 52 ° 1 min 0,000 mm 4,6 UV-I 742 W/m² 3,1 °C 13,9 °C 4,8 km/h (1 Bft)
11.04.2018 11:45 13,9 °C 48 % 1003,5 hPa 0,0 mm 8,3 km/h (2 Bft) O-NO 67 ° 1 min 0,000 mm 4,6 UV-I 744 W/m² 3,1 °C 13,9 °C 14,5 km/h (3 Bft)
11.04.2018 11:46 13,9 °C 50 % 1003,6 hPa 0,0 mm 8,0 km/h (2 Bft) O 79 ° 1 min 0,000 mm 4,6 UV-I 740 W/m² 3,7 °C 13,9 °C 12,9 km/h (3 Bft)
11.04.2018 11:47 13,9 °C 49 % 1003,6 hPa 0,0 mm 8,2 km/h (2 Bft) NO 49 ° 1 min 0,000 mm 4,6 UV-I 742 W/m² 3,4 °C 13,9 °C 16,1 km/h (3 Bft)
11.04.2018 11:48 13,9 °C 50 % 1003,6 hPa 0,0 mm 8,3 km/h (2 Bft) N-NO 28 ° 1 min 0,000 mm 4,6 UV-I 744 W/m² 3,7 °C 13,9 °C 14,5 km/h (3 Bft)
11.04.2018 11:49 13,9 °C 50 % 1003,6 hPa 0,0 mm 6,0 km/h (2 Bft) NO 42 ° 1 min 0,000 mm 4,6 UV-I 742 W/m² 3,7 °C 13,9 °C 9,7 km/h (2 Bft)
11.04.2018 11:50 13,9 °C 49 % 1003,6 hPa 0,0 mm 7,0 km/h (2 Bft) NO 39 ° 1 min 0,000 mm 4,6 UV-I 740 W/m² 3,4 °C 13,9 °C 11,3 km/h (2 Bft)
11.04.2018 11:51 13,9 °C 50 % 1003,6 hPa 0,0 mm 7,8 km/h (2 Bft) O-NO 60 ° 1 min 0,000 mm 4,6 UV-I 742 W/m² 3,7 °C 13,9 °C 14,5 km/h (3 Bft)
11.04.2018 11:52 13,9 °C 50 % 1003,6 hPa 0,0 mm 4,8 km/h (1 Bft) NO 39 ° 1 min 0,000 mm 4,7 UV-I 744 W/m² 3,7 °C 13,9 °C 8,0 km/h (2 Bft)
11.04.2018 11:53 13,9 °C 49 % 1003,6 hPa 0,0 mm 4,0 km/h (1 Bft) O 82 ° 1 min 0,000 mm 4,7 UV-I 744 W/m² 3,4 °C 13,9 °C 8,0 km/h (2 Bft)
11.04.2018 11:54 13,9 °C 52 % 1003,6 hPa 0,0 mm 9,9 km/h (2 Bft) NO 39 ° 1 min 0,000 mm 4,7 UV-I 744 W/m² 4,2 °C 13,9 °C 14,5 km/h (3 Bft)
11.04.2018 11:55 13,9 °C 49 % 1003,6 hPa 0,0 mm 8,9 km/h (2 Bft) NO 38 ° 1 min 0,000 mm 4,7 UV-I 747 W/m² 3,4 °C 13,9 °C 11,3 km/h (2 Bft)
11.04.2018 11:56 13,9 °C 49 % 1003,6 hPa 0,0 mm 6,6 km/h (2 Bft) O-NO 67 ° 1 min 0,000 mm 4,7 UV-I 747 W/m² 3,4 °C 13,9 °C 9,7 km/h (2 Bft)
11.04.2018 11:57 14,1 °C 49 % 1003,6 hPa 0,0 mm 6,5 km/h (2 Bft) O-NO 59 ° 1 min 0,000 mm 4,7 UV-I 745 W/m² 3,6 °C 14,1 °C 12,9 km/h (3 Bft)
11.04.2018 11:58 14,2 °C 50 % 1003,6 hPa 0,0 mm 9,2 km/h (2 Bft) O-SO 103 ° 1 min 0,000 mm 4,7 UV-I 747 W/m² 3,9 °C 14,2 °C 14,5 km/h (3 Bft)
11.04.2018 11:59 14,1 °C 49 % 1003,6 hPa 0,0 mm 8,9 km/h (2 Bft) O 90 ° 1 min 0,000 mm 4,7 UV-I 749 W/m² 3,6 °C 14,1 °C 14,5 km/h (3 Bft)
11.04.2018 12:00 14,2 °C 51 % 1003,5 hPa 0,0 mm 7,7 km/h (2 Bft) NO 36 ° 1 min 0,407 mm 4,7 UV-I 749 W/m² 4,2 °C 14,2 °C 12,9 km/h (3 Bft)
11.04.2018 12:01 14,2 °C 51 % 1003,5 hPa 0,0 mm 7,4 km/h (2 Bft) O 80 ° 1 min 0,000 mm 4,7 UV-I 752 W/m² 4,2 °C 14,2 °C 12,9 km/h (3 Bft)
11.04.2018 12:02 14,0 °C 48 % 1003,4 hPa 0,0 mm 4,6 km/h (1 Bft) NO 45 ° 1 min 0,000 mm 4,7 UV-I 751 W/m² 3,2 °C 14,0 °C 8,0 km/h (2 Bft)
11.04.2018 12:03 14,1 °C 49 % 1003,4 hPa 0,0 mm 4,9 km/h (1 Bft) NO 50 ° 1 min 0,000 mm 4,8 UV-I 752 W/m² 3,6 °C 14,1 °C 12,9 km/h (3 Bft)
11.04.2018 12:04 14,2 °C 49 % 1003,4 hPa 0,0 mm 8,2 km/h (2 Bft) NO 36 ° 1 min 0,000 mm 4,8 UV-I 756 W/m² 3,6 °C 14,2 °C 11,3 km/h (2 Bft)
11.04.2018 12:05 14,3 °C 49 % 1003,4 hPa 0,0 mm 9,0 km/h (2 Bft) O 92 ° 1 min 0,000 mm 4,8 UV-I 756 W/m² 3,7 °C 14,3 °C 14,5 km/h (3 Bft)
11.04.2018 12:06 14,4 °C 50 % 1003,4 hPa 0,0 mm 11,1 km/h (2 Bft) SO 134 ° 1 min 0,000 mm 4,8 UV-I 758 W/m² 4,1 °C 14,4 °C 14,5 km/h (3 Bft)
11.04.2018 12:07 14,5 °C 47 % 1003,4 hPa 0,0 mm 7,6 km/h (2 Bft) O 82 ° 1 min 0,000 mm 4,8 UV-I 759 W/m² 3,3 °C 14,5 °C 12,9 km/h (3 Bft)
11.04.2018 12:08 14,4 °C 48 % 1003,5 hPa 0,0 mm 10,2 km/h (2 Bft) O-NO 72 ° 1 min 0,000 mm 4,8 UV-I 759 W/m² 3,5 °C 14,4 °C 14,5 km/h (3 Bft)
11.04.2018 12:09 14,3 °C 47 % 1003,4 hPa 0,0 mm 5,4 km/h (1 Bft) O-NO 71 ° 1 min 0,000 mm 4,8 UV-I 761 W/m² 3,1 °C 14,3 °C 8,0 km/h (2 Bft)
11.04.2018 12:10 14,3 °C 47 % 1003,4 hPa 0,0 mm 6,6 km/h (2 Bft) NO 51 ° 1 min 0,000 mm 4,8 UV-I 761 W/m² 3,1 °C 14,3 °C 9,7 km/h (2 Bft)
11.04.2018 12:11 14,3 °C 45 % 1003,4 hPa 0,0 mm 6,4 km/h (2 Bft) NO 54 ° 1 min 0,000 mm 4,9 UV-I 765 W/m² 2,5 °C 14,3 °C 9,7 km/h (2 Bft)
11.04.2018 12:12 14,5 °C 46 % 1003,4 hPa 0,0 mm 12,5 km/h (3 Bft) O 84 ° 1 min 0,000 mm 4,8 UV-I 763 W/m² 3,0 °C 14,5 °C 14,5 km/h (3 Bft)
11.04.2018 12:13 14,6 °C 46 % 1003,4 hPa 0,0 mm 7,1 km/h (2 Bft) O-NO 72 ° 1 min 0,000 mm 4,7 UV-I 717 W/m² 3,1 °C 14,6 °C 11,3 km/h (2 Bft)
11.04.2018 12:14 14,6 °C 45 % 1003,4 hPa 0,0 mm 9,8 km/h (2 Bft) NO 46 ° 1 min 0,000 mm 4,8 UV-I 759 W/m² 2,8 °C 14,6 °C 16,1 km/h (3 Bft)
11.04.2018 12:15 14,7 °C 48 % 1003,3 hPa 0,0 mm 8,6 km/h (2 Bft) SO 124 ° 1 min 0,000 mm 4,6 UV-I 744 W/m² 3,8 °C 14,7 °C 12,9 km/h (3 Bft)
11.04.2018 12:16 14,7 °C 46 % 1003,3 hPa 0,0 mm 7,1 km/h (2 Bft) NO 46 ° 1 min 0,000 mm 4,8 UV-I 747 W/m² 3,2 °C 14,7 °C 14,5 km/h (3 Bft)
11.04.2018 12:17 14,7 °C 46 % 1003,3 hPa 0,0 mm 8,6 km/h (2 Bft) O-NO 63 ° 1 min 0,000 mm 4,7 UV-I 737 W/m² 3,2 °C 14,7 °C 14,5 km/h (3 Bft)
11.04.2018 12:18 14,7 °C 46 % 1003,3 hPa 0,0 mm 7,2 km/h (2 Bft) N-NO 26 ° 1 min 0,000 mm 4,8 UV-I 737 W/m² 3,2 °C 14,7 °C 9,7 km/h (2 Bft)
11.04.2018 12:19 14,7 °C 46 % 1003,3 hPa 0,0 mm 9,4 km/h (2 Bft) O 80 ° 1 min 0,000 mm 4,8 UV-I 745 W/m² 3,2 °C 14,7 °C 16,1 km/h (3 Bft)
11.04.2018 12:20 14,7 °C 44 % 1003,3 hPa 0,0 mm 5,4 km/h (1 Bft) O-NO 69 ° 1 min 0,000 mm 4,6 UV-I 694 W/m² 2,6 °C 14,7 °C 11,3 km/h (2 Bft)
11.04.2018 12:21 14,6 °C 45 % 1003,2 hPa 0,0 mm 2,7 km/h (1 Bft) NO 54 ° 1 min 0,000 mm 4,3 UV-I 710 W/m² 2,8 °C 14,6 °C 4,8 km/h (1 Bft)
11.04.2018 12:22 14,6 °C 43 % 1003,3 hPa 0,0 mm 6,4 km/h (2 Bft) NO 55 ° 1 min 0,000 mm 4,8 UV-I 756 W/m² 2,2 °C 14,6 °C 12,9 km/h (3 Bft)
11.04.2018 12:23 14,6 °C 41 % 1003,2 hPa 0,0 mm 8,4 km/h (2 Bft) O-NO 63 ° 1 min 0,000 mm 4,9 UV-I 759 W/m² 1,5 °C 14,6 °C 12,9 km/h (3 Bft)
11.04.2018 12:24 14,6 °C 46 % 1003,2 hPa 0,0 mm 5,3 km/h (1 Bft) O 86 ° 1 min 0,000 mm 4,8 UV-I 745 W/m² 3,1 °C 14,6 °C 9,7 km/h (2 Bft)
11.04.2018 12:25 14,7 °C 47 % 1003,1 hPa 0,0 mm 4,9 km/h (1 Bft) O 86 ° 1 min 0,000 mm 4,9 UV-I 772 W/m² 3,5 °C 14,7 °C 6,4 km/h (2 Bft)
11.04.2018 12:26 14,7 °C 43 % 1003,1 hPa 0,0 mm 9,9 km/h (2 Bft) O-NO 74 ° 1 min 0,000 mm 5,0 UV-I 773 W/m² 2,3 °C 14,7 °C 12,9 km/h (3 Bft)
11.04.2018 12:27 14,7 °C 41 % 1003,1 hPa 0,0 mm 7,2 km/h (2 Bft) NO 47 ° 1 min 0,000 mm 5,0 UV-I 779 W/m² 1,6 °C 14,7 °C 9,7 km/h (2 Bft)
11.04.2018 12:28 14,8 °C 44 % 1003,1 hPa 0,0 mm 6,0 km/h (2 Bft) O-NO 74 ° 1 min 0,000 mm 5,0 UV-I 780 W/m² 2,7 °C 14,8 °C 11,3 km/h (2 Bft)
11.04.2018 12:29 14,9 °C 43 % 1003,1 hPa 0,0 mm 11,2 km/h (2 Bft) O-NO 70 ° 1 min 0,000 mm 5,0 UV-I 779 W/m² 2,4 °C 14,9 °C 16,1 km/h (3 Bft)
11.04.2018 12:30 14,9 °C 42 % 1003,1 hPa 0,0 mm 10,5 km/h (2 Bft) O-NO 64 ° 1 min 0,000 mm 5,0 UV-I 780 W/m² 2,1 °C 14,9 °C 16,1 km/h (3 Bft)
11.04.2018 12:31 14,9 °C 40 % 1003,1 hPa 0,0 mm 8,1 km/h (2 Bft) O 91 ° 1 min 0,000 mm 5,0 UV-I 780 W/m² 1,4 °C 14,9 °C 12,9 km/h (3 Bft)
11.04.2018 12:32 14,8 °C 41 % 1003,1 hPa 0,0 mm 5,2 km/h (1 Bft) NO 38 ° 1 min 0,000 mm 5,0 UV-I 782 W/m² 1,7 °C 14,8 °C 14,5 km/h (3 Bft)
11.04.2018 12:33 14,9 °C 40 % 1003,0 hPa 0,0 mm 11,6 km/h (2 Bft) O-NO 73 ° 1 min 0,000 mm 5,1 UV-I 782 W/m² 1,4 °C 14,9 °C 17,7 km/h (3 Bft)
11.04.2018 12:34 15,0 °C 41 % 1003,1 hPa 0,0 mm 14,2 km/h (3 Bft) O-NO 69 ° 1 min 0,000 mm 5,0 UV-I 786 W/m² 1,9 °C 15,0 °C 17,7 km/h (3 Bft)
11.04.2018 12:35 15,0 °C 42 % 1003,1 hPa 0,0 mm 9,4 km/h (2 Bft) O-NO 61 ° 1 min 0,000 mm 5,0 UV-I 788 W/m² 2,2 °C 15,0 °C 14,5 km/h (3 Bft)
11.04.2018 12:36 14,9 °C 41 % 1003,1 hPa 0,0 mm 7,0 km/h (2 Bft) O 83 ° 1 min 0,000 mm 5,0 UV-I 788 W/m² 1,8 °C 14,9 °C 9,7 km/h (2 Bft)
11.04.2018 12:37 14,9 °C 43 % 1003,1 hPa 0,0 mm 11,9 km/h (2 Bft) O 84 ° 1 min 0,000 mm 5,0 UV-I 788 W/m² 2,4 °C 14,9 °C 14,5 km/h (3 Bft)
11.04.2018 12:38 15,0 °C 43 % 1003,0 hPa 0,0 mm 10,7 km/h (2 Bft) O-NO 61 ° 1 min 0,000 mm 5,1 UV-I 784 W/m² 2,5 °C 15,0 °C 16,1 km/h (3 Bft)
11.04.2018 12:39 15,1 °C 40 % 1003,1 hPa 0,0 mm 12,1 km/h (2 Bft) N-NO 30 ° 1 min 0,000 mm 5,1 UV-I 766 W/m² 1,6 °C 15,1 °C 16,1 km/h (3 Bft)
11.04.2018 12:40 14,9 °C 38 % 1003,0 hPa 0,0 mm 8,6 km/h (2 Bft) NO 51 ° 1 min 0,000 mm 5,0 UV-I 782 W/m² 0,7 °C 14,9 °C 16,1 km/h (3 Bft)
11.04.2018 12:41 14,9 °C 40 % 1003,0 hPa 0,0 mm 7,0 km/h (2 Bft) NO 38 ° 1 min 0,000 mm 5,1 UV-I 788 W/m² 1,4 °C 14,9 °C 9,7 km/h (2 Bft)
11.04.2018 12:42 15,0 °C 40 % 1003,0 hPa 0,0 mm 7,8 km/h (2 Bft) O-NO 60 ° 1 min 0,000 mm 5,1 UV-I 788 W/m² 1,5 °C 15,0 °C 14,5 km/h (3 Bft)
11.04.2018 12:43 14,9 °C 42 % 1002,9 hPa 0,0 mm 4,3 km/h (1 Bft) NO 34 ° 1 min 0,000 mm 5,1 UV-I 788 W/m² 2,1 °C 14,9 °C 9,7 km/h (2 Bft)
11.04.2018 12:44 15,1 °C 40 % 1002,9 hPa 0,0 mm 10,0 km/h (2 Bft) N-NO 29 ° 1 min 0,000 mm 5,1 UV-I 788 W/m² 1,6 °C 15,1 °C 14,5 km/h (3 Bft)
11.04.2018 12:45 15,2 °C 41 % 1002,9 hPa 0,0 mm 10,4 km/h (2 Bft) O-NO 76 ° 1 min 0,000 mm 5,1 UV-I 788 W/m² 2,0 °C 15,2 °C 16,1 km/h (3 Bft)
11.04.2018 12:46 15,2 °C 40 % 1002,9 hPa 0,0 mm 7,8 km/h (2 Bft) NO 53 ° 1 min 0,000 mm 5,1 UV-I 791 W/m² 1,7 °C 15,2 °C 14,5 km/h (3 Bft)
11.04.2018 12:47 15,2 °C 39 % 1002,9 hPa 0,0 mm 7,6 km/h (2 Bft) O 81 ° 1 min 0,000 mm 5,1 UV-I 791 W/m² 1,3 °C 15,2 °C 14,5 km/h (3 Bft)
11.04.2018 12:48 15,3 °C 38 % 1002,8 hPa 0,0 mm 11,2 km/h (2 Bft) NO 49 ° 1 min 0,000 mm 5,1 UV-I 793 W/m² 1,1 °C 15,3 °C 16,1 km/h (3 Bft)
11.04.2018 12:49 15,3 °C 38 % 1002,8 hPa 0,0 mm 12,9 km/h (3 Bft) O 87 ° 1 min 0,000 mm 5,1 UV-I 793 W/m² 1,1 °C 15,3 °C 19,3 km/h (3 Bft)
11.04.2018 12:50 15,2 °C 40 % 1002,9 hPa 0,0 mm 13,1 km/h (3 Bft) O 99 ° 1 min 0,000 mm 5,1 UV-I 795 W/m² 1,7 °C 15,2 °C 20,9 km/h (4 Bft)
11.04.2018 12:51 15,3 °C 42 % 1002,8 hPa 0,0 mm 11,1 km/h (2 Bft) O 80 ° 1 min 0,000 mm 5,1 UV-I 795 W/m² 2,5 °C 15,3 °C 16,1 km/h (3 Bft)
11.04.2018 12:52 15,2 °C 38 % 1002,8 hPa 0,0 mm 7,9 km/h (2 Bft) NO 55 ° 1 min 0,000 mm 5,1 UV-I 795 W/m² 1,0 °C 15,2 °C 14,5 km/h (3 Bft)
11.04.2018 12:53 15,2 °C 39 % 1002,8 hPa 0,0 mm 13,1 km/h (3 Bft) O 87 ° 1 min 0,000 mm 5,1 UV-I 793 W/m² 1,3 °C 15,2 °C 20,9 km/h (4 Bft)
11.04.2018 12:54 15,1 °C 39 % 1002,8 hPa 0,0 mm 5,6 km/h (1 Bft) O 79 ° 1 min 0,000 mm 5,1 UV-I 793 W/m² 1,3 °C 15,1 °C 8,0 km/h (2 Bft)
11.04.2018 12:55 15,1 °C 39 % 1002,8 hPa 0,0 mm 14,3 km/h (3 Bft) O 84 ° 1 min 0,000 mm 5,1 UV-I 791 W/m² 1,3 °C 15,1 °C 19,3 km/h (3 Bft)
11.04.2018 12:56 15,1 °C 40 % 1002,8 hPa 0,0 mm 9,9 km/h (2 Bft) O 101 ° 1 min 0,000 mm 5,1 UV-I 791 W/m² 1,6 °C 15,1 °C 16,1 km/h (3 Bft)
11.04.2018 12:57 15,1 °C 41 % 1002,8 hPa 0,0 mm 9,0 km/h (2 Bft) O-NO 72 ° 1 min 0,000 mm 5,1 UV-I 789 W/m² 2,0 °C 15,1 °C 16,1 km/h (3 Bft)
11.04.2018 12:58 15,3 °C 43 % 1002,8 hPa 0,0 mm 10,2 km/h (2 Bft) O-NO 70 ° 1 min 0,000 mm 5,1 UV-I 791 W/m² 2,8 °C 15,3 °C 17,7 km/h (3 Bft)
11.04.2018 12:59 15,3 °C 42 % 1002,8 hPa 0,0 mm 9,1 km/h (2 Bft) O 82 ° 1 min 0,000 mm 5,1 UV-I 788 W/m² 2,5 °C 15,3 °C 12,9 km/h (3 Bft)
11.04.2018 13:00 15,3 °C 41 % 1002,8 hPa 0,0 mm 12,2 km/h (2 Bft) O-NO 78 ° 1 min 0,000 mm 5,1 UV-I 789 W/m² 2,1 °C 15,3 °C 19,3 km/h (3 Bft)
11.04.2018 13:01 15,2 °C 39 % 1002,8 hPa 0,0 mm 8,4 km/h (2 Bft) NO 54 ° 1 min 0,457 mm 5,1 UV-I 789 W/m² 1,3 °C 15,2 °C 17,7 km/h (3 Bft)
11.04.2018 13:02 15,1 °C 43 % 1002,7 hPa 0,0 mm 2,9 km/h (1 Bft) NO 51 ° 1 min 0,000 mm 5,1 UV-I 788 W/m² 2,6 °C 15,1 °C 4,8 km/h (1 Bft)
11.04.2018 13:03 14,9 °C 39 % 1002,7 hPa 0,0 mm 4,5 km/h (1 Bft) NO 43 ° 1 min 0,000 mm 5,1 UV-I 788 W/m² 1,1 °C 14,9 °C 9,7 km/h (2 Bft)
11.04.2018 13:04 15,0 °C 39 % 1002,7 hPa 0,0 mm 7,8 km/h (2 Bft) NO 53 ° 1 min 0,000 mm 5,1 UV-I 789 W/m² 1,2 °C 15,0 °C 12,9 km/h (3 Bft)
11.04.2018 13:05 15,2 °C 42 % 1002,7 hPa 0,0 mm 8,4 km/h (2 Bft) O 84 ° 1 min 0,000 mm 5,1 UV-I 788 W/m² 2,4 °C 15,2 °C 16,1 km/h (3 Bft)
11.04.2018 13:06 15,3 °C 42 % 1002,7 hPa 0,0 mm 10,2 km/h (2 Bft) O 90 ° 1 min 0,000 mm 5,1 UV-I 788 W/m² 2,5 °C 15,3 °C 17,7 km/h (3 Bft)
11.04.2018 13:07 15,3 °C 40 % 1002,7 hPa 0,0 mm 11,0 km/h (2 Bft) O 90 ° 1 min 0,000 mm 5,1 UV-I 789 W/m² 1,8 °C 15,3 °C 16,1 km/h (3 Bft)
11.04.2018 13:08 15,4 °C 40 % 1002,7 hPa 0,0 mm 7,0 km/h (2 Bft) O-SO 103 ° 1 min 0,000 mm 5,1 UV-I 791 W/m² 1,9 °C 15,4 °C 11,3 km/h (2 Bft)
11.04.2018 13:09 15,4 °C 38 % 1002,7 hPa 0,0 mm 8,0 km/h (2 Bft) O 88 ° 1 min 0,000 mm 5,1 UV-I 789 W/m² 1,2 °C 15,4 °C 11,3 km/h (2 Bft)
11.04.2018 13:10 15,3 °C 39 % 1002,7 hPa 0,0 mm 5,8 km/h (2 Bft) O 84 ° 1 min 0,000 mm 5,1 UV-I 791 W/m² 1,4 °C 15,3 °C 9,7 km/h (2 Bft)
11.04.2018 13:11 15,2 °C 40 % 1002,7 hPa 0,0 mm 7,0 km/h (2 Bft) O-SO 103 ° 1 min 0,000 mm 5,1 UV-I 791 W/m² 1,7 °C 15,2 °C 12,9 km/h (3 Bft)
11.04.2018 13:12 15,4 °C 46 % 1002,6 hPa 0,0 mm 7,6 km/h (2 Bft) O-NO 76 ° 1 min 0,000 mm 5,1 UV-I 791 W/m² 3,8 °C 15,4 °C 14,5 km/h (3 Bft)
11.04.2018 13:13 15,6 °C 41 % 1002,6 hPa 0,0 mm 3,7 km/h (1 Bft) O-NO 57 ° 1 min 0,000 mm 5,2 UV-I 793 W/m² 2,4 °C 15,6 °C 8,0 km/h (2 Bft)
11.04.2018 13:14 15,7 °C 42 % 1002,6 hPa 0,0 mm 11,1 km/h (2 Bft) NO 51 ° 1 min 0,000 mm 5,2 UV-I 793 W/m² 2,8 °C 15,7 °C 16,1 km/h (3 Bft)
11.04.2018 13:15 15,8 °C 38 % 1002,6 hPa 0,0 mm 13,9 km/h (3 Bft) N-NO 22 ° 1 min 0,000 mm 5,2 UV-I 795 W/m² 1,5 °C 15,8 °C 22,5 km/h (4 Bft)
11.04.2018 13:16 15,8 °C 38 % 1002,6 hPa 0,0 mm 11,5 km/h (2 Bft) O-NO 71 ° 1 min 0,000 mm 5,2 UV-I 798 W/m² 1,5 °C 15,8 °C 16,1 km/h (3 Bft)
11.04.2018 13:17 15,8 °C 37 % 1002,6 hPa 0,0 mm 13,2 km/h (3 Bft) NO 35 ° 1 min 0,000 mm 5,2 UV-I 798 W/m² 1,1 °C 15,8 °C 19,3 km/h (3 Bft)
11.04.2018 13:18 15,7 °C 37 % 1002,6 hPa 0,0 mm 6,5 km/h (2 Bft) O 95 ° 1 min 0,000 mm 5,2 UV-I 798 W/m² 1,1 °C 15,7 °C 14,5 km/h (3 Bft)
11.04.2018 13:19 15,6 °C 36 % 1002,6 hPa 0,0 mm 4,2 km/h (1 Bft) NO 51 ° 1 min 0,000 mm 5,2 UV-I 795 W/m² 0,6 °C 15,6 °C 11,3 km/h (2 Bft)
11.04.2018 13:20 15,6 °C 41 % 1002,6 hPa 0,0 mm 6,7 km/h (2 Bft) O 88 ° 1 min 0,000 mm 5,2 UV-I 793 W/m² 2,4 °C 15,6 °C 11,3 km/h (2 Bft)
11.04.2018 13:21 15,7 °C 39 % 1002,6 hPa 0,0 mm 10,0 km/h (2 Bft) N-NO 28 ° 1 min 0,000 mm 5,2 UV-I 795 W/m² 1,8 °C 15,7 °C 14,5 km/h (3 Bft)
11.04.2018 13:22 15,8 °C 38 % 1002,6 hPa 0,0 mm 12,0 km/h (2 Bft) O 90 ° 1 min 0,000 mm 5,2 UV-I 795 W/m² 1,5 °C 15,8 °C 14,5 km/h (3 Bft)
11.04.2018 13:23 16,0 °C 41 % 1002,6 hPa 0,0 mm 8,1 km/h (2 Bft) O-NO 78 ° 1 min 0,000 mm 5,2 UV-I 793 W/m² 2,8 °C 16,0 °C 14,5 km/h (3 Bft)
11.04.2018 13:24 16,0 °C 38 % 1002,7 hPa 0,0 mm 7,4 km/h (2 Bft) O-NO 62 ° 1 min 0,000 mm 5,2 UV-I 795 W/m² 1,7 °C 16,0 °C 11,3 km/h (2 Bft)
11.04.2018 13:25 15,9 °C 38 % 1002,6 hPa 0,0 mm 9,2 km/h (2 Bft) O-NO 71 ° 1 min 0,000 mm 5,2 UV-I 795 W/m² 1,6 °C 15,9 °C 16,1 km/h (3 Bft)
11.04.2018 13:26 15,8 °C 37 % 1002,6 hPa 0,0 mm 13,1 km/h (3 Bft) O-SO 107 ° 1 min 0,000 mm 5,2 UV-I 796 W/m² 1,1 °C 15,8 °C 17,7 km/h (3 Bft)
11.04.2018 13:27 15,7 °C 37 % 1002,7 hPa 0,0 mm 7,2 km/h (2 Bft) O-SO 102 ° 1 min 0,000 mm 5,2 UV-I 793 W/m² 1,1 °C 15,7 °C 12,9 km/h (3 Bft)
11.04.2018 13:28 15,4 °C 37 % 1002,6 hPa 0,0 mm 7,2 km/h (2 Bft) S-SO 151 ° 1 min 0,000 mm 5,2 UV-I 795 W/m² 0,8 °C 15,4 °C 9,7 km/h (2 Bft)
11.04.2018 13:29 15,4 °C 36 % 1002,6 hPa 0,0 mm 2,5 km/h (1 Bft) S-SO 159 ° 1 min 0,000 mm 5,2 UV-I 795 W/m² 0,4 °C 15,4 °C 6,4 km/h (2 Bft)
11.04.2018 13:30 15,4 °C 40 % 1002,6 hPa 0,0 mm 4,8 km/h (1 Bft) O-SO 103 ° 1 min 0,000 mm 5,2 UV-I 795 W/m² 1,9 °C 15,4 °C 6,4 km/h (2 Bft)
11.04.2018 13:31 15,7 °C 44 % 1002,6 hPa 0,0 mm 8,4 km/h (2 Bft) S-SO 155 ° 1 min 0,000 mm 5,2 UV-I 796 W/m² 3,5 °C 15,7 °C 14,5 km/h (3 Bft)
11.04.2018 13:32 15,8 °C 38 % 1002,6 hPa 0,0 mm 5,4 km/h (1 Bft) NO 50 ° 1 min 0,000 mm 5,3 UV-I 798 W/m² 1,5 °C 15,8 °C 11,3 km/h (2 Bft)
11.04.2018 13:33 15,8 °C 37 % 1002,6 hPa 0,0 mm 3,9 km/h (1 Bft) O 84 ° 1 min 0,000 mm 5,2 UV-I 798 W/m² 1,1 °C 15,8 °C 6,4 km/h (2 Bft)
11.04.2018 13:34 15,9 °C 36 % 1002,6 hPa 0,0 mm 11,2 km/h (2 Bft) O 83 ° 1 min 0,000 mm 5,2 UV-I 800 W/m² 0,9 °C 15,9 °C 16,1 km/h (3 Bft)
11.04.2018 13:35 15,8 °C 38 % 1002,6 hPa 0,0 mm 9,9 km/h (2 Bft) O-NO 70 ° 1 min 0,000 mm 5,2 UV-I 796 W/m² 1,5 °C 15,8 °C 14,5 km/h (3 Bft)
11.04.2018 13:36 15,8 °C 38 % 1002,6 hPa 0,0 mm 10,1 km/h (2 Bft) O 86 ° 1 min 0,000 mm 5,2 UV-I 800 W/m² 1,5 °C 15,8 °C 12,9 km/h (3 Bft)
11.04.2018 13:37 15,8 °C 37 % 1002,6 hPa 0,0 mm 6,4 km/h (2 Bft) O-NO 62 ° 1 min 0,000 mm 5,2 UV-I 798 W/m² 1,1 °C 15,8 °C 11,3 km/h (2 Bft)
11.04.2018 13:38 15,8 °C 37 % 1002,5 hPa 0,0 mm 11,6 km/h (2 Bft) O-SO 113 ° 1 min 0,000 mm 5,2 UV-I 796 W/m² 1,1 °C 15,8 °C 16,1 km/h (3 Bft)
11.04.2018 13:39 15,8 °C 37 % 1002,5 hPa 0,0 mm 8,6 km/h (2 Bft) O-NO 73 ° 1 min 0,000 mm 5,2 UV-I 796 W/m² 1,1 °C 15,8 °C 12,9 km/h (3 Bft)
11.04.2018 13:40 15,7 °C 38 % 1002,5 hPa 0,0 mm 5,4 km/h (1 Bft) NO 34 ° 1 min 0,000 mm 5,2 UV-I 796 W/m² 1,4 °C 15,7 °C 9,7 km/h (2 Bft)
11.04.2018 13:41 15,7 °C 36 % 1002,5 hPa 0,0 mm 11,3 km/h (2 Bft) NO 34 ° 1 min 0,000 mm 5,2 UV-I 795 W/m² 0,7 °C 15,7 °C 16,1 km/h (3 Bft)
11.04.2018 13:42 15,7 °C 36 % 1002,5 hPa 0,0 mm 7,3 km/h (2 Bft) N-NO 25 ° 1 min 0,000 mm 5,2 UV-I 802 W/m² 0,7 °C 15,7 °C 9,7 km/h (2 Bft)
11.04.2018 13:43 15,8 °C 36 % 1002,5 hPa 0,0 mm 8,2 km/h (2 Bft) NO 43 ° 1 min 0,000 mm 5,2 UV-I 800 W/m² 0,8 °C 15,8 °C 11,3 km/h (2 Bft)
11.04.2018 13:44 15,9 °C 38 % 1002,5 hPa 0,0 mm 11,1 km/h (2 Bft) O 80 ° 1 min 0,000 mm 5,2 UV-I 800 W/m² 1,6 °C 15,9 °C 22,5 km/h (4 Bft)
11.04.2018 13:45 16,0 °C 39 % 1002,5 hPa 0,0 mm 11,6 km/h (2 Bft) O-NO 58 ° 1 min 0,000 mm 5,2 UV-I 798 W/m² 2,1 °C 16,0 °C 17,7 km/h (3 Bft)
11.04.2018 13:46 16,0 °C 37 % 1002,5 hPa 0,0 mm 10,8 km/h (2 Bft) O 98 ° 1 min 0,000 mm 5,2 UV-I 800 W/m² 1,3 °C 16,0 °C 20,9 km/h (4 Bft)
11.04.2018 13:47 15,9 °C 37 % 1002,5 hPa 0,0 mm 8,0 km/h (2 Bft) NO 54 ° 1 min 0,000 mm 5,2 UV-I 800 W/m² 1,2 °C 15,9 °C 16,1 km/h (3 Bft)
11.04.2018 13:48 16,1 °C 38 % 1002,5 hPa 0,0 mm 5,4 km/h (1 Bft) NO 48 ° 1 min 0,000 mm 5,2 UV-I 800 W/m² 1,8 °C 16,1 °C 8,0 km/h (2 Bft)
11.04.2018 13:49 16,2 °C 40 % 1002,5 hPa 0,0 mm 2,5 km/h (1 Bft) O 93 ° 1 min 0,000 mm 5,2 UV-I 798 W/m² 2,6 °C 16,2 °C 4,8 km/h (1 Bft)
11.04.2018 13:50 16,2 °C 39 % 1002,5 hPa 0,0 mm 6,2 km/h (2 Bft) SO 138 ° 1 min 0,000 mm 5,2 UV-I 798 W/m² 2,2 °C 16,2 °C 9,7 km/h (2 Bft)
11.04.2018 13:51 16,3 °C 38 % 1002,4 hPa 0,0 mm 12,5 km/h (3 Bft) O 93 ° 1 min 0,000 mm 5,2 UV-I 798 W/m² 2,0 °C 16,3 °C 22,5 km/h (4 Bft)
11.04.2018 13:52 16,2 °C 37 % 1002,5 hPa 0,0 mm 10,7 km/h (2 Bft) O-NO 74 ° 1 min 0,000 mm 5,2 UV-I 798 W/m² 1,5 °C 16,2 °C 14,5 km/h (3 Bft)
11.04.2018 13:53 16,3 °C 38 % 1002,5 hPa 0,0 mm 9,1 km/h (2 Bft) NO 38 ° 1 min 0,000 mm 5,2 UV-I 798 W/m² 2,0 °C 16,3 °C 12,9 km/h (3 Bft)
11.04.2018 13:54 16,3 °C 39 % 1002,4 hPa 0,0 mm 8,8 km/h (2 Bft) O-NO 65 ° 1 min 0,000 mm 5,2 UV-I 795 W/m² 2,3 °C 16,3 °C 14,5 km/h (3 Bft)
11.04.2018 13:55 16,3 °C 37 % 1002,4 hPa 0,0 mm 8,1 km/h (2 Bft) O-SO 110 ° 1 min 0,000 mm 5,2 UV-I 796 W/m² 1,6 °C 16,3 °C 12,9 km/h (3 Bft)
11.04.2018 13:56 16,2 °C 36 % 1002,4 hPa 0,0 mm 2,1 km/h (1 Bft) O 96 ° 1 min 0,000 mm 5,2 UV-I 796 W/m² 1,1 °C 16,2 °C 4,8 km/h (1 Bft)
11.04.2018 13:57 16,3 °C 38 % 1002,4 hPa 0,0 mm 7,8 km/h (2 Bft) N-NO 13 ° 1 min 0,000 mm 5,2 UV-I 796 W/m² 2,0 °C 16,3 °C 16,1 km/h (3 Bft)
11.04.2018 13:58 16,4 °C 38 % 1002,4 hPa 0,0 mm 8,3 km/h (2 Bft) N-NO 30 ° 1 min 0,000 mm 5,2 UV-I 786 W/m² 2,1 °C 16,4 °C 12,9 km/h (3 Bft)
11.04.2018 13:59 16,4 °C 40 % 1002,4 hPa 0,0 mm 8,1 km/h (2 Bft) N-NO 30 ° 1 min 0,000 mm 5,2 UV-I 796 W/m² 2,8 °C 16,4 °C 9,7 km/h (2 Bft)
11.04.2018 14:00 16,5 °C 37 % 1002,4 hPa 0,0 mm 5,3 km/h (1 Bft) O-NO 58 ° 1 min 0,000 mm 5,2 UV-I 793 W/m² 1,8 °C 16,5 °C 9,7 km/h (2 Bft)
11.04.2018 14:01 16,4 °C 37 % 1002,4 hPa 0,0 mm 8,6 km/h (2 Bft) O 100 ° 1 min 0,483 mm 5,2 UV-I 795 W/m² 1,7 °C 16,4 °C 14,5 km/h (3 Bft)
11.04.2018 14:02 16,6 °C 39 % 1002,5 hPa 0,0 mm 9,9 km/h (2 Bft) O 82 ° 1 min 0,000 mm 5,2 UV-I 795 W/m² 2,6 °C 16,6 °C 14,5 km/h (3 Bft)
11.04.2018 14:03 16,4 °C 36 % 1002,5 hPa 0,0 mm 7,8 km/h (2 Bft) O-NO 57 ° 1 min 0,000 mm 5,1 UV-I 777 W/m² 1,3 °C 16,4 °C 12,9 km/h (3 Bft)
11.04.2018 14:04 16,4 °C 39 % 1002,5 hPa 0,0 mm 8,6 km/h (2 Bft) O 94 ° 1 min 0,000 mm 5,1 UV-I 784 W/m² 2,4 °C 16,4 °C 12,9 km/h (3 Bft)
11.04.2018 14:05 16,6 °C 39 % 1002,4 hPa 0,0 mm 6,3 km/h (2 Bft) NO 35 ° 1 min 0,000 mm 5,1 UV-I 788 W/m² 2,6 °C 16,6 °C 11,3 km/h (2 Bft)
11.04.2018 14:06 16,6 °C 39 % 1002,4 hPa 0,0 mm 5,8 km/h (2 Bft) NO 44 ° 1 min 0,000 mm 5,1 UV-I 782 W/m² 2,6 °C 16,6 °C 12,9 km/h (3 Bft)
11.04.2018 14:07 16,7 °C 38 % 1002,4 hPa 0,0 mm 6,9 km/h (2 Bft) N-NO 24 ° 1 min 0,000 mm 4,9 UV-I 770 W/m² 2,3 °C 16,7 °C 12,9 km/h (3 Bft)
11.04.2018 14:08 16,7 °C 38 % 1002,3 hPa 0,0 mm 16,6 km/h (3 Bft) O-NO 73 ° 1 min 0,000 mm 5,0 UV-I 754 W/m² 2,3 °C 16,7 °C 25,7 km/h (4 Bft)
11.04.2018 14:09 16,7 °C 36 % 1002,4 hPa 0,0 mm 14,1 km/h (3 Bft) O 90 ° 1 min 0,000 mm 5,0 UV-I 772 W/m² 1,6 °C 16,7 °C 16,1 km/h (3 Bft)
11.04.2018 14:10 16,8 °C 39 % 1002,4 hPa 0,0 mm 9,5 km/h (2 Bft) NO 49 ° 1 min 0,000 mm 4,9 UV-I 752 W/m² 2,8 °C 16,8 °C 14,5 km/h (3 Bft)
11.04.2018 14:11 16,7 °C 35 % 1002,4 hPa 0,0 mm 7,8 km/h (2 Bft) O-NO 61 ° 1 min 0,000 mm 5,0 UV-I 754 W/m² 1,2 °C 16,7 °C 14,5 km/h (3 Bft)
11.04.2018 14:12 16,7 °C 37 % 1002,5 hPa 0,0 mm 8,3 km/h (2 Bft) NO 47 ° 1 min 0,000 mm 5,1 UV-I 789 W/m² 1,9 °C 16,7 °C 11,3 km/h (2 Bft)
11.04.2018 14:13 16,5 °C 35 % 1002,4 hPa 0,0 mm 5,2 km/h (1 Bft) NO 53 ° 1 min 0,000 mm 5,0 UV-I 788 W/m² 1,0 °C 16,5 °C 9,7 km/h (2 Bft)
11.04.2018 14:14 16,6 °C 36 % 1002,4 hPa 0,0 mm 7,1 km/h (2 Bft) NO 44 ° 1 min 0,000 mm 5,0 UV-I 759 W/m² 1,5 °C 16,6 °C 12,9 km/h (3 Bft)
11.04.2018 14:15 16,7 °C 36 % 1002,4 hPa 0,0 mm 6,8 km/h (2 Bft) NO 49 ° 1 min 0,000 mm 5,0 UV-I 763 W/m² 1,6 °C 16,7 °C 12,9 km/h (3 Bft)
11.04.2018 14:16 16,8 °C 36 % 1002,3 hPa 0,0 mm 8,3 km/h (2 Bft) O 95 ° 1 min 0,000 mm 5,0 UV-I 752 W/m² 1,7 °C 16,8 °C 14,5 km/h (3 Bft)
11.04.2018 14:17 16,8 °C 36 % 1002,3 hPa 0,0 mm 6,4 km/h (2 Bft) NO 56 ° 1 min 0,000 mm 4,9 UV-I 752 W/m² 1,7 °C 16,8 °C 9,7 km/h (2 Bft)
11.04.2018 14:18 16,9 °C 38 % 1002,3 hPa 0,0 mm 9,7 km/h (2 Bft) O-NO 77 ° 1 min 0,000 mm 4,9 UV-I 752 W/m² 2,5 °C 16,9 °C 14,5 km/h (3 Bft)
11.04.2018 14:19 16,8 °C 36 % 1002,3 hPa 0,0 mm 6,4 km/h (2 Bft) O-NO 63 ° 1 min 0,000 mm 5,0 UV-I 763 W/m² 1,7 °C 16,8 °C 11,3 km/h (2 Bft)
11.04.2018 14:20 16,8 °C 40 % 1002,4 hPa 0,0 mm 11,0 km/h (2 Bft) NO 45 ° 1 min 0,000 mm 5,0 UV-I 766 W/m² 3,1 °C 16,8 °C 19,3 km/h (3 Bft)
11.04.2018 14:21 16,7 °C 37 % 1002,4 hPa 0,0 mm 9,7 km/h (2 Bft) NO 45 ° 1 min 0,000 mm 4,9 UV-I 731 W/m² 1,9 °C 16,7 °C 16,1 km/h (3 Bft)
11.04.2018 14:22 16,6 °C 39 % 1002,4 hPa 0,0 mm 7,8 km/h (2 Bft) NO 56 ° 1 min 0,000 mm 5,0 UV-I 761 W/m² 2,6 °C 16,6 °C 14,5 km/h (3 Bft)
11.04.2018 14:23 16,5 °C 43 % 1002,4 hPa 0,0 mm 4,2 km/h (1 Bft) NO 49 ° 1 min 0,000 mm 5,0 UV-I 786 W/m² 3,9 °C 16,5 °C 6,4 km/h (2 Bft)
11.04.2018 14:24 16,6 °C 39 % 1002,4 hPa 0,0 mm 13,3 km/h (3 Bft) NO 52 ° 1 min 0,000 mm 5,0 UV-I 786 W/m² 2,6 °C 16,6 °C 22,5 km/h (4 Bft)
11.04.2018 14:25 16,7 °C 38 % 1002,3 hPa 0,0 mm 15,9 km/h (3 Bft) NO 36 ° 1 min 0,000 mm 5,0 UV-I 784 W/m² 2,3 °C 16,7 °C 22,5 km/h (4 Bft)
11.04.2018 14:26 16,7 °C 38 % 1002,3 hPa 0,0 mm 14,4 km/h (3 Bft) NO 47 ° 1 min 0,000 mm 5,0 UV-I 791 W/m² 2,3 °C 16,7 °C 20,9 km/h (4 Bft)
11.04.2018 14:27 16,7 °C 37 % 1002,3 hPa 0,0 mm 10,9 km/h (2 Bft) O-NO 71 ° 1 min 0,000 mm 5,0 UV-I 793 W/m² 1,9 °C 16,7 °C 19,3 km/h (3 Bft)
11.04.2018 14:28 16,7 °C 40 % 1002,3 hPa 0,0 mm 8,7 km/h (2 Bft) NO 38 ° 1 min 0,000 mm 4,9 UV-I 777 W/m² 3,0 °C 16,7 °C 16,1 km/h (3 Bft)
11.04.2018 14:29 16,7 °C 39 % 1002,3 hPa 0,0 mm 7,3 km/h (2 Bft) NO 39 ° 1 min 0,000 mm 4,9 UV-I 779 W/m² 2,7 °C 16,7 °C 9,7 km/h (2 Bft)
11.04.2018 14:30 16,7 °C 40 % 1002,3 hPa 0,0 mm 10,7 km/h (2 Bft) O-NO 59 ° 1 min 0,000 mm 5,0 UV-I 777 W/m² 3,0 °C 16,7 °C 16,1 km/h (3 Bft)
11.04.2018 14:31 16,8 °C 41 % 1002,2 hPa 0,0 mm 13,4 km/h (3 Bft) O-NO 73 ° 1 min 0,000 mm 5,0 UV-I 784 W/m² 3,5 °C 16,8 °C 20,9 km/h (4 Bft)
11.04.2018 14:32 16,8 °C 39 % 1002,3 hPa 0,0 mm 11,9 km/h (2 Bft) O-NO 67 ° 1 min 0,000 mm 4,9 UV-I 779 W/m² 2,8 °C 16,8 °C 19,3 km/h (3 Bft)
11.04.2018 14:33 16,7 °C 39 % 1002,3 hPa 0,0 mm 8,4 km/h (2 Bft) NO 42 ° 1 min 0,000 mm 5,0 UV-I 782 W/m² 2,7 °C 16,7 °C 19,3 km/h (3 Bft)
11.04.2018 14:34 16,7 °C 43 % 1002,2 hPa 0,0 mm 5,6 km/h (1 Bft) O-NO 59 ° 1 min 0,000 mm 5,0 UV-I 789 W/m² 4,1 °C 16,7 °C 11,3 km/h (2 Bft)
11.04.2018 14:35 16,7 °C 40 % 1002,2 hPa 0,0 mm 8,6 km/h (2 Bft) O-NO 57 ° 1 min 0,000 mm 5,0 UV-I 786 W/m² 3,0 °C 16,7 °C 16,1 km/h (3 Bft)
11.04.2018 14:36 16,8 °C 40 % 1002,1 hPa 0,0 mm 16,4 km/h (3 Bft) N-NO 23 ° 1 min 0,000 mm 5,0 UV-I 791 W/m² 3,1 °C 16,8 °C 22,5 km/h (4 Bft)
11.04.2018 14:37 16,8 °C 39 % 1002,2 hPa 0,0 mm 13,8 km/h (3 Bft) O-NO 69 ° 1 min 0,000 mm 4,9 UV-I 793 W/m² 2,8 °C 16,8 °C 19,3 km/h (3 Bft)
11.04.2018 14:38 16,8 °C 41 % 1002,1 hPa 0,0 mm 12,9 km/h (3 Bft) O 90 ° 1 min 0,000 mm 4,9 UV-I 786 W/m² 3,5 °C 16,8 °C 19,3 km/h (3 Bft)
11.04.2018 14:39 16,7 °C 41 % 1002,2 hPa 0,0 mm 10,5 km/h (2 Bft) O 92 ° 1 min 0,000 mm 4,8 UV-I 784 W/m² 3,4 °C 16,7 °C 16,1 km/h (3 Bft)
11.04.2018 14:40 16,7 °C 41 % 1002,1 hPa 0,0 mm 16,1 km/h (3 Bft) O 99 ° 1 min 0,000 mm 4,7 UV-I 756 W/m² 3,4 °C 16,7 °C 22,5 km/h (4 Bft)
11.04.2018 14:41 16,7 °C 40 % 1002,1 hPa 0,0 mm 14,3 km/h (3 Bft) NO 46 ° 1 min 0,000 mm 4,7 UV-I 742 W/m² 3,0 °C 16,7 °C 22,5 km/h (4 Bft)
11.04.2018 14:42 16,8 °C 38 % 1002,1 hPa 0,0 mm 12,7 km/h (3 Bft) NO 53 ° 1 min 0,000 mm 4,2 UV-I 742 W/m² 2,4 °C 16,8 °C 20,9 km/h (4 Bft)
11.04.2018 14:43 16,8 °C 37 % 1002,1 hPa 0,0 mm 8,9 km/h (2 Bft) N-NO 25 ° 1 min 0,000 mm 3,9 UV-I 519 W/m² 2,0 °C 16,8 °C 14,5 km/h (3 Bft)
11.04.2018 14:44 16,8 °C 39 % 1002,1 hPa 0,0 mm 12,9 km/h (3 Bft) NO 44 ° 1 min 0,000 mm 4,2 UV-I 519 W/m² 2,8 °C 16,8 °C 20,9 km/h (4 Bft)
11.04.2018 14:45 16,8 °C 36 % 1002,1 hPa 0,0 mm 12,5 km/h (3 Bft) O 84 ° 1 min 0,000 mm 4,2 UV-I 650 W/m² 1,7 °C 16,8 °C 20,9 km/h (4 Bft)
11.04.2018 14:46 16,8 °C 37 % 1002,0 hPa 0,0 mm 11,5 km/h (2 Bft) O 89 ° 1 min 0,000 mm 4,4 UV-I 682 W/m² 2,0 °C 16,8 °C 22,5 km/h (4 Bft)
11.04.2018 14:47 16,8 °C 37 % 1002,0 hPa 0,0 mm 10,9 km/h (2 Bft) O-SO 103 ° 1 min 0,000 mm 4,1 UV-I 682 W/m² 2,0 °C 16,8 °C 17,7 km/h (3 Bft)
11.04.2018 14:48 16,8 °C 38 % 1002,1 hPa 0,0 mm 11,3 km/h (2 Bft) O 90 ° 1 min 0,000 mm 4,4 UV-I 701 W/m² 2,4 °C 16,8 °C 16,1 km/h (3 Bft)
11.04.2018 14:49 16,7 °C 37 % 1002,1 hPa 0,0 mm 13,5 km/h (3 Bft) O-NO 67 ° 1 min 0,000 mm 4,2 UV-I 679 W/m² 1,9 °C 16,7 °C 19,3 km/h (3 Bft)
11.04.2018 14:50 16,7 °C 38 % 1002,0 hPa 0,0 mm 13,1 km/h (3 Bft) NO 40 ° 1 min 0,000 mm 3,9 UV-I 679 W/m² 2,3 °C 16,7 °C 19,3 km/h (3 Bft)
11.04.2018 14:51 16,6 °C 39 % 1002,0 hPa 0,0 mm 13,3 km/h (3 Bft) NO 35 ° 1 min 0,000 mm 3,9 UV-I 591 W/m² 2,6 °C 16,6 °C 20,9 km/h (4 Bft)
11.04.2018 14:52 16,6 °C 38 % 1002,0 hPa 0,0 mm 15,2 km/h (3 Bft) O-NO 61 ° 1 min 0,000 mm 3,7 UV-I 540 W/m² 2,2 °C 16,6 °C 22,5 km/h (4 Bft)
11.04.2018 14:53 16,6 °C 38 % 1002,0 hPa 0,0 mm 14,1 km/h (3 Bft) O-NO 78 ° 1 min 0,000 mm 3,8 UV-I 513 W/m² 2,2 °C 16,6 °C 19,3 km/h (3 Bft)
11.04.2018 14:54 16,5 °C 38 % 1002,0 hPa 0,0 mm 11,3 km/h (2 Bft) O-NO 60 ° 1 min 0,000 mm 3,3 UV-I 483 W/m² 2,1 °C 16,5 °C 16,1 km/h (3 Bft)
11.04.2018 14:55 16,5 °C 39 % 1002,0 hPa 0,0 mm 12,3 km/h (3 Bft) NO 45 ° 1 min 0,000 mm 3,5 UV-I 520 W/m² 2,5 °C 16,5 °C 16,1 km/h (3 Bft)
11.04.2018 14:56 16,4 °C 42 % 1002,0 hPa 0,0 mm 11,3 km/h (2 Bft) O-NO 69 ° 1 min 0,000 mm 3,2 UV-I 475 W/m² 3,5 °C 16,4 °C 17,7 km/h (3 Bft)
11.04.2018 14:57 16,4 °C 41 % 1001,9 hPa 0,0 mm 10,8 km/h (2 Bft) NO 48 ° 1 min 0,000 mm 3,6 UV-I 461 W/m² 3,1 °C 16,4 °C 19,3 km/h (3 Bft)
11.04.2018 14:58 16,4 °C 42 % 1002,0 hPa 0,0 mm 12,0 km/h (2 Bft) N-NO 20 ° 1 min 0,000 mm 3,5 UV-I 461 W/m² 3,5 °C 16,4 °C 16,1 km/h (3 Bft)
11.04.2018 14:59 16,4 °C 41 % 1002,0 hPa 0,0 mm 11,9 km/h (2 Bft) N-NO 31 ° 1 min 0,000 mm 3,4 UV-I 473 W/m² 3,1 °C 16,4 °C 19,3 km/h (3 Bft)
11.04.2018 15:00 16,4 °C 41 % 1001,9 hPa 0,0 mm 12,9 km/h (3 Bft) O-NO 73 ° 1 min 0,000 mm 3,7 UV-I 561 W/m² 3,1 °C 16,4 °C 17,7 km/h (3 Bft)
11.04.2018 15:01 16,4 °C 41 % 1001,9 hPa 0,0 mm 12,3 km/h (3 Bft) O-NO 65 ° 1 min 0,457 mm 3,5 UV-I 534 W/m² 3,1 °C 16,4 °C 17,7 km/h (3 Bft)
11.04.2018 15:02 16,3 °C 40 % 1001,9 hPa 0,0 mm 7,8 km/h (2 Bft) O 101 ° 1 min 0,000 mm 3,6 UV-I 554 W/m² 2,7 °C 16,3 °C 12,9 km/h (3 Bft)
11.04.2018 15:03 16,3 °C 40 % 1002,0 hPa 0,0 mm 5,3 km/h (1 Bft) O-NO 72 ° 1 min 0,000 mm 3,1 UV-I 468 W/m² 2,7 °C 16,3 °C 12,9 km/h (3 Bft)
11.04.2018 15:04 16,3 °C 42 % 1002,0 hPa 0,0 mm 6,1 km/h (2 Bft) O-SO 111 ° 1 min 0,000 mm 3,1 UV-I 413 W/m² 3,4 °C 16,3 °C 9,7 km/h (2 Bft)
11.04.2018 15:05 16,3 °C 38 % 1001,9 hPa 0,0 mm 6,8 km/h (2 Bft) O-NO 76 ° 1 min 0,000 mm 2,8 UV-I 378 W/m² 2,0 °C 16,3 °C 12,9 km/h (3 Bft)
11.04.2018 15:06 16,4 °C 38 % 1002,0 hPa 0,0 mm 10,6 km/h (2 Bft) O 84 ° 1 min 0,000 mm 3,2 UV-I 455 W/m² 2,1 °C 16,4 °C 16,1 km/h (3 Bft)
11.04.2018 15:07 16,4 °C 36 % 1001,9 hPa 0,0 mm 6,1 km/h (2 Bft) NO 36 ° 1 min 0,000 mm 3,3 UV-I 471 W/m² 1,3 °C 16,4 °C 8,0 km/h (2 Bft)
11.04.2018 15:08 16,4 °C 34 % 1001,9 hPa 0,0 mm 9,0 km/h (2 Bft) O-NO 69 ° 1 min 0,000 mm 3,0 UV-I 471 W/m² 0,5 °C 16,4 °C 14,5 km/h (3 Bft)
11.04.2018 15:09 16,5 °C 36 % 1001,9 hPa 0,0 mm 8,2 km/h (2 Bft) O-NO 65 ° 1 min 0,000 mm 3,3 UV-I 483 W/m² 1,4 °C 16,5 °C 12,9 km/h (3 Bft)
11.04.2018 15:10 16,6 °C 39 % 1001,9 hPa 0,0 mm 9,4 km/h (2 Bft) O-NO 58 ° 1 min 0,000 mm 3,3 UV-I 462 W/m² 2,6 °C 16,6 °C 16,1 km/h (3 Bft)
11.04.2018 15:11 16,7 °C 36 % 1001,9 hPa 0,0 mm 12,4 km/h (3 Bft) O 85 ° 1 min 0,000 mm 3,1 UV-I 441 W/m² 1,6 °C 16,7 °C 17,7 km/h (3 Bft)
11.04.2018 15:12 16,7 °C 33 % 1001,9 hPa 0,0 mm 6,0 km/h (2 Bft) SO 124 ° 1 min 0,000 mm 2,8 UV-I 413 W/m² 0,4 °C 16,7 °C 9,7 km/h (2 Bft)
11.04.2018 15:13 16,7 °C 34 % 1001,9 hPa 0,0 mm 4,0 km/h (1 Bft) O-NO 69 ° 1 min 0,000 mm 2,7 UV-I 338 W/m² 0,8 °C 16,7 °C 6,4 km/h (2 Bft)
11.04.2018 15:14 16,7 °C 38 % 1001,9 hPa 0,0 mm 7,6 km/h (2 Bft) O 81 ° 1 min 0,000 mm 2,7 UV-I 350 W/m² 2,3 °C 16,7 °C 11,3 km/h (2 Bft)
11.04.2018 15:15 16,7 °C 39 % 1001,9 hPa 0,0 mm 5,9 km/h (2 Bft) NO 34 ° 1 min 0,000 mm 2,7 UV-I 359 W/m² 2,7 °C 16,7 °C 9,7 km/h (2 Bft)
11.04.2018 15:16 16,7 °C 35 % 1001,8 hPa 0,0 mm 5,0 km/h (1 Bft) O-NO 70 ° 0 min 0,000 mm 2,5 UV-I 276 W/m² 1,2 °C 16,7 °C 8,0 km/h (2 Bft)
11.04.2018 15:17 16,7 °C 36 % 1001,9 hPa 0,0 mm 5,9 km/h (2 Bft) NO 51 ° 0 min 0,000 mm 2,3 UV-I 272 W/m² 1,6 °C 16,7 °C 11,3 km/h (2 Bft)
11.04.2018 15:18 16,7 °C 36 % 1001,8 hPa 0,0 mm 9,2 km/h (2 Bft) O-NO 65 ° 0 min 0,000 mm 2,3 UV-I 269 W/m² 1,6 °C 16,7 °C 17,7 km/h (3 Bft)
11.04.2018 15:19 16,6 °C 36 % 1001,8 hPa 0,0 mm 8,0 km/h (2 Bft) NO 55 ° 1 min 0,000 mm 2,4 UV-I 301 W/m² 1,5 °C 16,6 °C 14,5 km/h (3 Bft)
11.04.2018 15:20 16,6 °C 35 % 1001,8 hPa 0,0 mm 8,2 km/h (2 Bft) O-NO 61 ° 1 min 0,000 mm 2,5 UV-I 334 W/m² 1,1 °C 16,6 °C 12,9 km/h (3 Bft)
11.04.2018 15:21 16,6 °C 34 % 1001,8 hPa 0,0 mm 6,3 km/h (2 Bft) O 95 ° 1 min 0,000 mm 2,7 UV-I 388 W/m² 0,7 °C 16,6 °C 12,9 km/h (3 Bft)
11.04.2018 15:22 16,5 °C 34 % 1001,7 hPa 0,0 mm 6,2 km/h (2 Bft) NO 38 ° 1 min 0,000 mm 2,7 UV-I 350 W/m² 0,6 °C 16,5 °C 11,3 km/h (2 Bft)
11.04.2018 15:23 16,5 °C 34 % 1001,7 hPa 0,0 mm 6,0 km/h (2 Bft) NO 52 ° 1 min 0,000 mm 3,3 UV-I 350 W/m² 0,6 °C 16,5 °C 9,7 km/h (2 Bft)
11.04.2018 15:24 16,6 °C 35 % 1001,7 hPa 0,0 mm 3,5 km/h (1 Bft) O-NO 57 ° 1 min 0,000 mm 3,4 UV-I 559 W/m² 1,1 °C 16,6 °C 6,4 km/h (2 Bft)
11.04.2018 15:25 16,6 °C 37 % 1001,7 hPa 0,0 mm 5,6 km/h (1 Bft) NO 38 ° 1 min 0,000 mm 3,7 UV-I 610 W/m² 1,9 °C 16,6 °C 9,7 km/h (2 Bft)
11.04.2018 15:26 16,8 °C 36 % 1001,7 hPa 0,0 mm 5,8 km/h (2 Bft) NO 40 ° 1 min 0,000 mm 3,2 UV-I 610 W/m² 1,7 °C 16,8 °C 8,0 km/h (2 Bft)
11.04.2018 15:27 16,9 °C 35 % 1001,7 hPa 0,0 mm 9,2 km/h (2 Bft) NO 50 ° 1 min 0,000 mm 3,6 UV-I 610 W/m² 1,3 °C 16,9 °C 14,5 km/h (3 Bft)
11.04.2018 15:28 17,0 °C 35 % 1001,7 hPa 0,0 mm 7,5 km/h (2 Bft) NO 38 ° 1 min 0,000 mm 3,7 UV-I 733 W/m² 1,4 °C 17,0 °C 14,5 km/h (3 Bft)
11.04.2018 15:29 17,1 °C 36 % 1001,7 hPa 0,0 mm 8,0 km/h (2 Bft) N-NO 30 ° 1 min 0,000 mm 4,1 UV-I 744 W/m² 1,9 °C 17,1 °C 16,1 km/h (3 Bft)
11.04.2018 15:30 17,2 °C 36 % 1001,7 hPa 0,0 mm 11,9 km/h (2 Bft) O-NO 69 ° 1 min 0,000 mm 3,8 UV-I 682 W/m² 2,0 °C 17,2 °C 16,1 km/h (3 Bft)
11.04.2018 15:31 17,3 °C 34 % 1001,6 hPa 0,0 mm 8,3 km/h (2 Bft) NO 49 ° 1 min 0,000 mm 3,8 UV-I 682 W/m² 1,3 °C 17,3 °C 11,3 km/h (2 Bft)
11.04.2018 15:32 17,2 °C 35 % 1001,7 hPa 0,0 mm 7,4 km/h (2 Bft) O-NO 59 ° 1 min 0,000 mm 3,4 UV-I 682 W/m² 1,6 °C 17,2 °C 11,3 km/h (2 Bft)
11.04.2018 15:33 17,3 °C 35 % 1001,7 hPa 0,0 mm 5,5 km/h (1 Bft) NO 52 ° 1 min 0,000 mm 3,0 UV-I 438 W/m² 1,7 °C 17,3 °C 8,0 km/h (2 Bft)
11.04.2018 15:34 17,3 °C 35 % 1001,7 hPa 0,0 mm 5,1 km/h (1 Bft) O 82 ° 1 min 0,000 mm 3,8 UV-I 635 W/m² 1,7 °C 17,3 °C 8,0 km/h (2 Bft)
11.04.2018 15:35 17,3 °C 36 % 1001,7 hPa 0,0 mm 8,7 km/h (2 Bft) NO 34 ° 1 min 0,000 mm 3,8 UV-I 613 W/m² 2,1 °C 17,3 °C 12,9 km/h (3 Bft)
11.04.2018 15:36 17,3 °C 36 % 1001,7 hPa 0,0 mm 10,2 km/h (2 Bft) N-NO 26 ° 1 min 0,000 mm 3,7 UV-I 613 W/m² 2,1 °C 17,3 °C 12,9 km/h (3 Bft)
11.04.2018 15:37 17,2 °C 36 % 1001,7 hPa 0,0 mm 4,5 km/h (1 Bft) O-NO 59 ° 1 min 0,000 mm 3,7 UV-I 631 W/m² 2,0 °C 17,2 °C 8,0 km/h (2 Bft)
11.04.2018 15:38 17,2 °C 38 % 1001,7 hPa 0,0 mm 4,0 km/h (1 Bft) NO 49 ° 1 min 0,000 mm 3,9 UV-I 670 W/m² 2,8 °C 17,2 °C 8,0 km/h (2 Bft)
11.04.2018 15:39 17,2 °C 37 % 1001,7 hPa 0,0 mm 11,9 km/h (2 Bft) O-NO 59 ° 1 min 0,000 mm 4,0 UV-I 715 W/m² 2,4 °C 17,2 °C 14,5 km/h (3 Bft)
11.04.2018 15:40 17,2 °C 37 % 1001,7 hPa 0,0 mm 10,6 km/h (2 Bft) O-NO 59 ° 1 min 0,000 mm 3,7 UV-I 715 W/m² 2,4 °C 17,2 °C 17,7 km/h (3 Bft)
11.04.2018 15:41 17,1 °C 37 % 1001,7 hPa 0,0 mm 11,8 km/h (2 Bft) O-SO 103 ° 1 min 0,000 mm 4,2 UV-I 756 W/m² 2,3 °C 17,1 °C 17,7 km/h (3 Bft)
11.04.2018 15:42 17,1 °C 37 % 1001,6 hPa 0,0 mm 8,8 km/h (2 Bft) NO 42 ° 1 min 0,000 mm 4,2 UV-I 766 W/m² 2,3 °C 17,1 °C 14,5 km/h (3 Bft)
11.04.2018 15:43 17,2 °C 38 % 1001,6 hPa 0,0 mm 11,9 km/h (2 Bft) O 96 ° 1 min 0,000 mm 4,2 UV-I 759 W/m² 2,8 °C 17,2 °C 17,7 km/h (3 Bft)
11.04.2018 15:44 17,3 °C 41 % 1001,6 hPa 0,0 mm 11,2 km/h (2 Bft) O-SO 117 ° 1 min 0,000 mm 4,1 UV-I 745 W/m² 3,9 °C 17,3 °C 16,1 km/h (3 Bft)
11.04.2018 15:45 17,3 °C 39 % 1001,6 hPa 0,0 mm 15,8 km/h (3 Bft) N-NO 22 ° 1 min 0,000 mm 4,1 UV-I 738 W/m² 3,2 °C 17,3 °C 22,5 km/h (4 Bft)
11.04.2018 15:46 17,3 °C 36 % 1001,6 hPa 0,0 mm 12,6 km/h (3 Bft) NO 50 ° 1 min 0,000 mm 4,1 UV-I 733 W/m² 2,1 °C 17,3 °C 19,3 km/h (3 Bft)
11.04.2018 15:47 17,4 °C 36 % 1001,6 hPa 0,0 mm 10,8 km/h (2 Bft) NO 56 ° 1 min 0,000 mm 4,0 UV-I 728 W/m² 2,2 °C 17,4 °C 19,3 km/h (3 Bft)
11.04.2018 15:48 17,4 °C 35 % 1001,6 hPa 0,0 mm 8,2 km/h (2 Bft) NO 47 ° 1 min 0,000 mm 4,0 UV-I 712 W/m² 1,8 °C 17,4 °C 14,5 km/h (3 Bft)
11.04.2018 15:49 17,5 °C 36 % 1001,6 hPa 0,0 mm 6,8 km/h (2 Bft) O-NO 78 ° 1 min 0,000 mm 4,0 UV-I 712 W/m² 2,3 °C 17,5 °C 12,9 km/h (3 Bft)
11.04.2018 15:50 17,6 °C 38 % 1001,6 hPa 0,0 mm 9,5 km/h (2 Bft) O-NO 75 ° 1 min 0,000 mm 3,9 UV-I 701 W/m² 3,1 °C 17,6 °C 19,3 km/h (3 Bft)
11.04.2018 15:51 17,5 °C 36 % 1001,6 hPa 0,0 mm 9,3 km/h (2 Bft) O-NO 68 ° 1 min 0,000 mm 3,9 UV-I 668 W/m² 2,3 °C 17,5 °C 16,1 km/h (3 Bft)
11.04.2018 15:52 17,4 °C 37 % 1001,6 hPa 0,0 mm 8,7 km/h (2 Bft) N-NO 24 ° 1 min 0,000 mm 3,8 UV-I 666 W/m² 2,6 °C 17,4 °C 12,9 km/h (3 Bft)
11.04.2018 15:53 17,4 °C 39 % 1001,6 hPa 0,0 mm 10,5 km/h (2 Bft) N-NO 27 ° 1 min 0,000 mm 3,8 UV-I 680 W/m² 3,3 °C 17,4 °C 17,7 km/h (3 Bft)
11.04.2018 15:54 17,3 °C 37 % 1001,6 hPa 0,0 mm 4,7 km/h (1 Bft) O 101 ° 1 min 0,000 mm 3,7 UV-I 668 W/m² 2,5 °C 17,3 °C 9,7 km/h (2 Bft)
11.04.2018 15:55 17,3 °C 38 % 1001,6 hPa 0,0 mm 6,0 km/h (2 Bft) O 82 ° 1 min 0,000 mm 3,2 UV-I 666 W/m² 2,9 °C 17,3 °C 9,7 km/h (2 Bft)
11.04.2018 15:56 17,2 °C 38 % 1001,5 hPa 0,0 mm 3,5 km/h (1 Bft) O 86 ° 1 min 0,000 mm 3,7 UV-I 684 W/m² 2,8 °C 17,2 °C 12,9 km/h (3 Bft)
11.04.2018 15:57 17,2 °C 41 % 1001,5 hPa 0,0 mm 9,7 km/h (2 Bft) N-NO 31 ° 1 min 0,000 mm 2,7 UV-I 684 W/m² 3,8 °C 17,2 °C 11,3 km/h (2 Bft)
11.04.2018 15:58 17,3 °C 39 % 1001,5 hPa 0,0 mm 8,2 km/h (2 Bft) O-NO 74 ° 1 min 0,000 mm 3,5 UV-I 684 W/m² 3,2 °C 17,3 °C 14,5 km/h (3 Bft)
11.04.2018 15:59 17,3 °C 38 % 1001,5 hPa 0,0 mm 12,7 km/h (3 Bft) O 96 ° 1 min 0,000 mm 3,2 UV-I 563 W/m² 2,9 °C 17,3 °C 16,1 km/h (3 Bft)
11.04.2018 16:00 17,3 °C 38 % 1001,5 hPa 0,0 mm 10,3 km/h (2 Bft) O-SO 102 ° 1 min 0,000 mm 3,4 UV-I 615 W/m² 2,9 °C 17,3 °C 16,1 km/h (3 Bft)
11.04.2018 16:01 17,3 °C 39 % 1001,5 hPa 0,0 mm 5,6 km/h (1 Bft) O-NO 61 ° 1 min 0,381 mm 3,2 UV-I 615 W/m² 3,2 °C 17,3 °C 9,7 km/h (2 Bft)
11.04.2018 16:02 17,3 °C 38 % 1001,5 hPa 0,0 mm 11,7 km/h (2 Bft) O 86 ° 1 min 0,000 mm 3,4 UV-I 585 W/m² 2,9 °C 17,3 °C 14,5 km/h (3 Bft)
11.04.2018 16:03 17,2 °C 36 % 1001,5 hPa 0,0 mm 2,1 km/h (1 Bft) O 90 ° 0 min 0,000 mm 2,4 UV-I 262 W/m² 2,0 °C 17,2 °C 6,4 km/h (2 Bft)
11.04.2018 16:04 17,1 °C 39 % 1001,4 hPa 0,0 mm 9,0 km/h (2 Bft) O-NO 75 ° 0 min 0,000 mm 2,1 UV-I 232 W/m² 3,0 °C 17,1 °C 16,1 km/h (3 Bft)
11.04.2018 16:05 17,1 °C 36 % 1001,4 hPa 0,0 mm 6,1 km/h (2 Bft) NO 56 ° 0 min 0,000 mm 2,0 UV-I 221 W/m² 1,9 °C 17,1 °C 12,9 km/h (3 Bft)
11.04.2018 16:06 17,1 °C 38 % 1001,5 hPa 0,0 mm 12,7 km/h (3 Bft) O 83 ° 0 min 0,000 mm 2,0 UV-I 229 W/m² 2,7 °C 17,1 °C 19,3 km/h (3 Bft)
11.04.2018 16:07 17,1 °C 33 % 1001,5 hPa 0,0 mm 9,1 km/h (2 Bft) O-NO 67 ° 0 min 0,000 mm 2,1 UV-I 272 W/m² 0,7 °C 17,1 °C 11,3 km/h (2 Bft)
11.04.2018 16:08 17,0 °C 33 % 1001,5 hPa 0,0 mm 8,5 km/h (2 Bft) O-NO 61 ° 0 min 0,000 mm 2,0 UV-I 237 W/m² 0,6 °C 17,0 °C 14,5 km/h (3 Bft)
11.04.2018 16:09 16,9 °C 34 % 1001,5 hPa 0,0 mm 6,7 km/h (2 Bft) NO 52 ° 0 min 0,000 mm 2,1 UV-I 255 W/m² 0,9 °C 16,9 °C 14,5 km/h (3 Bft)
11.04.2018 16:10 16,9 °C 34 % 1001,5 hPa 0,0 mm 9,1 km/h (2 Bft) O-NO 57 ° 0 min 0,000 mm 1,9 UV-I 236 W/m² 0,9 °C 16,9 °C 12,9 km/h (3 Bft)
11.04.2018 16:11 17,0 °C 34 % 1001,4 hPa 0,0 mm 7,4 km/h (2 Bft) O-NO 71 ° 0 min 0,000 mm 1,9 UV-I 232 W/m² 1,0 °C 17,0 °C 14,5 km/h (3 Bft)
11.04.2018 16:12 17,1 °C 35 % 1001,4 hPa 0,0 mm 5,8 km/h (2 Bft) O 91 ° 0 min 0,000 mm 1,9 UV-I 232 W/m² 1,5 °C 17,1 °C 9,7 km/h (2 Bft)
11.04.2018 16:13 17,0 °C 36 % 1001,4 hPa 0,0 mm 8,0 km/h (2 Bft) O-SO 113 ° 0 min 0,000 mm 1,8 UV-I 234 W/m² 1,8 °C 17,0 °C 11,3 km/h (2 Bft)
11.04.2018 16:14 16,9 °C 35 % 1001,5 hPa 0,0 mm 5,6 km/h (1 Bft) O 89 ° 0 min 0,000 mm 1,8 UV-I 236 W/m² 1,3 °C 16,9 °C 11,3 km/h (2 Bft)
11.04.2018 16:15 16,9 °C 34 % 1001,4 hPa 0,0 mm 6,2 km/h (2 Bft) O 85 ° 0 min 0,000 mm 1,8 UV-I 241 W/m² 0,9 °C 16,9 °C 8,0 km/h (2 Bft)
11.04.2018 16:16 16,9 °C 34 % 1001,4 hPa 0,0 mm 9,5 km/h (2 Bft) O 87 ° 0 min 0,000 mm 1,8 UV-I 244 W/m² 0,9 °C 16,9 °C 14,5 km/h (3 Bft)
11.04.2018 16:17 16,8 °C 32 % 1001,4 hPa 0,0 mm 8,8 km/h (2 Bft) O-NO 62 ° 0 min 0,000 mm 1,8 UV-I 250 W/m² 0,0 °C 16,8 °C 12,9 km/h (3 Bft)
11.04.2018 16:18 16,8 °C 35 % 1001,4 hPa 0,0 mm 6,2 km/h (2 Bft) O 86 ° 0 min 0,000 mm 1,9 UV-I 260 W/m² 1,3 °C 16,8 °C 8,0 km/h (2 Bft)
11.04.2018 16:19 16,8 °C 39 % 1001,4 hPa 0,0 mm 4,7 km/h (1 Bft) O-NO 64 ° 0 min 0,000 mm 1,9 UV-I 276 W/m² 2,8 °C 16,8 °C 8,0 km/h (2 Bft)
11.04.2018 16:20 16,9 °C 40 % 1001,4 hPa 0,0 mm 6,4 km/h (2 Bft) O 86 ° 1 min 0,000 mm 2,1 UV-I 330 W/m² 3,2 °C 16,9 °C 9,7 km/h (2 Bft)
11.04.2018 16:21 16,9 °C 41 % 1001,4 hPa 0,0 mm 6,4 km/h (2 Bft) NO 56 ° 1 min 0,000 mm 2,3 UV-I 418 W/m² 3,6 °C 16,9 °C 11,3 km/h (2 Bft)
11.04.2018 16:22 16,9 °C 42 % 1001,4 hPa 0,0 mm 8,7 km/h (2 Bft) N-NO 12 ° 1 min 0,000 mm 3,0 UV-I 418 W/m² 3,9 °C 16,9 °C 12,9 km/h (3 Bft)
11.04.2018 16:23 17,1 °C 43 % 1001,4 hPa 0,0 mm 7,8 km/h (2 Bft) NO 55 ° 1 min 0,000 mm 2,9 UV-I 577 W/m² 4,4 °C 17,1 °C 14,5 km/h (3 Bft)
11.04.2018 16:24 17,0 °C 42 % 1001,4 hPa 0,0 mm 9,8 km/h (2 Bft) O-NO 59 ° 1 min 0,000 mm 2,7 UV-I 568 W/m² 4,0 °C 17,0 °C 14,5 km/h (3 Bft)
11.04.2018 16:25 17,0 °C 44 % 1001,4 hPa 0,0 mm 12,4 km/h (3 Bft) NO 54 ° 1 min 0,000 mm 2,4 UV-I 568 W/m² 4,7 °C 17,0 °C 19,3 km/h (3 Bft)
11.04.2018 16:26 16,9 °C 45 % 1001,4 hPa 0,0 mm 7,3 km/h (2 Bft) NO 44 ° 1 min 0,000 mm 2,7 UV-I 490 W/m² 4,9 °C 16,9 °C 11,3 km/h (2 Bft)
11.04.2018 16:27 17,0 °C 46 % 1001,4 hPa 0,0 mm 3,6 km/h (1 Bft) O 84 ° 1 min 0,000 mm 2,8 UV-I 455 W/m² 5,3 °C 17,0 °C 8,0 km/h (2 Bft)
11.04.2018 16:28 17,0 °C 45 % 1001,4 hPa 0,0 mm 4,8 km/h (1 Bft) O 95 ° 1 min 0,000 mm 2,9 UV-I 471 W/m² 5,0 °C 17,0 °C 9,7 km/h (2 Bft)
11.04.2018 16:29 17,1 °C 48 % 1001,3 hPa 0,0 mm 10,1 km/h (2 Bft) NO 36 ° 1 min 0,000 mm 2,7 UV-I 448 W/m² 6,0 °C 17,1 °C 14,5 km/h (3 Bft)
11.04.2018 16:30 17,1 °C 44 % 1001,4 hPa 0,0 mm 4,2 km/h (1 Bft) O 96 ° 1 min 0,000 mm 2,5 UV-I 485 W/m² 4,8 °C 17,1 °C 11,3 km/h (2 Bft)
11.04.2018 16:31 16,9 °C 44 % 1001,3 hPa 0,0 mm 9,0 km/h (2 Bft) O 93 ° 1 min 0,000 mm 2,6 UV-I 464 W/m² 4,6 °C 16,9 °C 16,1 km/h (3 Bft)
11.04.2018 16:32 16,9 °C 41 % 1001,3 hPa 0,0 mm 5,4 km/h (1 Bft) NO 53 ° 1 min 0,000 mm 2,4 UV-I 336 W/m² 3,6 °C 16,9 °C 11,3 km/h (2 Bft)
11.04.2018 16:33 17,0 °C 39 % 1001,2 hPa 0,0 mm 10,9 km/h (2 Bft) O-NO 61 ° 1 min 0,000 mm 2,2 UV-I 348 W/m² 2,9 °C 17,0 °C 19,3 km/h (3 Bft)
11.04.2018 16:34 17,1 °C 38 % 1001,2 hPa 0,0 mm 12,1 km/h (2 Bft) O-NO 68 ° 1 min 0,000 mm 2,2 UV-I 350 W/m² 2,7 °C 17,1 °C 20,9 km/h (4 Bft)
11.04.2018 16:35 17,2 °C 41 % 1001,3 hPa 0,0 mm 14,3 km/h (3 Bft) O-NO 58 ° 1 min 0,000 mm 2,2 UV-I 330 W/m² 3,8 °C 17,2 °C 22,5 km/h (4 Bft)
11.04.2018 16:36 17,3 °C 35 % 1001,2 hPa 0,0 mm 16,2 km/h (3 Bft) O-SO 113 ° 1 min 0,000 mm 2,1 UV-I 339 W/m² 1,7 °C 17,3 °C 22,5 km/h (4 Bft)
11.04.2018 16:37 17,2 °C 33 % 1001,3 hPa 0,0 mm 17,1 km/h (3 Bft) NO 49 ° 1 min 0,000 mm 2,0 UV-I 294 W/m² 0,8 °C 17,2 °C 20,9 km/h (4 Bft)
11.04.2018 16:38 17,1 °C 33 % 1001,3 hPa 0,0 mm 13,3 km/h (3 Bft) O-SO 103 ° 0 min 0,000 mm 1,9 UV-I 220 W/m² 0,7 °C 17,1 °C 20,9 km/h (4 Bft)
11.04.2018 16:39 17,0 °C 34 % 1001,3 hPa 0,0 mm 11,9 km/h (2 Bft) NO 55 ° 0 min 0,000 mm 1,8 UV-I 255 W/m² 1,0 °C 17,0 °C 16,1 km/h (3 Bft)
11.04.2018 16:40 16,9 °C 35 % 1001,3 hPa 0,0 mm 12,2 km/h (2 Bft) O 92 ° 0 min 0,000 mm 1,7 UV-I 202 W/m² 1,3 °C 16,9 °C 16,1 km/h (3 Bft)
11.04.2018 16:41 16,9 °C 37 % 1001,4 hPa 0,0 mm 8,0 km/h (2 Bft) O 88 ° 0 min 0,000 mm 1,9 UV-I 278 W/m² 2,1 °C 16,9 °C 16,1 km/h (3 Bft)
11.04.2018 16:42 16,8 °C 34 % 1001,4 hPa 0,0 mm 9,1 km/h (2 Bft) O 100 ° 0 min 0,000 mm 1,8 UV-I 283 W/m² 0,9 °C 16,8 °C 14,5 km/h (3 Bft)
11.04.2018 16:43 16,7 °C 33 % 1001,3 hPa 0,0 mm 7,6 km/h (2 Bft) O-SO 102 ° 0 min 0,000 mm 1,6 UV-I 241 W/m² 0,4 °C 16,7 °C 14,5 km/h (3 Bft)
11.04.2018 16:44 16,7 °C 34 % 1001,3 hPa 0,0 mm 7,5 km/h (2 Bft) O-NO 69 ° 0 min 0,000 mm 1,8 UV-I 209 W/m² 0,8 °C 16,7 °C 14,5 km/h (3 Bft)
11.04.2018 16:45 16,6 °C 34 % 1001,3 hPa 0,0 mm 11,1 km/h (2 Bft) NO 53 ° 0 min 0,000 mm 1,7 UV-I 234 W/m² 0,7 °C 16,6 °C 17,7 km/h (3 Bft)
11.04.2018 16:46 16,6 °C 34 % 1001,3 hPa 0,0 mm 11,6 km/h (2 Bft) O-NO 75 ° 0 min 0,000 mm 1,8 UV-I 258 W/m² 0,7 °C 16,6 °C 16,1 km/h (3 Bft)
11.04.2018 16:47 16,6 °C 35 % 1001,3 hPa 0,0 mm 11,0 km/h (2 Bft) O-NO 67 ° 0 min 0,000 mm 1,8 UV-I 269 W/m² 1,1 °C 16,6 °C 19,3 km/h (3 Bft)
11.04.2018 16:48 16,6 °C 37 % 1001,3 hPa 0,0 mm 11,6 km/h (2 Bft) O-NO 75 ° 0 min 0,000 mm 1,8 UV-I 244 W/m² 1,9 °C 16,6 °C 17,7 km/h (3 Bft)
11.04.2018 16:49 16,6 °C 36 % 1001,3 hPa 0,0 mm 8,8 km/h (2 Bft) O-NO 61 ° 0 min 0,000 mm 1,7 UV-I 241 W/m² 1,5 °C 16,6 °C 12,9 km/h (3 Bft)
11.04.2018 16:50 16,5 °C 35 % 1001,3 hPa 0,0 mm 9,3 km/h (2 Bft) O-NO 70 ° 0 min 0,000 mm 1,7 UV-I 218 W/m² 1,0 °C 16,5 °C 16,1 km/h (3 Bft)
11.04.2018 16:51 16,4 °C 34 % 1001,3 hPa 0,0 mm 9,7 km/h (2 Bft) O-NO 62 ° 0 min 0,000 mm 1,6 UV-I 223 W/m² 0,5 °C 16,4 °C 14,5 km/h (3 Bft)
11.04.2018 16:52 16,5 °C 34 % 1001,3 hPa 0,0 mm 8,9 km/h (2 Bft) NO 51 ° 0 min 0,000 mm 1,5 UV-I 197 W/m² 0,6 °C 16,5 °C 12,9 km/h (3 Bft)
11.04.2018 16:53 16,5 °C 34 % 1001,3 hPa 0,0 mm 8,8 km/h (2 Bft) NO 55 ° 0 min 0,000 mm 1,5 UV-I 193 W/m² 0,6 °C 16,5 °C 12,9 km/h (3 Bft)
11.04.2018 16:54 16,4 °C 35 % 1001,2 hPa 0,0 mm 9,7 km/h (2 Bft) O 95 ° 0 min 0,000 mm 1,6 UV-I 197 W/m² 0,9 °C 16,4 °C 14,5 km/h (3 Bft)
11.04.2018 16:55 16,5 °C 36 % 1001,2 hPa 0,0 mm 6,0 km/h (2 Bft) NO 49 ° 0 min 0,000 mm 1,6 UV-I 220 W/m² 1,4 °C 16,5 °C 9,7 km/h (2 Bft)
11.04.2018 16:56 16,4 °C 34 % 1001,2 hPa 0,0 mm 5,6 km/h (1 Bft) O-NO 65 ° 0 min 0,000 mm 1,6 UV-I 221 W/m² 0,5 °C 16,4 °C 9,7 km/h (2 Bft)
11.04.2018 16:57 16,4 °C 36 % 1001,2 hPa 0,0 mm 7,0 km/h (2 Bft) O-NO 61 ° 0 min 0,000 mm 1,6 UV-I 206 W/m² 1,3 °C 16,4 °C 12,9 km/h (3 Bft)
11.04.2018 16:58 16,4 °C 35 % 1001,2 hPa 0,0 mm 6,6 km/h (2 Bft) O-SO 113 ° 0 min 0,000 mm 1,5 UV-I 186 W/m² 0,9 °C 16,4 °C 12,9 km/h (3 Bft)
11.04.2018 16:59 16,3 °C 35 % 1001,2 hPa 0,0 mm 3,3 km/h (1 Bft) O-NO 76 ° 0 min 0,000 mm 1,5 UV-I 188 W/m² 0,8 °C 16,3 °C 6,4 km/h (2 Bft)
11.04.2018 17:00 16,3 °C 35 % 1001,2 hPa 0,0 mm 6,4 km/h (2 Bft) O-NO 64 ° 0 min 0,000 mm 1,5 UV-I 181 W/m² 0,8 °C 16,3 °C 12,9 km/h (3 Bft)
11.04.2018 17:01 16,3 °C 34 % 1001,2 hPa 0,0 mm 7,9 km/h (2 Bft) NO 44 ° 0 min 0,228 mm 1,6 UV-I 229 W/m² 0,4 °C 16,3 °C 14,5 km/h (3 Bft)
11.04.2018 17:02 16,3 °C 35 % 1001,2 hPa 0,0 mm 5,9 km/h (2 Bft) O-NO 71 ° 0 min 0,000 mm 1,6 UV-I 220 W/m² 0,8 °C 16,3 °C 11,3 km/h (2 Bft)
11.04.2018 17:03 16,3 °C 34 % 1001,2 hPa 0,0 mm 7,4 km/h (2 Bft) O-SO 117 ° 0 min 0,000 mm 1,6 UV-I 202 W/m² 0,4 °C 16,3 °C 17,7 km/h (3 Bft)
11.04.2018 17:04 16,3 °C 33 % 1001,2 hPa 0,0 mm 5,5 km/h (1 Bft) O-NO 75 ° 0 min 0,000 mm 1,5 UV-I 190 W/m² 0,0 °C 16,3 °C 8,0 km/h (2 Bft)
11.04.2018 17:05 16,3 °C 33 % 1001,2 hPa 0,0 mm 7,3 km/h (2 Bft) NO 56 ° 0 min 0,000 mm 1,4 UV-I 183 W/m² 0,0 °C 16,3 °C 9,7 km/h (2 Bft)
11.04.2018 17:06 16,4 °C 34 % 1001,2 hPa 0,0 mm 7,3 km/h (2 Bft) O-NO 72 ° 0 min 0,000 mm 1,4 UV-I 183 W/m² 0,5 °C 16,4 °C 9,7 km/h (2 Bft)
11.04.2018 17:07 16,4 °C 36 % 1001,2 hPa 0,0 mm 5,2 km/h (1 Bft) O-NO 57 ° 0 min 0,000 mm 1,4 UV-I 186 W/m² 1,3 °C 16,4 °C 11,3 km/h (2 Bft)
11.04.2018 17:08 16,4 °C 32 % 1001,2 hPa 0,0 mm 8,1 km/h (2 Bft) O 85 ° 0 min 0,000 mm 1,4 UV-I 190 W/m² -0,3 °C 16,4 °C 11,3 km/h (2 Bft)
11.04.2018 17:09 16,4 °C 39 % 1001,2 hPa 0,0 mm 7,8 km/h (2 Bft) O-NO 69 ° 0 min 0,000 mm 1,4 UV-I 192 W/m² 2,4 °C 16,4 °C 9,7 km/h (2 Bft)
11.04.2018 17:10 16,4 °C 35 % 1001,3 hPa 0,0 mm 6,4 km/h (2 Bft) O-NO 67 ° 0 min 0,000 mm 1,4 UV-I 202 W/m² 0,9 °C 16,4 °C 9,7 km/h (2 Bft)
11.04.2018 17:11 16,4 °C 33 % 1001,2 hPa 0,0 mm 4,6 km/h (1 Bft) O 80 ° 0 min 0,000 mm 1,5 UV-I 216 W/m² 0,1 °C 16,4 °C 6,4 km/h (2 Bft)
11.04.2018 17:12 16,4 °C 36 % 1001,2 hPa 0,0 mm 4,7 km/h (1 Bft) O-NO 71 ° 0 min 0,000 mm 1,5 UV-I 213 W/m² 1,3 °C 16,4 °C 9,7 km/h (2 Bft)
11.04.2018 17:13 16,4 °C 34 % 1001,2 hPa 0,0 mm 7,4 km/h (2 Bft) O-NO 65 ° 0 min 0,000 mm 1,4 UV-I 195 W/m² 0,5 °C 16,4 °C 9,7 km/h (2 Bft)
11.04.2018 17:14 16,4 °C 36 % 1001,2 hPa 0,0 mm 6,4 km/h (2 Bft) O-NO 74 ° 0 min 0,000 mm 1,4 UV-I 186 W/m² 1,3 °C 16,4 °C 11,3 km/h (2 Bft)
11.04.2018 17:15 16,5 °C 34 % 1001,2 hPa 0,0 mm 11,8 km/h (2 Bft) O-NO 69 ° 0 min 0,000 mm 1,3 UV-I 179 W/m² 0,6 °C 16,5 °C 14,5 km/h (3 Bft)
11.04.2018 17:16 16,4 °C 33 % 1001,2 hPa 0,0 mm 9,8 km/h (2 Bft) O-NO 67 ° 0 min 0,000 mm 1,3 UV-I 178 W/m² 0,1 °C 16,4 °C 14,5 km/h (3 Bft)
11.04.2018 17:17 16,4 °C 35 % 1001,2 hPa 0,0 mm 6,5 km/h (2 Bft) O-NO 73 ° 0 min 0,000 mm 1,3 UV-I 176 W/m² 0,9 °C 16,4 °C 9,7 km/h (2 Bft)
11.04.2018 17:18 16,4 °C 34 % 1001,2 hPa 0,0 mm 9,4 km/h (2 Bft) O-NO 68 ° 0 min 0,000 mm 1,3 UV-I 179 W/m² 0,5 °C 16,4 °C 12,9 km/h (3 Bft)
11.04.2018 17:19 16,3 °C 35 % 1001,2 hPa 0,0 mm 6,4 km/h (2 Bft) O-NO 63 ° 0 min 0,000 mm 1,3 UV-I 186 W/m² 0,8 °C 16,3 °C 12,9 km/h (3 Bft)
11.04.2018 17:20 16,3 °C 36 % 1001,3 hPa 0,0 mm 7,8 km/h (2 Bft) NO 51 ° 0 min 0,000 mm 1,3 UV-I 181 W/m² 1,2 °C 16,3 °C 11,3 km/h (2 Bft)
11.04.2018 17:21 16,3 °C 34 % 1001,3 hPa 0,0 mm 5,5 km/h (1 Bft) O 80 ° 0 min 0,000 mm 1,3 UV-I 179 W/m² 0,4 °C 16,3 °C 8,0 km/h (2 Bft)
11.04.2018 17:22 16,3 °C 34 % 1001,3 hPa 0,0 mm 5,1 km/h (1 Bft) O-NO 66 ° 0 min 0,000 mm 1,3 UV-I 176 W/m² 0,4 °C 16,3 °C 8,0 km/h (2 Bft)
11.04.2018 17:23 16,3 °C 35 % 1001,2 hPa 0,0 mm 6,6 km/h (2 Bft) O-NO 71 ° 0 min 0,000 mm 1,2 UV-I 174 W/m² 0,8 °C 16,3 °C 9,7 km/h (2 Bft)
11.04.2018 17:24 16,3 °C 35 % 1001,3 hPa 0,0 mm 7,9 km/h (2 Bft) O-NO 69 ° 0 min 0,000 mm 1,2 UV-I 172 W/m² 0,8 °C 16,3 °C 12,9 km/h (3 Bft)
11.04.2018 17:25 16,3 °C 36 % 1001,3 hPa 0,0 mm 5,3 km/h (1 Bft) O 81 ° 0 min 0,000 mm 1,2 UV-I 172 W/m² 1,2 °C 16,3 °C 8,0 km/h (2 Bft)
11.04.2018 17:26 16,3 °C 34 % 1001,3 hPa 0,0 mm 3,7 km/h (1 Bft) O-NO 59 ° 0 min 0,000 mm 1,2 UV-I 172 W/m² 0,4 °C 16,3 °C 8,0 km/h (2 Bft)
11.04.2018 17:27 16,3 °C 34 % 1001,3 hPa 0,0 mm 5,2 km/h (1 Bft) O-NO 66 ° 0 min 0,000 mm 1,2 UV-I 172 W/m² 0,4 °C 16,3 °C 6,4 km/h (2 Bft)
11.04.2018 17:28 16,3 °C 35 % 1001,3 hPa 0,0 mm 2,4 km/h (1 Bft) O-NO 69 ° 0 min 0,000 mm 1,2 UV-I 171 W/m² 0,8 °C 16,3 °C 4,8 km/h (1 Bft)
11.04.2018 17:29 16,3 °C 36 % 1001,3 hPa 0,0 mm 3,6 km/h (1 Bft) O-NO 71 ° 0 min 0,000 mm 1,2 UV-I 171 W/m² 1,2 °C 16,3 °C 8,0 km/h (2 Bft)
11.04.2018 17:30 16,3 °C 35 % 1001,3 hPa 0,0 mm 5,8 km/h (2 Bft) O-NO 71 ° 0 min 0,000 mm 1,2 UV-I 172 W/m² 0,8 °C 16,3 °C 8,0 km/h (2 Bft)
11.04.2018 17:31 16,3 °C 35 % 1001,3 hPa 0,0 mm 5,0 km/h (1 Bft) O-NO 70 ° 0 min 0,000 mm 1,2 UV-I 178 W/m² 0,8 °C 16,3 °C 6,4 km/h (2 Bft)
11.04.2018 17:32 16,2 °C 42 % 1001,3 hPa 0,0 mm 3,4 km/h (1 Bft) O 79 ° 0 min 0,000 mm 1,2 UV-I 176 W/m² 3,3 °C 16,2 °C 4,8 km/h (1 Bft)
11.04.2018 17:33 16,2 °C 39 % 1001,3 hPa 0,0 mm 1,6 km/h (1 Bft) O-NO 74 ° 0 min 0,000 mm 1,2 UV-I 179 W/m² 2,2 °C 16,2 °C 4,8 km/h (1 Bft)
11.04.2018 17:34 16,2 °C 35 % 1001,3 hPa 0,0 mm 4,8 km/h (1 Bft) O-NO 65 ° 0 min 0,000 mm 1,2 UV-I 179 W/m² 0,7 °C 16,2 °C 6,4 km/h (2 Bft)
11.04.2018 17:35 16,3 °C 35 % 1001,3 hPa 0,0 mm 2,9 km/h (1 Bft) O-NO 73 ° 0 min 0,000 mm 1,2 UV-I 178 W/m² 0,8 °C 16,3 °C 4,8 km/h (1 Bft)
11.04.2018 17:36 16,3 °C 36 % 1001,3 hPa 0,0 mm 5,4 km/h (1 Bft) O-SO 113 ° 0 min 0,000 mm 1,1 UV-I 174 W/m² 1,2 °C 16,3 °C 9,7 km/h (2 Bft)
11.04.2018 17:37 16,3 °C 35 % 1001,3 hPa 0,0 mm 4,0 km/h (1 Bft) O 96 ° 0 min 0,000 mm 1,1 UV-I 167 W/m² 0,8 °C 16,3 °C 4,8 km/h (1 Bft)
11.04.2018 17:38 16,2 °C 35 % 1001,3 hPa 0,0 mm 1,5 km/h (1 Bft) O-NO 75 ° 0 min 0,000 mm 1,1 UV-I 167 W/m² 0,7 °C 16,2 °C 3,2 km/h (1 Bft)
11.04.2018 17:39 16,2 °C 35 % 1001,3 hPa 0,0 mm 0,0 km/h (0 Bft) O-NO 75 ° 0 min 0,000 mm 1,1 UV-I 167 W/m² 0,7 °C 16,2 °C 0,0 km/h (0 Bft)
11.04.2018 17:40 16,2 °C 39 % 1001,3 hPa 0,0 mm 0,0 km/h (0 Bft) O-NO 75 ° 0 min 0,000 mm 1,1 UV-I 160 W/m² 2,2 °C 16,2 °C 0,0 km/h (0 Bft)
11.04.2018 17:41 16,2 °C 37 % 1001,3 hPa 0,0 mm 0,0 km/h (0 Bft) O-NO 75 ° 0 min 0,000 mm 1,1 UV-I 156 W/m² 1,5 °C 16,2 °C 0,0 km/h (0 Bft)
11.04.2018 17:42 16,2 °C 37 % 1001,3 hPa 0,0 mm 0,8 km/h (0 Bft) O-NO 60 ° 0 min 0,000 mm 1,1 UV-I 155 W/m² 1,5 °C 16,2 °C 3,2 km/h (1 Bft)
11.04.2018 17:43 16,2 °C 36 % 1001,3 hPa 0,0 mm 0,9 km/h (0 Bft) N 5 ° 0 min 0,000 mm 1,1 UV-I 153 W/m² 1,1 °C 16,2 °C 1,6 km/h (1 Bft)
11.04.2018 17:44 16,2 °C 40 % 1001,3 hPa 0,0 mm 2,5 km/h (1 Bft) W-SW 250 ° 0 min 0,000 mm 1,0 UV-I 153 W/m² 2,6 °C 16,2 °C 6,4 km/h (2 Bft)
11.04.2018 17:45 16,2 °C 37 % 1001,3 hPa 0,0 mm 1,6 km/h (1 Bft) W-SW 249 ° 0 min 0,000 mm 1,0 UV-I 156 W/m² 1,5 °C 16,2 °C 4,8 km/h (1 Bft)
11.04.2018 17:46 16,1 °C 37 % 1001,3 hPa 0,0 mm 1,3 km/h (1 Bft) W-SW 249 ° 0 min 0,000 mm 1,0 UV-I 158 W/m² 1,4 °C 16,1 °C 3,2 km/h (1 Bft)
11.04.2018 17:47 16,1 °C 39 % 1001,3 hPa 0,0 mm 2,2 km/h (1 Bft) N-NO 13 ° 0 min 0,000 mm 1,0 UV-I 156 W/m² 2,1 °C 16,1 °C 4,8 km/h (1 Bft)
11.04.2018 17:48 16,2 °C 38 % 1001,3 hPa 0,0 mm 2,8 km/h (1 Bft) O 82 ° 0 min 0,000 mm 1,0 UV-I 151 W/m² 1,9 °C 16,2 °C 3,2 km/h (1 Bft)
11.04.2018 17:49 16,2 °C 39 % 1001,4 hPa 0,0 mm 4,0 km/h (1 Bft) O-NO 59 ° 0 min 0,000 mm 1,0 UV-I 149 W/m² 2,2 °C 16,2 °C 6,4 km/h (2 Bft)
11.04.2018 17:50 16,2 °C 38 % 1001,3 hPa 0,0 mm 4,3 km/h (1 Bft) O-NO 62 ° 0 min 0,000 mm 1,0 UV-I 149 W/m² 1,9 °C 16,2 °C 6,4 km/h (2 Bft)
11.04.2018 17:51 16,2 °C 37 % 1001,4 hPa 0,0 mm 3,4 km/h (1 Bft) O-NO 63 ° 0 min 0,000 mm 1,0 UV-I 151 W/m² 1,5 °C 16,2 °C 6,4 km/h (2 Bft)
11.04.2018 17:52 16,2 °C 39 % 1001,4 hPa 0,0 mm 3,4 km/h (1 Bft) N-NW 342 ° 0 min 0,000 mm 0,9 UV-I 151 W/m² 2,2 °C 16,2 °C 8,0 km/h (2 Bft)
11.04.2018 17:53 16,1 °C 41 % 1001,3 hPa 0,0 mm 6,2 km/h (2 Bft) O 88 ° 0 min 0,000 mm 0,9 UV-I 148 W/m² 2,8 °C 16,1 °C 12,9 km/h (3 Bft)
11.04.2018 17:54 16,0 °C 42 % 1001,3 hPa 0,0 mm 4,9 km/h (1 Bft) O-NO 57 ° 0 min 0,000 mm 0,9 UV-I 153 W/m² 3,1 °C 16,0 °C 9,7 km/h (2 Bft)
11.04.2018 17:55 16,0 °C 40 % 1001,3 hPa 0,0 mm 2,5 km/h (1 Bft) O-NO 59 ° 0 min 0,000 mm 0,9 UV-I 153 W/m² 2,4 °C 16,0 °C 4,8 km/h (1 Bft)
11.04.2018 17:56 15,9 °C 38 % 1001,3 hPa 0,0 mm 6,0 km/h (2 Bft) O 101 ° 0 min 0,000 mm 0,9 UV-I 149 W/m² 1,6 °C 15,9 °C 11,3 km/h (2 Bft)
11.04.2018 17:57 15,9 °C 38 % 1001,3 hPa 0,0 mm 4,8 km/h (1 Bft) O-NO 71 ° 0 min 0,000 mm 0,9 UV-I 149 W/m² 1,6 °C 15,9 °C 6,4 km/h (2 Bft)
11.04.2018 17:58 15,9 °C 38 % 1001,3 hPa 0,0 mm 2,0 km/h (1 Bft) NO 44 ° 0 min 0,000 mm 0,9 UV-I 151 W/m² 1,6 °C 15,9 °C 3,2 km/h (1 Bft)
11.04.2018 17:59 15,9 °C 37 % 1001,3 hPa 0,0 mm 2,2 km/h (1 Bft) O-NO 63 ° 0 min 0,000 mm 0,9 UV-I 153 W/m² 1,2 °C 15,9 °C 4,8 km/h (1 Bft)
11.04.2018 18:00 15,9 °C 38 % 1001,3 hPa 0,0 mm 4,4 km/h (1 Bft) O-NO 63 ° 0 min 0,000 mm 0,9 UV-I 169 W/m² 1,6 °C 15,9 °C 4,8 km/h (1 Bft)
11.04.2018 18:01 15,9 °C 43 % 1001,3 hPa 0,0 mm 4,4 km/h (1 Bft) O-NO 63 ° 0 min 0,153 mm 0,9 UV-I 171 W/m² 3,3 °C 15,9 °C 6,4 km/h (2 Bft)
11.04.2018 18:02 15,9 °C 40 % 1001,3 hPa 0,0 mm 4,8 km/h (1 Bft) O-NO 63 ° 0 min 0,000 mm 0,9 UV-I 167 W/m² 2,3 °C 15,9 °C 6,4 km/h (2 Bft)
11.04.2018 18:03 15,9 °C 38 % 1001,3 hPa 0,0 mm 3,5 km/h (1 Bft) O-NO 64 ° 0 min 0,000 mm 0,8 UV-I 160 W/m² 1,6 °C 15,9 °C 6,4 km/h (2 Bft)
11.04.2018 18:04 15,9 °C 37 % 1001,3 hPa 0,0 mm 2,1 km/h (1 Bft) O 79 ° 0 min 0,000 mm 0,8 UV-I 151 W/m² 1,2 °C 15,9 °C 4,8 km/h (1 Bft)
11.04.2018 18:05 15,9 °C 37 % 1001,3 hPa 0,0 mm 5,5 km/h (1 Bft) NO 45 ° 0 min 0,000 mm 0,8 UV-I 146 W/m² 1,2 °C 15,9 °C 9,7 km/h (2 Bft)
11.04.2018 18:06 15,9 °C 37 % 1001,2 hPa 0,0 mm 3,2 km/h (1 Bft) NO 45 ° 0 min 0,000 mm 0,8 UV-I 142 W/m² 1,2 °C 15,9 °C 4,8 km/h (1 Bft)
11.04.2018 18:07 15,9 °C 38 % 1001,2 hPa 0,0 mm 4,3 km/h (1 Bft) NO 45 ° 0 min 0,000 mm 0,8 UV-I 142 W/m² 1,6 °C 15,9 °C 4,8 km/h (1 Bft)
11.04.2018 18:08 15,9 °C 39 % 1001,2 hPa 0,0 mm 3,6 km/h (1 Bft) O-NO 58 ° 0 min 0,000 mm 0,7 UV-I 139 W/m² 2,0 °C 15,9 °C 4,8 km/h (1 Bft)
11.04.2018 18:09 15,9 °C 41 % 1001,2 hPa 0,0 mm 2,0 km/h (1 Bft) O-NO 58 ° 0 min 0,000 mm 0,7 UV-I 135 W/m² 2,7 °C 15,9 °C 3,2 km/h (1 Bft)
11.04.2018 18:10 15,9 °C 39 % 1001,2 hPa 0,0 mm 3,7 km/h (1 Bft) NO 49 ° 0 min 0,000 mm 0,7 UV-I 132 W/m² 2,0 °C 15,9 °C 6,4 km/h (2 Bft)
11.04.2018 18:11 15,9 °C 42 % 1001,2 hPa 0,0 mm 1,3 km/h (1 Bft) O 94 ° 0 min 0,000 mm 0,7 UV-I 130 W/m² 3,0 °C 15,9 °C 4,8 km/h (1 Bft)
11.04.2018 18:12 15,8 °C 40 % 1001,2 hPa 0,0 mm 2,1 km/h (1 Bft) O 94 ° 0 min 0,000 mm 0,7 UV-I 127 W/m² 2,2 °C 15,8 °C 3,2 km/h (1 Bft)
11.04.2018 18:13 15,7 °C 41 % 1001,2 hPa 0,0 mm 0,2 km/h (0 Bft) O 94 ° 0 min 0,000 mm 0,7 UV-I 125 W/m² 2,5 °C 15,7 °C 1,6 km/h (1 Bft)
11.04.2018 18:14 15,7 °C 39 % 1001,2 hPa 0,0 mm 0,8 km/h (0 Bft) O-SO 112 ° 0 min 0,000 mm 0,7 UV-I 125 W/m² 1,8 °C 15,7 °C 4,8 km/h (1 Bft)
11.04.2018 18:15 15,7 °C 40 % 1001,2 hPa 0,0 mm 3,0 km/h (1 Bft) O 84 ° 0 min 0,000 mm 0,7 UV-I 125 W/m² 2,1 °C 15,7 °C 4,8 km/h (1 Bft)
11.04.2018 18:16 15,7 °C 39 % 1001,2 hPa 0,0 mm 2,3 km/h (1 Bft) O 94 ° 0 min 0,000 mm 0,6 UV-I 123 W/m² 1,8 °C 15,7 °C 4,8 km/h (1 Bft)
11.04.2018 18:17 15,7 °C 40 % 1001,2 hPa 0,0 mm 0,3 km/h (0 Bft) O 94 ° 0 min 0,000 mm 0,6 UV-I 125 W/m² 2,1 °C 15,7 °C 1,6 km/h (1 Bft)
11.04.2018 18:18 15,6 °C 44 % 1001,2 hPa 0,0 mm 2,3 km/h (1 Bft) O-NO 61 ° 0 min 0,000 mm 0,6 UV-I 118 W/m² 3,4 °C 15,6 °C 4,8 km/h (1 Bft)
11.04.2018 18:19 15,4 °C 44 % 1001,2 hPa 0,0 mm 4,4 km/h (1 Bft) O-SO 112 ° 0 min 0,000 mm 0,6 UV-I 116 W/m² 3,2 °C 15,4 °C 6,4 km/h (2 Bft)
11.04.2018 18:20 15,4 °C 42 % 1001,2 hPa 0,0 mm 0,3 km/h (0 Bft) O-SO 112 ° 0 min 0,000 mm 0,6 UV-I 114 W/m² 2,6 °C 15,4 °C 1,6 km/h (1 Bft)
11.04.2018 18:21 15,3 °C 44 % 1001,2 hPa 0,0 mm 1,1 km/h (1 Bft) O-SO 112 ° 0 min 0,000 mm 0,6 UV-I 111 W/m² 3,1 °C 15,3 °C 3,2 km/h (1 Bft)
11.04.2018 18:22 15,2 °C 43 % 1001,2 hPa 0,0 mm 0,4 km/h (0 Bft) O-SO 112 ° 0 min 0,000 mm 0,6 UV-I 107 W/m² 2,7 °C 15,2 °C 3,2 km/h (1 Bft)
11.04.2018 18:23 15,2 °C 44 % 1001,2 hPa 0,0 mm 0,0 km/h (0 Bft) O-SO 112 ° 0 min 0,000 mm 0,5 UV-I 104 W/m² 3,0 °C 15,2 °C 0,0 km/h (0 Bft)
11.04.2018 18:24 15,2 °C 42 % 1001,2 hPa 0,0 mm 2,5 km/h (1 Bft) O-NO 59 ° 0 min 0,000 mm 0,5 UV-I 98 W/m² 2,4 °C 15,2 °C 6,4 km/h (2 Bft)
11.04.2018 18:25 15,2 °C 41 % 1001,2 hPa 0,0 mm 3,8 km/h (1 Bft) O 84 ° 0 min 0,000 mm 0,5 UV-I 97 W/m² 2,0 °C 15,2 °C 6,4 km/h (2 Bft)
11.04.2018 18:26 15,2 °C 45 % 1001,1 hPa 0,0 mm 4,0 km/h (1 Bft) O 84 ° 0 min 0,000 mm 0,5 UV-I 93 W/m² 3,4 °C 15,2 °C 8,0 km/h (2 Bft)
11.04.2018 18:27 15,2 °C 46 % 1001,2 hPa 0,0 mm 2,7 km/h (1 Bft) O 84 ° 0 min 0,000 mm 0,5 UV-I 91 W/m² 3,7 °C 15,2 °C 4,8 km/h (1 Bft)
11.04.2018 18:28 15,1 °C 45 % 1001,1 hPa 0,0 mm 2,2 km/h (1 Bft) O 84 ° 0 min 0,000 mm 0,5 UV-I 90 W/m² 3,3 °C 15,1 °C 4,8 km/h (1 Bft)
11.04.2018 18:29 15,0 °C 41 % 1001,1 hPa 0,0 mm 3,4 km/h (1 Bft) O 94 ° 0 min 0,000 mm 0,5 UV-I 88 W/m² 1,9 °C 15,0 °C 9,7 km/h (2 Bft)
11.04.2018 18:30 15,0 °C 44 % 1001,2 hPa 0,0 mm 3,9 km/h (1 Bft) O 83 ° 0 min 0,000 mm 0,5 UV-I 84 W/m² 2,9 °C 15,0 °C 9,7 km/h (2 Bft)
11.04.2018 18:31 15,0 °C 45 % 1001,1 hPa 0,0 mm 7,8 km/h (2 Bft) O-NO 71 ° 0 min 0,000 mm 0,0 UV-I 81 W/m² 3,2 °C 15,0 °C 12,9 km/h (3 Bft)
11.04.2018 18:32 14,9 °C 45 % 1001,2 hPa 0,0 mm 6,1 km/h (2 Bft) O-NO 76 ° 0 min 0,000 mm 0,0 UV-I 79 W/m² 3,1 °C 14,9 °C 8,0 km/h (2 Bft)
11.04.2018 18:33 14,8 °C 44 % 1001,2 hPa 0,0 mm 2,0 km/h (1 Bft) O-NO 76 ° 0 min 0,000 mm 0,0 UV-I 77 W/m² 2,7 °C 14,8 °C 3,2 km/h (1 Bft)
11.04.2018 18:34 14,8 °C 44 % 1001,1 hPa 0,0 mm 0,0 km/h (0 Bft) O-NO 76 ° 0 min 0,000 mm 0,0 UV-I 74 W/m² 2,7 °C 14,8 °C 0,0 km/h (0 Bft)
11.04.2018 18:35 14,7 °C 42 % 1001,1 hPa 0,0 mm 0,0 km/h (0 Bft) O-NO 76 ° 0 min 0,000 mm 0,0 UV-I 70 W/m² 1,9 °C 14,7 °C 0,0 km/h (0 Bft)
11.04.2018 18:36 14,7 °C 42 % 1001,1 hPa 0,0 mm 0,3 km/h (0 Bft) O-NO 76 ° 0 min 0,000 mm 0,0 UV-I 69 W/m² 1,9 °C 14,7 °C 1,6 km/h (1 Bft)
11.04.2018 18:37 14,7 °C 42 % 1001,2 hPa 0,0 mm 0,0 km/h (0 Bft) O-NO 76 ° 0 min 0,000 mm 0,0 UV-I 67 W/m² 1,9 °C 14,7 °C 0,0 km/h (0 Bft)
11.04.2018 18:38 14,7 °C 45 % 1001,2 hPa 0,0 mm 0,0 km/h (0 Bft) O-NO 76 ° 0 min 0,000 mm 0,0 UV-I 65 W/m² 2,9 °C 14,7 °C 0,0 km/h (0 Bft)
11.04.2018 18:39 14,7 °C 43 % 1001,1 hPa 0,0 mm 0,0 km/h (0 Bft) O-NO 76 ° 0 min 0,000 mm 0,0 UV-I 63 W/m² 2,3 °C 14,7 °C 0,0 km/h (0 Bft)
11.04.2018 18:40 14,6 °C 44 % 1001,1 hPa 0,0 mm 0,0 km/h (0 Bft) O-NO 76 ° 0 min 0,000 mm 0,0 UV-I 63 W/m² 2,5 °C 14,6 °C 0,0 km/h (0 Bft)
11.04.2018 18:41 14,6 °C 43 % 1001,1 hPa 0,0 mm 0,0 km/h (0 Bft) O-NO 76 ° 0 min 0,000 mm 0,0 UV-I 62 W/m² 2,2 °C 14,6 °C 0,0 km/h (0 Bft)
11.04.2018 18:42 14,6 °C 44 % 1001,1 hPa 0,0 mm 1,0 km/h (0 Bft) O-NO 76 ° 0 min 0,000 mm 0,0 UV-I 60 W/m² 2,5 °C 14,6 °C 1,6 km/h (1 Bft)
11.04.2018 18:43 14,5 °C 43 % 1001,2 hPa 0,0 mm 0,1 km/h (0 Bft) O-NO 76 ° 0 min 0,000 mm 0,0 UV-I 58 W/m² 2,1 °C 14,5 °C 1,6 km/h (1 Bft)
11.04.2018 18:44 14,4 °C 44 % 1001,1 hPa 0,0 mm 0,1 km/h (0 Bft) O-NO 76 ° 0 min 0,000 mm 0,0 UV-I 58 W/m² 2,3 °C 14,4 °C 1,6 km/h (1 Bft)
11.04.2018 18:45 14,4 °C 45 % 1001,1 hPa 0,0 mm 0,1 km/h (0 Bft) O-NO 76 ° 0 min 0,000 mm 0,0 UV-I 56 W/m² 2,6 °C 14,4 °C 1,6 km/h (1 Bft)
11.04.2018 18:46 14,4 °C 46 % 1001,1 hPa 0,0 mm 0,7 km/h (0 Bft) O-NO 76 ° 0 min 0,000 mm 0,0 UV-I 56 W/m² 2,9 °C 14,4 °C 1,6 km/h (1 Bft)
11.04.2018 18:47 14,3 °C 46 % 1001,1 hPa 0,0 mm 1,5 km/h (1 Bft) O-NO 76 ° 0 min 0,000 mm 0,0 UV-I 54 W/m² 2,8 °C 14,3 °C 3,2 km/h (1 Bft)
11.04.2018 18:48 14,3 °C 45 % 1001,1 hPa 0,0 mm 0,1 km/h (0 Bft) O-NO 76 ° 0 min 0,000 mm 0,0 UV-I 53 W/m² 2,5 °C 14,3 °C 1,6 km/h (1 Bft)
11.04.2018 18:49 14,3 °C 46 % 1001,1 hPa 0,0 mm 0,0 km/h (0 Bft) O-NO 76 ° 0 min 0,000 mm 0,0 UV-I 51 W/m² 2,8 °C 14,3 °C 0,0 km/h (0 Bft)
11.04.2018 18:50 14,3 °C 46 % 1001,2 hPa 0,0 mm 0,7 km/h (0 Bft) O-NO 76 ° 0 min 0,000 mm 0,0 UV-I 51 W/m² 2,8 °C 14,3 °C 3,2 km/h (1 Bft)
11.04.2018 18:51 14,3 °C 46 % 1001,1 hPa 0,0 mm 0,3 km/h (0 Bft) O-NO 76 ° 0 min 0,000 mm 0,0 UV-I 49 W/m² 2,8 °C 14,3 °C 1,6 km/h (1 Bft)
11.04.2018 18:52 14,2 °C 46 % 1001,1 hPa 0,0 mm 0,2 km/h (0 Bft) O-NO 76 ° 0 min 0,000 mm 0,0 UV-I 49 W/m² 2,8 °C 14,2 °C 1,6 km/h (1 Bft)
11.04.2018 18:53 14,2 °C 46 % 1001,0 hPa 0,0 mm 0,0 km/h (0 Bft) O-NO 76 ° 0 min 0,000 mm 0,0 UV-I 47 W/m² 2,8 °C 14,2 °C 0,0 km/h (0 Bft)
11.04.2018 18:54 14,2 °C 47 % 1001,1 hPa 0,0 mm 0,0 km/h (0 Bft) O-NO 76 ° 0 min 0,000 mm 0,0 UV-I 47 W/m² 3,1 °C 14,2 °C 0,0 km/h (0 Bft)
11.04.2018 18:55 14,1 °C 48 % 1001,1 hPa 0,0 mm 0,5 km/h (0 Bft) O-NO 76 ° 0 min 0,000 mm 0,0 UV-I 46 W/m² 3,3 °C 14,1 °C 1,6 km/h (1 Bft)
11.04.2018 18:56 14,1 °C 47 % 1001,1 hPa 0,0 mm 0,3 km/h (0 Bft) O-NO 76 ° 0 min 0,000 mm 0,0 UV-I 46 W/m² 3,0 °C 14,1 °C 1,6 km/h (1 Bft)
11.04.2018 18:57 14,1 °C 47 % 1001,1 hPa 0,0 mm 0,0 km/h (0 Bft) O-NO 76 ° 0 min 0,000 mm 0,0 UV-I 44 W/m² 3,0 °C 14,1 °C 0,0 km/h (0 Bft)
11.04.2018 18:58 14,1 °C 46 % 1001,0 hPa 0,0 mm 1,3 km/h (1 Bft) O-NO 76 ° 0 min 0,000 mm 0,0 UV-I 42 W/m² 2,7 °C 14,1 °C 3,2 km/h (1 Bft)
11.04.2018 18:59 14,0 °C 47 % 1001,0 hPa 0,0 mm 2,1 km/h (1 Bft) O-NO 76 ° 0 min 0,000 mm 0,0 UV-I 40 W/m² 2,9 °C 14,0 °C 3,2 km/h (1 Bft)
11.04.2018 19:00 14,0 °C 47 % 1001,0 hPa 0,0 mm 1,9 km/h (1 Bft) O-NO 76 ° 0 min 0,076 mm 0,0 UV-I 40 W/m² 2,9 °C 14,0 °C 3,2 km/h (1 Bft)
11.04.2018 19:01 14,0 °C 44 % 1001,0 hPa 0,0 mm 0,6 km/h (0 Bft) O-NO 76 ° 0 min 0,000 mm 0,0 UV-I 39 W/m² 1,9 °C 14,0 °C 1,6 km/h (1 Bft)
11.04.2018 19:02 14,0 °C 47 % 1001,1 hPa 0,0 mm 1,5 km/h (1 Bft) O-NO 76 ° 0 min 0,000 mm 0,0 UV-I 39 W/m² 2,9 °C 14,0 °C 3,2 km/h (1 Bft)
11.04.2018 19:03 13,9 °C 48 % 1001,0 hPa 0,0 mm 1,7 km/h (1 Bft) O-NO 76 ° 0 min 0,000 mm 0,0 UV-I 37 W/m² 3,1 °C 13,9 °C 3,2 km/h (1 Bft)
11.04.2018 19:04 13,9 °C 46 % 1001,0 hPa 0,0 mm 1,1 km/h (1 Bft) O-NO 76 ° 0 min 0,000 mm 0,0 UV-I 35 W/m² 2,5 °C 13,9 °C 3,2 km/h (1 Bft)
11.04.2018 19:05 13,8 °C 47 % 1001,0 hPa 0,0 mm 1,3 km/h (1 Bft) O-NO 76 ° 0 min 0,000 mm 0,0 UV-I 33 W/m² 2,7 °C 13,8 °C 3,2 km/h (1 Bft)
11.04.2018 19:06 13,8 °C 47 % 1001,0 hPa 0,0 mm 0,4 km/h (0 Bft) O-NO 76 ° 0 min 0,000 mm 0,0 UV-I 32 W/m² 2,7 °C 13,8 °C 1,6 km/h (1 Bft)
11.04.2018 19:07 13,8 °C 48 % 1001,0 hPa 0,0 mm 0,0 km/h (0 Bft) O-NO 76 ° 0 min 0,000 mm 0,0 UV-I 30 W/m² 3,0 °C 13,8 °C 0,0 km/h (0 Bft)
11.04.2018 19:08 13,8 °C 47 % 1001,0 hPa 0,0 mm 0,2 km/h (0 Bft) O-NO 76 ° 0 min 0,000 mm 0,0 UV-I 30 W/m² 2,7 °C 13,8 °C 1,6 km/h (1 Bft)
11.04.2018 19:09 13,8 °C 48 % 1001,0 hPa 0,0 mm 0,0 km/h (0 Bft) O-NO 76 ° 0 min 0,000 mm 0,0 UV-I 28 W/m² 3,0 °C 13,8 °C 0,0 km/h (0 Bft)
11.04.2018 19:10 13,7 °C 48 % 1000,9 hPa 0,0 mm 1,9 km/h (1 Bft) O-NO 76 ° 0 min 0,000 mm 0,0 UV-I 26 W/m² 2,9 °C 13,7 °C 3,2 km/h (1 Bft)
11.04.2018 19:11 13,7 °C 47 % 1001,0 hPa 0,0 mm 1,0 km/h (0 Bft) O-NO 76 ° 0 min 0,000 mm 0,0 UV-I 25 W/m² 2,6 °C 13,7 °C 1,6 km/h (1 Bft)
11.04.2018 19:12 13,7 °C 48 % 1000,9 hPa 0,0 mm 1,3 km/h (1 Bft) O-NO 76 ° 0 min 0,000 mm 0,0 UV-I 25 W/m² 2,9 °C 13,7 °C 1,6 km/h (1 Bft)
11.04.2018 19:13 13,7 °C 47 % 1001,0 hPa 0,0 mm 1,5 km/h (1 Bft) O-NO 76 ° 0 min 0,000 mm 0,0 UV-I 23 W/m² 2,6 °C 13,7 °C 3,2 km/h (1 Bft)
11.04.2018 19:14 13,7 °C 47 % 1000,9 hPa 0,0 mm 1,2 km/h (1 Bft) O-NO 76 ° 0 min 0,000 mm 0,0 UV-I 23 W/m² 2,6 °C 13,7 °C 1,6 km/h (1 Bft)
11.04.2018 19:15 13,7 °C 47 % 1000,9 hPa 0,0 mm 1,6 km/h (1 Bft) O-NO 76 ° 0 min 0,000 mm 0,0 UV-I 21 W/m² 2,6 °C 13,7 °C 3,2 km/h (1 Bft)
11.04.2018 19:16 13,7 °C 47 % 1000,9 hPa 0,0 mm 1,7 km/h (1 Bft) O-NO 76 ° 0 min 0,000 mm 0,0 UV-I 21 W/m² 2,6 °C 13,7 °C 3,2 km/h (1 Bft)
11.04.2018 19:17 13,7 °C 46 % 1000,9 hPa 0,0 mm 1,3 km/h (1 Bft) O-NO 76 ° 0 min 0,000 mm 0,0 UV-I 19 W/m² 2,3 °C 13,7 °C 3,2 km/h (1 Bft)
11.04.2018 19:18 13,6 °C 49 % 1000,9 hPa 0,0 mm 1,7 km/h (1 Bft) O-NO 76 ° 0 min 0,000 mm 0,0 UV-I 19 W/m² 3,1 °C 13,6 °C 3,2 km/h (1 Bft)
11.04.2018 19:19 13,6 °C 47 % 1000,9 hPa 0,0 mm 0,9 km/h (0 Bft) O-NO 76 ° 0 min 0,000 mm 0,0 UV-I 19 W/m² 2,5 °C 13,6 °C 1,6 km/h (1 Bft)
11.04.2018 19:20 13,6 °C 47 % 1000,9 hPa 0,0 mm 0,2 km/h (0 Bft) O-NO 76 ° 0 min 0,000 mm 0,0 UV-I 18 W/m² 2,5 °C 13,6 °C 1,6 km/h (1 Bft)
11.04.2018 19:21 13,6 °C 47 % 1000,8 hPa 0,0 mm 0,5 km/h (0 Bft) O-NO 76 ° 0 min 0,000 mm 0,0 UV-I 18 W/m² 2,5 °C 13,6 °C 1,6 km/h (1 Bft)
11.04.2018 19:22 13,5 °C 47 % 1000,9 hPa 0,0 mm 1,2 km/h (1 Bft) O-NO 76 ° 0 min 0,000 mm 0,0 UV-I 16 W/m² 2,4 °C 13,5 °C 3,2 km/h (1 Bft)
11.04.2018 19:23 13,5 °C 48 % 1000,8 hPa 0,0 mm 1,4 km/h (1 Bft) O-NO 76 ° 0 min 0,000 mm 0,0 UV-I 16 W/m² 2,7 °C 13,5 °C 3,2 km/h (1 Bft)
11.04.2018 19:24 13,4 °C 48 % 1000,8 hPa 0,0 mm 2,8 km/h (1 Bft) O-NO 76 ° 0 min 0,000 mm 0,0 UV-I 14 W/m² 2,6 °C 13,4 °C 4,8 km/h (1 Bft)
11.04.2018 19:25 13,5 °C 48 % 1000,8 hPa 0,0 mm 2,2 km/h (1 Bft) O-NO 76 ° 0 min 0,000 mm 0,0 UV-I 14 W/m² 2,7 °C 13,5 °C 3,2 km/h (1 Bft)
11.04.2018 19:26 13,4 °C 48 % 1000,8 hPa 0,0 mm 3,7 km/h (1 Bft) O-NO 78 ° 0 min 0,000 mm 0,0 UV-I 14 W/m² 2,6 °C 13,4 °C 4,8 km/h (1 Bft)
11.04.2018 19:27 13,4 °C 50 % 1000,8 hPa 0,0 mm 1,2 km/h (1 Bft) O-NO 78 ° 0 min 0,000 mm 0,0 UV-I 12 W/m² 3,2 °C 13,4 °C 3,2 km/h (1 Bft)
11.04.2018 19:28 13,3 °C 49 % 1000,8 hPa 0,0 mm 0,6 km/h (0 Bft) O-NO 78 ° 0 min 0,000 mm 0,0 UV-I 12 W/m² 2,8 °C 13,3 °C 1,6 km/h (1 Bft)
11.04.2018 19:29 13,2 °C 51 % 1000,8 hPa 0,0 mm 0,0 km/h (0 Bft) O-NO 78 ° 0 min 0,000 mm 0,0 UV-I 11 W/m² 3,3 °C 13,2 °C 0,0 km/h (0 Bft)
11.04.2018 19:30 13,2 °C 50 % 1000,8 hPa 0,0 mm 0,0 km/h (0 Bft) O-NO 78 ° 0 min 0,000 mm 0,0 UV-I 11 W/m² 3,0 °C 13,2 °C 0,0 km/h (0 Bft)
11.04.2018 19:31 13,1 °C 51 % 1000,8 hPa 0,0 mm 0,0 km/h (0 Bft) O-NO 78 ° 0 min 0,000 mm 0,0 UV-I 11 W/m² 3,2 °C 13,1 °C 0,0 km/h (0 Bft)
11.04.2018 19:32 13,1 °C 48 % 1000,8 hPa 0,0 mm 0,0 km/h (0 Bft) O-NO 78 ° 0 min 0,000 mm 0,0 UV-I 9 W/m² 2,3 °C 13,1 °C 0,0 km/h (0 Bft)
11.04.2018 19:33 13,1 °C 48 % 1000,8 hPa 0,0 mm 0,0 km/h (0 Bft) O-NO 78 ° 0 min 0,000 mm 0,0 UV-I 9 W/m² 2,3 °C 13,1 °C 0,0 km/h (0 Bft)
11.04.2018 19:34 13,2 °C 48 % 1000,7 hPa 0,0 mm 0,0 km/h (0 Bft) O-NO 78 ° 0 min 0,000 mm 0,0 UV-I 9 W/m² 2,4 °C 13,2 °C 0,0 km/h (0 Bft)
11.04.2018 19:35 13,1 °C 48 % 1000,8 hPa 0,0 mm 0,0 km/h (0 Bft) O-NO 78 ° 0 min 0,000 mm 0,0 UV-I 7 W/m² 2,3 °C 13,1 °C 0,0 km/h (0 Bft)
11.04.2018 19:36 13,1 °C 48 % 1000,8 hPa 0,0 mm 0,0 km/h (0 Bft) O-NO 78 ° 0 min 0,000 mm 0,0 UV-I 7 W/m² 2,3 °C 13,1 °C 0,0 km/h (0 Bft)
11.04.2018 19:37 13,1 °C 48 % 1000,8 hPa 0,0 mm 0,0 km/h (0 Bft) O-NO 78 ° 0 min 0,000 mm 0,0 UV-I 7 W/m² 2,3 °C 13,1 °C 0,0 km/h (0 Bft)
11.04.2018 19:38 13,1 °C 48 % 1000,9 hPa 0,0 mm 1,5 km/h (1 Bft) O-NO 78 ° 0 min 0,000 mm 0,0 UV-I 5 W/m² 2,3 °C 13,1 °C 4,8 km/h (1 Bft)
11.04.2018 19:39 13,1 °C 49 % 1000,8 hPa 0,0 mm 1,7 km/h (1 Bft) O-NO 78 ° 0 min 0,000 mm 0,0 UV-I 5 W/m² 2,6 °C 13,1 °C 3,2 km/h (1 Bft)
11.04.2018 19:40 13,1 °C 49 % 1000,9 hPa 0,0 mm 0,0 km/h (0 Bft) O-NO 78 ° 0 min 0,000 mm 0,0 UV-I 5 W/m² 2,6 °C 13,1 °C 0,0 km/h (0 Bft)
11.04.2018 19:41 13,1 °C 49 % 1000,8 hPa 0,0 mm 0,2 km/h (0 Bft) O-NO 78 ° 0 min 0,000 mm 0,0 UV-I 5 W/m² 2,6 °C 13,1 °C 1,6 km/h (1 Bft)
11.04.2018 19:42 13,1 °C 49 % 1000,9 hPa 0,0 mm 0,6 km/h (0 Bft) O-NO 78 ° 0 min 0,000 mm 0,0 UV-I 5 W/m² 2,6 °C 13,1 °C 1,6 km/h (1 Bft)
11.04.2018 19:43 13,1 °C 50 % 1000,9 hPa 0,0 mm 0,0 km/h (0 Bft) O-NO 78 ° 0 min 0,000 mm 0,0 UV-I 5 W/m² 2,9 °C 13,1 °C 0,0 km/h (0 Bft)
11.04.2018 19:44 13,1 °C 50 % 1000,9 hPa 0,0 mm 0,0 km/h (0 Bft) O-NO 78 ° 0 min 0,000 mm 0,0 UV-I 0 W/m² 2,9 °C 13,1 °C 0,0 km/h (0 Bft)
11.04.2018 19:45 13,0 °C 50 % 1000,9 hPa 0,0 mm 0,0 km/h (0 Bft) O-NO 78 ° 0 min 0,000 mm 0,0 UV-I 0 W/m² 2,8 °C 13,0 °C 0,0 km/h (0 Bft)
11.04.2018 19:46 12,9 °C 50 % 1000,9 hPa 0,0 mm 0,0 km/h (0 Bft) O-NO 78 ° 0 min 0,000 mm 0,0 UV-I 0 W/m² 2,7 °C 12,9 °C 0,0 km/h (0 Bft)
11.04.2018 19:47 12,9 °C 50 % 1000,9 hPa 0,0 mm 0,0 km/h (0 Bft) O-NO 78 ° 0 min 0,000 mm 0,0 UV-I 0 W/m² 2,7 °C 12,9 °C 0,0 km/h (0 Bft)
11.04.2018 19:48 12,9 °C 50 % 1000,8 hPa 0,0 mm 0,0 km/h (0 Bft) O-NO 78 ° 0 min 0,000 mm 0,0 UV-I 0 W/m² 2,7 °C 12,9 °C 0,0 km/h (0 Bft)
11.04.2018 19:49 12,9 °C 50 % 1000,9 hPa 0,0 mm 0,0 km/h (0 Bft) O-NO 78 ° 0 min 0,000 mm 0,0 UV-I 0 W/m² 2,7 °C 12,9 °C 0,0 km/h (0 Bft)
11.04.2018 19:50 12,9 °C 50 % 1000,9 hPa 0,0 mm 0,0 km/h (0 Bft) O-NO 78 ° 0 min 0,000 mm 0,0 UV-I 0 W/m² 2,7 °C 12,9 °C 0,0 km/h (0 Bft)
11.04.2018 19:51 12,8 °C 50 % 1000,9 hPa 0,0 mm 0,0 km/h (0 Bft) O-NO 78 ° 0 min 0,000 mm 0,0 UV-I 0 W/m² 2,6 °C 12,8 °C 0,0 km/h (0 Bft)
11.04.2018 19:52 12,8 °C 50 % 1000,9 hPa 0,0 mm 0,0 km/h (0 Bft) O-NO 78 ° 0 min 0,000 mm 0,0 UV-I 0 W/m² 2,6 °C 12,8 °C 0,0 km/h (0 Bft)
11.04.2018 19:53 12,8 °C 50 % 1000,9 hPa 0,0 mm 0,0 km/h (0 Bft) O-NO 78 ° 0 min 0,000 mm 0,0 UV-I 0 W/m² 2,6 °C 12,8 °C 0,0 km/h (0 Bft)
11.04.2018 19:54 12,8 °C 50 % 1000,9 hPa 0,0 mm 1,4 km/h (1 Bft) O-NO 78 ° 0 min 0,000 mm 0,0 UV-I 0 W/m² 2,6 °C 12,8 °C 3,2 km/h (1 Bft)
11.04.2018 19:55 12,9 °C 50 % 1000,9 hPa 0,0 mm 0,5 km/h (0 Bft) O-NO 78 ° 0 min 0,000 mm 0,0 UV-I 0 W/m² 2,7 °C 12,9 °C 1,6 km/h (1 Bft)
11.04.2018 19:56 12,8 °C 50 % 1000,9 hPa 0,0 mm 0,8 km/h (0 Bft) O-NO 78 ° 0 min 0,000 mm 0,0 UV-I 0 W/m² 2,6 °C 12,8 °C 1,6 km/h (1 Bft)
11.04.2018 19:57 12,8 °C 50 % 1000,9 hPa 0,0 mm 0,3 km/h (0 Bft) O-NO 78 ° 0 min 0,000 mm 0,0 UV-I 0 W/m² 2,6 °C 12,8 °C 1,6 km/h (1 Bft)
11.04.2018 19:58 12,8 °C 50 % 1000,9 hPa 0,0 mm 0,2 km/h (0 Bft) O-NO 78 ° 0 min 0,000 mm 0,0 UV-I 0 W/m² 2,6 °C 12,8 °C 1,6 km/h (1 Bft)
11.04.2018 19:59 12,7 °C 51 % 1001,0 hPa 0,0 mm 0,5 km/h (0 Bft) O-NO 78 ° 0 min 0,000 mm 0,0 UV-I 0 W/m² 2,8 °C 12,7 °C 3,2 km/h (1 Bft)
11.04.2018 20:00 12,7 °C 50 % 1001,0 hPa 0,0 mm 1,0 km/h (0 Bft) O-NO 78 ° 0 min 0,025 mm 0,0 UV-I 0 W/m² 2,6 °C 12,7 °C 3,2 km/h (1 Bft)
11.04.2018 20:01 12,7 °C 50 % 1000,9 hPa 0,0 mm 0,0 km/h (0 Bft) O-NO 78 ° 0 min 0,000 mm 0,0 UV-I 0 W/m² 2,6 °C 12,7 °C 0,0 km/h (0 Bft)
11.04.2018 20:02 12,7 °C 50 % 1001,0 hPa 0,0 mm 0,4 km/h (0 Bft) O-NO 78 ° 0 min 0,000 mm 0,0 UV-I 0 W/m² 2,6 °C 12,7 °C 4,8 km/h (1 Bft)
11.04.2018 20:03 12,6 °C 50 % 1000,9 hPa 0,0 mm 1,4 km/h (1 Bft) O-NO 78 ° 0 min 0,000 mm 0,0 UV-I 0 W/m² 2,5 °C 12,6 °C 3,2 km/h (1 Bft)
11.04.2018 20:04 12,6 °C 49 % 1000,9 hPa 0,0 mm 0,5 km/h (0 Bft) O-NO 78 ° 0 min 0,000 mm 0,0 UV-I 0 W/m² 2,2 °C 12,6 °C 1,6 km/h (1 Bft)
11.04.2018 20:05 12,7 °C 50 % 1000,9 hPa 0,0 mm 2,2 km/h (1 Bft) O 80 ° 0 min 0,000 mm 0,0 UV-I 0 W/m² 2,6 °C 12,7 °C 4,8 km/h (1 Bft)
11.04.2018 20:06 12,7 °C 51 % 1000,9 hPa 0,0 mm 2,2 km/h (1 Bft) O 80 ° 0 min 0,000 mm 0,0 UV-I 0 W/m² 2,8 °C 12,7 °C 3,2 km/h (1 Bft)
11.04.2018 20:07 12,7 °C 50 % 1001,0 hPa 0,0 mm 2,3 km/h (1 Bft) O 80 ° 0 min 0,000 mm 0,0 UV-I 0 W/m² 2,6 °C 12,7 °C 3,2 km/h (1 Bft)
11.04.2018 20:08 12,6 °C 52 % 1001,0 hPa 0,0 mm 4,2 km/h (1 Bft) O 80 ° 0 min 0,000 mm 0,0 UV-I 0 W/m² 3,0 °C 12,6 °C 4,8 km/h (1 Bft)
11.04.2018 20:09 12,6 °C 51 % 1001,0 hPa 0,0 mm 1,8 km/h (1 Bft) O 80 ° 0 min 0,000 mm 0,0 UV-I 0 W/m² 2,7 °C 12,6 °C 3,2 km/h (1 Bft)
11.04.2018 20:10 12,6 °C 50 % 1001,0 hPa 0,0 mm 1,7 km/h (1 Bft) O 80 ° 0 min 0,000 mm 0,0 UV-I 0 W/m² 2,5 °C 12,6 °C 4,8 km/h (1 Bft)
11.04.2018 20:11 12,6 °C 51 % 1001,0 hPa 0,0 mm 2,8 km/h (1 Bft) O 80 ° 0 min 0,000 mm 0,0 UV-I 0 W/m² 2,7 °C 12,6 °C 6,4 km/h (2 Bft)
11.04.2018 20:12 12,4 °C 53 % 1001,0 hPa 0,0 mm 0,9 km/h (0 Bft) O 80 ° 0 min 0,000 mm 0,0 UV-I 0 W/m² 3,1 °C 12,4 °C 1,6 km/h (1 Bft)
11.04.2018 20:13 12,4 °C 51 % 1001,0 hPa 0,0 mm 1,2 km/h (1 Bft) O 80 ° 0 min 0,000 mm 0,0 UV-I 0 W/m² 2,6 °C 12,4 °C 4,8 km/h (1 Bft)
11.04.2018 20:14 12,4 °C 51 % 1001,0 hPa 0,0 mm 4,0 km/h (1 Bft) SO 140 ° 0 min 0,000 mm 0,0 UV-I 0 W/m² 2,6 °C 12,4 °C 8,0 km/h (2 Bft)
11.04.2018 20:15 12,3 °C 51 % 1001,0 hPa 0,0 mm 2,5 km/h (1 Bft) SO 140 ° 0 min 0,000 mm 0,0 UV-I 0 W/m² 2,5 °C 12,3 °C 3,2 km/h (1 Bft)
11.04.2018 20:16 12,3 °C 52 % 1001,0 hPa 0,0 mm 1,2 km/h (1 Bft) SO 140 ° 0 min 0,000 mm 0,0 UV-I 0 W/m² 2,7 °C 12,3 °C 1,6 km/h (1 Bft)
11.04.2018 20:17 12,3 °C 51 % 1001,0 hPa 0,0 mm 0,7 km/h (0 Bft) SO 140 ° 0 min 0,000 mm 0,0 UV-I 0 W/m² 2,5 °C 12,3 °C 3,2 km/h (1 Bft)
11.04.2018 20:18 12,3 °C 52 % 1001,0 hPa 0,0 mm 1,2 km/h (1 Bft) SO 140 ° 0 min 0,000 mm 0,0 UV-I 0 W/m² 2,7 °C 12,3 °C 3,2 km/h (1 Bft)
11.04.2018 20:19 12,3 °C 52 % 1001,0 hPa 0,0 mm 2,1 km/h (1 Bft) SO 140 ° 0 min 0,000 mm 0,0 UV-I 0 W/m² 2,7 °C 12,3 °C 3,2 km/h (1 Bft)
11.04.2018 20:20 12,3 °C 52 % 1001,0 hPa 0,0 mm 2,5 km/h (1 Bft) O-SO 116 ° 0 min 0,000 mm 0,0 UV-I 0 W/m² 2,7 °C 12,3 °C 4,8 km/h (1 Bft)
11.04.2018 20:21 12,3 °C 52 % 1001,0 hPa 0,0 mm 1,3 km/h (1 Bft) O-SO 116 ° 0 min 0,000 mm 0,0 UV-I 0 W/m² 2,7 °C 12,3 °C 1,6 km/h (1 Bft)
11.04.2018 20:22 12,3 °C 52 % 1001,0 hPa 0,0 mm 0,5 km/h (0 Bft) O-SO 116 ° 0 min 0,000 mm 0,0 UV-I 0 W/m² 2,7 °C 12,3 °C 1,6 km/h (1 Bft)
11.04.2018 20:23 12,3 °C 52 % 1001,0 hPa 0,0 mm 0,0 km/h (0 Bft) O-SO 116 ° 0 min 0,000 mm 0,0 UV-I 0 W/m² 2,7 °C 12,3 °C 0,0 km/h (0 Bft)
11.04.2018 20:24 12,3 °C 52 % 1001,0 hPa 0,0 mm 0,0 km/h (0 Bft) O-SO 116 ° 0 min 0,000 mm 0,0 UV-I 0 W/m² 2,7 °C 12,3 °C 0,0 km/h (0 Bft)
11.04.2018 20:25 12,3 °C 51 % 1001,0 hPa 0,0 mm 0,7 km/h (0 Bft) O-SO 116 ° 0 min 0,000 mm 0,0 UV-I 0 W/m² 2,5 °C 12,3 °C 3,2 km/h (1 Bft)
11.04.2018 20:26 12,3 °C 51 % 1001,1 hPa 0,0 mm 1,1 km/h (1 Bft) O-SO 116 ° 0 min 0,000 mm 0,0 UV-I 0 W/m² 2,5 °C 12,3 °C 3,2 km/h (1 Bft)
11.04.2018 20:27 12,3 °C 52 % 1001,0 hPa 0,0 mm 0,5 km/h (0 Bft) O-SO 116 ° 0 min 0,000 mm 0,0 UV-I 0 W/m² 2,7 °C 12,3 °C 1,6 km/h (1 Bft)
11.04.2018 20:28 12,3 °C 52 % 1001,1 hPa 0,0 mm 1,7 km/h (1 Bft) O-SO 116 ° 0 min 0,000 mm 0,0 UV-I 0 W/m² 2,7 °C 12,3 °C 3,2 km/h (1 Bft)
11.04.2018 20:29 12,3 °C 51 % 1001,0 hPa 0,0 mm 0,1 km/h (0 Bft) O-SO 116 ° 0 min 0,000 mm 0,0 UV-I 0 W/m² 2,5 °C 12,3 °C 1,6 km/h (1 Bft)
11.04.2018 20:30 12,3 °C 51 % 1001,0 hPa 0,0 mm 1,7 km/h (1 Bft) O-SO 116 ° 0 min 0,000 mm 0,0 UV-I 0 W/m² 2,5 °C 12,3 °C 3,2 km/h (1 Bft)
11.04.2018 20:31 12,3 °C 52 % 1000,9 hPa 0,0 mm 0,4 km/h (0 Bft) O-SO 116 ° 0 min 0,000 mm 0,0 UV-I 0 W/m² 2,7 °C 12,3 °C 1,6 km/h (1 Bft)
11.04.2018 20:32 12,2 °C 52 % 1001,0 hPa 0,0 mm 0,8 km/h (0 Bft) O-SO 116 ° 0 min 0,000 mm 0,0 UV-I 0 W/m² 2,6 °C 12,2 °C 1,6 km/h (1 Bft)
11.04.2018 20:33 12,2 °C 50 % 1000,9 hPa 0,0 mm 0,0 km/h (0 Bft) O-SO 116 ° 0 min 0,000 mm 0,0 UV-I 0 W/m² 2,1 °C 12,2 °C 0,0 km/h (0 Bft)
11.04.2018 20:34 12,3 °C 51 % 1000,9 hPa 0,0 mm 0,5 km/h (0 Bft) O-SO 116 ° 0 min 0,000 mm 0,0 UV-I 0 W/m² 2,5 °C 12,3 °C 3,2 km/h (1 Bft)
11.04.2018 20:35 12,2 °C 50 % 1000,9 hPa 0,0 mm 0,7 km/h (0 Bft) O-SO 116 ° 0 min 0,000 mm 0,0 UV-I 0 W/m² 2,1 °C 12,2 °C 3,2 km/h (1 Bft)
11.04.2018 20:36 12,3 °C 49 % 1000,9 hPa 0,0 mm 0,3 km/h (0 Bft) O-SO 116 ° 0 min 0,000 mm 0,0 UV-I 0 W/m² 1,9 °C 12,3 °C 1,6 km/h (1 Bft)
11.04.2018 20:37 12,3 °C 50 % 1000,9 hPa 0,0 mm 0,3 km/h (0 Bft) O-SO 116 ° 0 min 0,000 mm 0,0 UV-I 0 W/m² 2,2 °C 12,3 °C 1,6 km/h (1 Bft)
11.04.2018 20:38 12,3 °C 49 % 1000,9 hPa 0,0 mm 1,3 km/h (1 Bft) O-SO 116 ° 0 min 0,000 mm 0,0 UV-I 0 W/m² 1,9 °C 12,3 °C 3,2 km/h (1 Bft)
11.04.2018 20:39 12,3 °C 49 % 1000,9 hPa 0,0 mm 0,3 km/h (0 Bft) O-SO 116 ° 0 min 0,000 mm 0,0 UV-I 0 W/m² 1,9 °C 12,3 °C 1,6 km/h (1 Bft)
11.04.2018 20:40 12,4 °C 48 % 1000,9 hPa 0,0 mm 0,1 km/h (0 Bft) O-SO 116 ° 0 min 0,000 mm 0,0 UV-I 0 W/m² 1,7 °C 12,4 °C 1,6 km/h (1 Bft)
11.04.2018 20:41 12,4 °C 48 % 1000,9 hPa 0,0 mm 0,7 km/h (0 Bft) O-SO 116 ° 0 min 0,000 mm 0,0 UV-I 0 W/m² 1,7 °C 12,4 °C 1,6 km/h (1 Bft)
11.04.2018 20:42 12,6 °C 46 % 1000,9 hPa 0,0 mm 0,0 km/h (0 Bft) O-SO 116 ° 0 min 0,000 mm 0,0 UV-I 0 W/m² 1,3 °C 12,6 °C 0,0 km/h (0 Bft)
11.04.2018 20:43 12,7 °C 47 % 1000,9 hPa 0,0 mm 0,0 km/h (0 Bft) O-SO 116 ° 0 min 0,000 mm 0,0 UV-I 0 W/m² 1,7 °C 12,7 °C 0,0 km/h (0 Bft)
11.04.2018 20:44 12,7 °C 47 % 1000,9 hPa 0,0 mm 0,4 km/h (0 Bft) O-SO 116 ° 0 min 0,000 mm 0,0 UV-I 0 W/m² 1,7 °C 12,7 °C 1,6 km/h (1 Bft)
11.04.2018 20:45 12,7 °C 48 % 1000,9 hPa 0,0 mm 0,0 km/h (0 Bft) O-SO 116 ° 0 min 0,000 mm 0,0 UV-I 0 W/m² 2,0 °C 12,7 °C 0,0 km/h (0 Bft)
11.04.2018 20:46 12,7 °C 47 % 1000,8 hPa 0,0 mm 1,7 km/h (1 Bft) O-SO 116 ° 0 min 0,000 mm 0,0 UV-I 0 W/m² 1,7 °C 12,7 °C 3,2 km/h (1 Bft)
11.04.2018 20:47 12,7 °C 47 % 1000,8 hPa 0,0 mm 0,4 km/h (0 Bft) O-SO 116 ° 0 min 0,000 mm 0,0 UV-I 0 W/m² 1,7 °C 12,7 °C 1,6 km/h (1 Bft)
11.04.2018 20:48 12,7 °C 48 % 1000,8 hPa 0,0 mm 0,1 km/h (0 Bft) O-SO 116 ° 0 min 0,000 mm 0,0 UV-I 0 W/m² 2,0 °C 12,7 °C 1,6 km/h (1 Bft)
11.04.2018 20:49 12,6 °C 48 % 1000,9 hPa 0,0 mm 2,2 km/h (1 Bft) O-SO 116 ° 0 min 0,000 mm 0,0 UV-I 0 W/m² 1,9 °C 12,6 °C 3,2 km/h (1 Bft)
11.04.2018 20:50 12,6 °C 48 % 1000,9 hPa 0,0 mm 1,9 km/h (1 Bft) O-SO 116 ° 0 min 0,000 mm 0,0 UV-I 0 W/m² 1,9 °C 12,6 °C 3,2 km/h (1 Bft)
11.04.2018 20:51 12,6 °C 48 % 1000,8 hPa 0,0 mm 1,5 km/h (1 Bft) O-SO 116 ° 0 min 0,000 mm 0,0 UV-I 0 W/m² 1,9 °C 12,6 °C 1,6 km/h (1 Bft)
11.04.2018 20:52 12,5 °C 48 % 1000,8 hPa 0,0 mm 0,2 km/h (0 Bft) O-SO 116 ° 0 min 0,000 mm 0,0 UV-I 0 W/m² 1,8 °C 12,5 °C 1,6 km/h (1 Bft)
11.04.2018 20:53 12,3 °C 49 % 1000,9 hPa 0,0 mm 0,0 km/h (0 Bft) O-SO 116 ° 0 min 0,000 mm 0,0 UV-I 0 W/m² 1,9 °C 12,3 °C 0,0 km/h (0 Bft)
11.04.2018 20:54 12,1 °C 51 % 1000,7 hPa 0,0 mm 0,4 km/h (0 Bft) O-SO 116 ° 0 min 0,000 mm 0,0 UV-I 0 W/m² 2,3 °C 12,1 °C 1,6 km/h (1 Bft)
11.04.2018 20:55 12,1 °C 50 % 1000,7 hPa 0,0 mm 1,0 km/h (0 Bft) O-SO 116 ° 0 min 0,000 mm 0,0 UV-I 0 W/m² 2,0 °C 12,1 °C 1,6 km/h (1 Bft)
11.04.2018 20:56 12,1 °C 51 % 1000,7 hPa 0,0 mm 1,7 km/h (1 Bft) O-SO 116 ° 0 min 0,000 mm 0,0 UV-I 0 W/m² 2,3 °C 12,1 °C 3,2 km/h (1 Bft)
11.04.2018 20:57 12,1 °C 50 % 1000,7 hPa 0,0 mm 1,3 km/h (1 Bft) O-SO 116 ° 0 min 0,000 mm 0,0 UV-I 0 W/m² 2,0 °C 12,1 °C 3,2 km/h (1 Bft)
11.04.2018 20:58 12,1 °C 50 % 1000,7 hPa 0,0 mm 0,0 km/h (0 Bft) O-SO 116 ° 0 min 0,000 mm 0,0 UV-I 0 W/m² 2,0 °C 12,1 °C 0,0 km/h (0 Bft)
11.04.2018 20:59 12,1 °C 52 % 1000,8 hPa 0,0 mm 0,0 km/h (0 Bft) O-SO 116 ° 0 min 0,000 mm 0,0 UV-I 0 W/m² 2,5 °C 12,1 °C 0,0 km/h (0 Bft)
11.04.2018 21:00 12,1 °C 51 % 1000,8 hPa 0,0 mm 0,1 km/h (0 Bft) O-SO 116 ° 0 min 0,000 mm 0,0 UV-I 0 W/m² 2,3 °C 12,1 °C 1,6 km/h (1 Bft)
11.04.2018 21:01 12,0 °C 52 % 1000,7 hPa 0,0 mm 0,0 km/h (0 Bft) O-SO 116 ° 0 min 0,026 mm 0,0 UV-I 0 W/m² 2,5 °C 12,0 °C 0,0 km/h (0 Bft)
11.04.2018 21:02 12,0 °C 50 % 1000,7 hPa 0,0 mm 0,0 km/h (0 Bft) O-SO 116 ° 0 min 0,000 mm 0,0 UV-I 0 W/m² 1,9 °C 12,0 °C 0,0 km/h (0 Bft)
11.04.2018 21:03 12,0 °C 51 % 1000,7 hPa 0,0 mm 0,3 km/h (0 Bft) O-SO 116 ° 0 min 0,000 mm 0,0 UV-I 0 W/m² 2,2 °C 12,0 °C 1,6 km/h (1 Bft)
11.04.2018 21:04 12,0 °C 50 % 1000,7 hPa 0,0 mm 0,6 km/h (0 Bft) O-SO 116 ° 0 min 0,000 mm 0,0 UV-I 0 W/m² 1,9 °C 12,0 °C 1,6 km/h (1 Bft)
11.04.2018 21:05 12,1 °C 52 % 1000,7 hPa 0,0 mm 1,8 km/h (1 Bft) O 100 ° 0 min 0,000 mm 0,0 UV-I 0 W/m² 2,5 °C 12,1 °C 3,2 km/h (1 Bft)
11.04.2018 21:06 11,9 °C 51 % 1000,7 hPa 0,0 mm 2,2 km/h (1 Bft) O 93 ° 0 min 0,000 mm 0,0 UV-I 0 W/m² 2,1 °C 11,9 °C 4,8 km/h (1 Bft)
11.04.2018 21:07 11,9 °C 51 % 1000,8 hPa 0,0 mm 1,7 km/h (1 Bft) O-SO 103 ° 0 min 0,000 mm 0,0 UV-I 0 W/m² 2,1 °C 11,9 °C 4,8 km/h (1 Bft)
11.04.2018 21:08 11,9 °C 49 % 1000,7 hPa 0,0 mm 1,3 km/h (1 Bft) O-SO 113 ° 0 min 0,000 mm 0,0 UV-I 0 W/m² 1,5 °C 11,9 °C 4,8 km/h (1 Bft)
11.04.2018 21:09 11,9 °C 51 % 1000,7 hPa 0,0 mm 0,1 km/h (0 Bft) O-SO 113 ° 0 min 0,000 mm 0,0 UV-I 0 W/m² 2,1 °C 11,9 °C 1,6 km/h (1 Bft)
11.04.2018 21:10 11,9 °C 52 % 1000,7 hPa 0,0 mm 0,9 km/h (0 Bft) O-SO 113 ° 0 min 0,000 mm 0,0 UV-I 0 W/m² 2,4 °C 11,9 °C 3,2 km/h (1 Bft)
11.04.2018 21:11 12,0 °C 49 % 1000,7 hPa 0,0 mm 2,7 km/h (1 Bft) O-NO 73 ° 0 min 0,000 mm 0,0 UV-I 0 W/m² 1,6 °C 12,0 °C 4,8 km/h (1 Bft)
11.04.2018 21:12 12,1 °C 51 % 1000,7 hPa 0,0 mm 2,9 km/h (1 Bft) O-NO 73 ° 0 min 0,000 mm 0,0 UV-I 0 W/m² 2,3 °C 12,1 °C 4,8 km/h (1 Bft)
11.04.2018 21:13 12,1 °C 51 % 1000,8 hPa 0,0 mm 0,9 km/h (0 Bft) O-NO 73 ° 0 min 0,000 mm 0,0 UV-I 0 W/m² 2,3 °C 12,1 °C 3,2 km/h (1 Bft)
11.04.2018 21:14 12,0 °C 52 % 1000,7 hPa 0,0 mm 1,4 km/h (1 Bft) O-NO 73 ° 0 min 0,000 mm 0,0 UV-I 0 W/m² 2,5 °C 12,0 °C 3,2 km/h (1 Bft)
11.04.2018 21:15 11,9 °C 51 % 1000,7 hPa 0,0 mm 3,1 km/h (1 Bft) O 86 ° 0 min 0,000 mm 0,0 UV-I 0 W/m² 2,1 °C 11,9 °C 4,8 km/h (1 Bft)
11.04.2018 21:16 11,9 °C 51 % 1000,7 hPa 0,0 mm 2,7 km/h (1 Bft) SO 131 ° 0 min 0,000 mm 0,0 UV-I 0 W/m² 2,1 °C 11,9 °C 8,0 km/h (2 Bft)
11.04.2018 21:17 11,9 °C 51 % 1000,6 hPa 0,0 mm 4,5 km/h (1 Bft) O 86 ° 0 min 0,000 mm 0,0 UV-I 0 W/m² 2,1 °C 11,9 °C 6,4 km/h (2 Bft)
11.04.2018 21:18 11,8 °C 52 % 1000,7 hPa 0,0 mm 3,0 km/h (1 Bft) O 86 ° 0 min 0,000 mm 0,0 UV-I 0 W/m² 2,3 °C 11,8 °C 4,8 km/h (1 Bft)
11.04.2018 21:19 11,8 °C 52 % 1000,7 hPa 0,0 mm 2,1 km/h (1 Bft) O 86 ° 0 min 0,000 mm 0,0 UV-I 0 W/m² 2,3 °C 11,8 °C 3,2 km/h (1 Bft)
11.04.2018 21:20 11,7 °C 52 % 1000,7 hPa 0,0 mm 0,9 km/h (0 Bft) O 86 ° 0 min 0,000 mm 0,0 UV-I 0 W/m² 2,2 °C 11,7 °C 3,2 km/h (1 Bft)
11.04.2018 21:21 11,7 °C 52 % 1000,7 hPa 0,0 mm 5,5 km/h (1 Bft) O 82 ° 0 min 0,000 mm 0,0 UV-I 0 W/m² 2,2 °C 11,7 °C 12,9 km/h (3 Bft)
11.04.2018 21:22 11,8 °C 50 % 1000,6 hPa 0,0 mm 2,5 km/h (1 Bft) O-SO 105 ° 0 min 0,000 mm 0,0 UV-I 0 W/m² 1,7 °C 11,8 °C 4,8 km/h (1 Bft)
11.04.2018 21:23 11,9 °C 51 % 1000,6 hPa 0,0 mm 2,6 km/h (1 Bft) O-SO 105 ° 0 min 0,000 mm 0,0 UV-I 0 W/m² 2,1 °C 11,9 °C 4,8 km/h (1 Bft)
11.04.2018 21:24 11,9 °C 51 % 1000,6 hPa 0,0 mm 2,5 km/h (1 Bft) O-SO 105 ° 0 min 0,000 mm 0,0 UV-I 0 W/m² 2,1 °C 11,9 °C 3,2 km/h (1 Bft)
11.04.2018 21:25 11,9 °C 51 % 1000,6 hPa 0,0 mm 2,9 km/h (1 Bft) O-SO 105 ° 0 min 0,000 mm 0,0 UV-I 0 W/m² 2,1 °C 11,9 °C 4,8 km/h (1 Bft)
11.04.2018 21:26 12,0 °C 51 % 1000,6 hPa 0,0 mm 4,1 km/h (1 Bft) O-SO 105 ° 0 min 0,000 mm 0,0 UV-I 0 W/m² 2,2 °C 12,0 °C 6,4 km/h (2 Bft)
11.04.2018 21:27 11,9 °C 52 % 1000,6 hPa 0,0 mm 2,7 km/h (1 Bft) O-SO 105 ° 0 min 0,000 mm 0,0 UV-I 0 W/m² 2,4 °C 11,9 °C 3,2 km/h (1 Bft)
11.04.2018 21:28 11,9 °C 51 % 1000,6 hPa 0,0 mm 2,8 km/h (1 Bft) O 101 ° 0 min 0,000 mm 0,0 UV-I 0 W/m² 2,1 °C 11,9 °C 6,4 km/h (2 Bft)
11.04.2018 21:29 11,8 °C 52 % 1000,6 hPa 0,0 mm 5,3 km/h (1 Bft) O-SO 112 ° 0 min 0,000 mm 0,0 UV-I 0 W/m² 2,3 °C 11,8 °C 8,0 km/h (2 Bft)
11.04.2018 21:30 11,8 °C 51 % 1000,5 hPa 0,0 mm 1,1 km/h (1 Bft) O-SO 112 ° 0 min 0,000 mm 0,0 UV-I 0 W/m² 2,0 °C 11,8 °C 3,2 km/h (1 Bft)
11.04.2018 21:31 11,9 °C 50 % 1000,5 hPa 0,0 mm 3,7 km/h (1 Bft) O 93 ° 0 min 0,000 mm 0,0 UV-I 0 W/m² 1,8 °C 11,9 °C 6,4 km/h (2 Bft)
11.04.2018 21:32 11,9 °C 51 % 1000,5 hPa 0,0 mm 2,7 km/h (1 Bft) O-SO 104 ° 0 min 0,000 mm 0,0 UV-I 0 W/m² 2,1 °C 11,9 °C 4,8 km/h (1 Bft)
11.04.2018 21:33 11,9 °C 51 % 1000,5 hPa 0,0 mm 0,6 km/h (0 Bft) O-SO 104 ° 0 min 0,000 mm 0,0 UV-I 0 W/m² 2,1 °C 11,9 °C 1,6 km/h (1 Bft)
11.04.2018 21:34 11,9 °C 51 % 1000,5 hPa 0,0 mm 1,5 km/h (1 Bft) O-SO 104 ° 0 min 0,000 mm 0,0 UV-I 0 W/m² 2,1 °C 11,9 °C 3,2 km/h (1 Bft)
11.04.2018 21:35 11,8 °C 52 % 1000,5 hPa 0,0 mm 2,3 km/h (1 Bft) O 98 ° 0 min 0,000 mm 0,0 UV-I 0 W/m² 2,3 °C 11,8 °C 6,4 km/h (2 Bft)
11.04.2018 21:36 11,8 °C 52 % 1000,4 hPa 0,0 mm 3,0 km/h (1 Bft) O 98 ° 0 min 0,000 mm 0,0 UV-I 0 W/m² 2,3 °C 11,8 °C 4,8 km/h (1 Bft)
11.04.2018 21:37 11,7 °C 53 % 1000,4 hPa 0,0 mm 1,3 km/h (1 Bft) O-SO 102 ° 0 min 0,000 mm 0,0 UV-I 0 W/m² 2,4 °C 11,7 °C 3,2 km/h (1 Bft)
11.04.2018 21:38 11,7 °C 53 % 1000,4 hPa 0,0 mm 0,3 km/h (0 Bft) O-SO 102 ° 0 min 0,000 mm 0,0 UV-I 0 W/m² 2,4 °C 11,7 °C 3,2 km/h (1 Bft)
11.04.2018 21:39 11,7 °C 52 % 1000,4 hPa 0,0 mm 3,0 km/h (1 Bft) O-SO 113 ° 0 min 0,000 mm 0,0 UV-I 0 W/m² 2,2 °C 11,7 °C 4,8 km/h (1 Bft)
11.04.2018 21:40 11,7 °C 52 % 1000,4 hPa 0,0 mm 1,7 km/h (1 Bft) O-SO 113 ° 0 min 0,000 mm 0,0 UV-I 0 W/m² 2,2 °C 11,7 °C 3,2 km/h (1 Bft)
11.04.2018 21:41 11,7 °C 52 % 1000,4 hPa 0,0 mm 3,8 km/h (1 Bft) O 98 ° 0 min 0,000 mm 0,0 UV-I 0 W/m² 2,2 °C 11,7 °C 11,3 km/h (2 Bft)
11.04.2018 21:42 11,8 °C 49 % 1000,4 hPa 0,0 mm 2,9 km/h (1 Bft) O 83 ° 0 min 0,000 mm 0,0 UV-I 0 W/m² 1,4 °C 11,8 °C 6,4 km/h (2 Bft)
11.04.2018 21:43 11,9 °C 50 % 1000,4 hPa 0,0 mm 0,8 km/h (0 Bft) O-SO 103 ° 0 min 0,000 mm 0,0 UV-I 0 W/m² 1,8 °C 11,9 °C 6,4 km/h (2 Bft)
11.04.2018 21:44 11,9 °C 51 % 1000,4 hPa 0,0 mm 2,2 km/h (1 Bft) O-SO 103 ° 0 min 0,000 mm 0,0 UV-I 0 W/m² 2,1 °C 11,9 °C 6,4 km/h (2 Bft)
11.04.2018 21:45 11,9 °C 50 % 1000,4 hPa 0,0 mm 0,9 km/h (0 Bft) O-SO 103 ° 0 min 0,000 mm 0,0 UV-I 0 W/m² 1,8 °C 11,9 °C 3,2 km/h (1 Bft)
11.04.2018 21:46 11,9 °C 51 % 1000,4 hPa 0,0 mm 1,6 km/h (1 Bft) O-SO 103 ° 0 min 0,000 mm 0,0 UV-I 0 W/m² 2,1 °C 11,9 °C 3,2 km/h (1 Bft)
11.04.2018 21:47 11,8 °C 54 % 1000,4 hPa 0,0 mm 1,3 km/h (1 Bft) O-SO 103 ° 0 min 0,000 mm 0,0 UV-I 0 W/m² 2,8 °C 11,8 °C 3,2 km/h (1 Bft)
11.04.2018 21:48 11,7 °C 51 % 1000,3 hPa 0,0 mm 0,0 km/h (0 Bft) O-SO 103 ° 0 min 0,000 mm 0,0 UV-I 0 W/m² 1,9 °C 11,7 °C 0,0 km/h (0 Bft)
11.04.2018 21:49 11,7 °C 51 % 1000,3 hPa 0,0 mm 0,1 km/h (0 Bft) O-SO 103 ° 0 min 0,000 mm 0,0 UV-I 0 W/m² 1,9 °C 11,7 °C 1,6 km/h (1 Bft)
11.04.2018 21:50 11,7 °C 51 % 1000,3 hPa 0,0 mm 3,4 km/h (1 Bft) O-SO 103 ° 0 min 0,000 mm 0,0 UV-I 0 W/m² 1,9 °C 11,7 °C 6,4 km/h (2 Bft)
11.04.2018 21:51 11,8 °C 51 % 1000,3 hPa 0,0 mm 2,3 km/h (1 Bft) O-SO 103 ° 0 min 0,000 mm 0,0 UV-I 0 W/m² 2,0 °C 11,8 °C 3,2 km/h (1 Bft)
11.04.2018 21:52 11,7 °C 51 % 1000,2 hPa 0,0 mm 4,0 km/h (1 Bft) O-SO 104 ° 0 min 0,000 mm 0,0 UV-I 0 W/m² 1,9 °C 11,7 °C 4,8 km/h (1 Bft)
11.04.2018 21:53 11,7 °C 53 % 1000,3 hPa 0,0 mm 1,4 km/h (1 Bft) O-SO 103 ° 0 min 0,000 mm 0,0 UV-I 0 W/m² 2,4 °C 11,7 °C 3,2 km/h (1 Bft)
11.04.2018 21:54 11,6 °C 52 % 1000,2 hPa 0,0 mm 0,1 km/h (0 Bft) O-SO 103 ° 0 min 0,000 mm 0,0 UV-I 0 W/m² 2,1 °C 11,6 °C 1,6 km/h (1 Bft)
11.04.2018 21:55 11,5 °C 53 % 1000,2 hPa 0,0 mm 0,5 km/h (0 Bft) O-SO 103 ° 0 min 0,000 mm 0,0 UV-I 0 W/m² 2,3 °C 11,5 °C 1,6 km/h (1 Bft)
11.04.2018 21:56 11,6 °C 52 % 1000,2 hPa 0,0 mm 0,4 km/h (0 Bft) O-SO 103 ° 0 min 0,000 mm 0,0 UV-I 0 W/m² 2,1 °C 11,6 °C 3,2 km/h (1 Bft)
11.04.2018 21:57 11,6 °C 51 % 1000,3 hPa 0,0 mm 4,0 km/h (1 Bft) O-SO 107 ° 0 min 0,000 mm 0,0 UV-I 0 W/m² 1,8 °C 11,6 °C 6,4 km/h (2 Bft)
11.04.2018 21:58 11,7 °C 51 % 1000,2 hPa 0,0 mm 2,1 km/h (1 Bft) O-SO 111 ° 0 min 0,000 mm 0,0 UV-I 0 W/m² 1,9 °C 11,7 °C 3,2 km/h (1 Bft)
11.04.2018 21:59 11,7 °C 51 % 1000,2 hPa 0,0 mm 0,8 km/h (0 Bft) O-SO 111 ° 0 min 0,000 mm 0,0 UV-I 0 W/m² 1,9 °C 11,7 °C 3,2 km/h (1 Bft)
11.04.2018 22:00 11,8 °C 50 % 1000,2 hPa 0,0 mm 2,7 km/h (1 Bft) O-SO 111 ° 0 min 0,000 mm 0,0 UV-I 0 W/m² 1,7 °C 11,8 °C 4,8 km/h (1 Bft)
11.04.2018 22:01 11,8 °C 51 % 1000,2 hPa 0,0 mm 0,4 km/h (0 Bft) O-SO 111 ° 0 min 0,051 mm 0,0 UV-I 0 W/m² 2,0 °C 11,8 °C 1,6 km/h (1 Bft)
11.04.2018 22:02 11,8 °C 51 % 1000,2 hPa 0,0 mm 4,8 km/h (1 Bft) O-SO 111 ° 0 min 0,000 mm 0,0 UV-I 0 W/m² 2,0 °C 11,8 °C 9,7 km/h (2 Bft)
11.04.2018 22:03 11,8 °C 51 % 1000,1 hPa 0,0 mm 2,2 km/h (1 Bft) O-SO 111 ° 0 min 0,000 mm 0,0 UV-I 0 W/m² 2,0 °C 11,8 °C 3,2 km/h (1 Bft)
11.04.2018 22:04 11,7 °C 53 % 1000,1 hPa 0,0 mm 1,9 km/h (1 Bft) O-SO 111 ° 0 min 0,000 mm 0,0 UV-I 0 W/m² 2,4 °C 11,7 °C 4,8 km/h (1 Bft)
11.04.2018 22:05 11,7 °C 51 % 1000,1 hPa 0,0 mm 3,2 km/h (1 Bft) O 88 ° 0 min 0,000 mm 0,0 UV-I 0 W/m² 1,9 °C 11,7 °C 4,8 km/h (1 Bft)
11.04.2018 22:06 11,7 °C 50 % 1000,1 hPa 0,0 mm 0,4 km/h (0 Bft) O 88 ° 0 min 0,000 mm 0,0 UV-I 0 W/m² 1,6 °C 11,7 °C 3,2 km/h (1 Bft)
11.04.2018 22:07 11,8 °C 52 % 1000,1 hPa 0,0 mm 3,2 km/h (1 Bft) O-SO 121 ° 0 min 0,000 mm 0,0 UV-I 0 W/m² 2,3 °C 11,8 °C 6,4 km/h (2 Bft)
11.04.2018 22:08 11,8 °C 50 % 1000,1 hPa 0,0 mm 0,6 km/h (0 Bft) O-SO 121 ° 0 min 0,000 mm 0,0 UV-I 0 W/m² 1,7 °C 11,8 °C 3,2 km/h (1 Bft)
11.04.2018 22:09 11,9 °C 50 % 1000,1 hPa 0,0 mm 0,5 km/h (0 Bft) O-SO 121 ° 0 min 0,000 mm 0,0 UV-I 0 W/m² 1,8 °C 11,9 °C 1,6 km/h (1 Bft)
11.04.2018 22:10 11,9 °C 51 % 1000,1 hPa 0,0 mm 3,1 km/h (1 Bft) O 93 ° 0 min 0,000 mm 0,0 UV-I 0 W/m² 2,1 °C 11,9 °C 11,3 km/h (2 Bft)
11.04.2018 22:11 11,9 °C 51 % 1000,0 hPa 0,0 mm 5,7 km/h (1 Bft) O-SO 105 ° 0 min 0,000 mm 0,0 UV-I 0 W/m² 2,1 °C 11,9 °C 9,7 km/h (2 Bft)
11.04.2018 22:12 11,9 °C 51 % 1000,1 hPa 0,0 mm 2,3 km/h (1 Bft) O-SO 105 ° 0 min 0,000 mm 0,0 UV-I 0 W/m² 2,1 °C 11,9 °C 4,8 km/h (1 Bft)
11.04.2018 22:13 11,9 °C 51 % 1000,0 hPa 0,0 mm 1,3 km/h (1 Bft) O-SO 105 ° 0 min 0,000 mm 0,0 UV-I 0 W/m² 2,1 °C 11,9 °C 4,8 km/h (1 Bft)
11.04.2018 22:14 11,9 °C 52 % 1000,0 hPa 0,0 mm 2,7 km/h (1 Bft) O-SO 105 ° 0 min 0,000 mm 0,0 UV-I 0 W/m² 2,4 °C 11,9 °C 4,8 km/h (1 Bft)
11.04.2018 22:15 11,8 °C 51 % 1000,0 hPa 0,0 mm 4,3 km/h (1 Bft) S-SO 153 ° 0 min 0,000 mm 0,0 UV-I 0 W/m² 2,0 °C 11,8 °C 8,0 km/h (2 Bft)
11.04.2018 22:16 11,9 °C 51 % 1000,0 hPa 0,0 mm 1,5 km/h (1 Bft) S-SO 150 ° 0 min 0,000 mm 0,0 UV-I 0 W/m² 2,1 °C 11,9 °C 3,2 km/h (1 Bft)
11.04.2018 22:17 11,8 °C 52 % 999,9 hPa 0,0 mm 5,0 km/h (1 Bft) O-SO 104 ° 0 min 0,000 mm 0,0 UV-I 0 W/m² 2,3 °C 11,8 °C 9,7 km/h (2 Bft)
11.04.2018 22:18 11,8 °C 52 % 999,9 hPa 0,0 mm 3,8 km/h (1 Bft) O-SO 108 ° 0 min 0,000 mm 0,0 UV-I 0 W/m² 2,3 °C 11,8 °C 6,4 km/h (2 Bft)
11.04.2018 22:19 11,8 °C 52 % 999,9 hPa 0,0 mm 2,8 km/h (1 Bft) SO 137 ° 0 min 0,000 mm 0,0 UV-I 0 W/m² 2,3 °C 11,8 °C 4,8 km/h (1 Bft)
11.04.2018 22:20 11,8 °C 52 % 999,9 hPa 0,0 mm 2,4 km/h (1 Bft) O-NO 70 ° 0 min 0,000 mm 0,0 UV-I 0 W/m² 2,3 °C 11,8 °C 4,8 km/h (1 Bft)
11.04.2018 22:21 11,8 °C 50 % 999,9 hPa 0,0 mm 1,9 km/h (1 Bft) O-NO 70 ° 0 min 0,000 mm 0,0 UV-I 0 W/m² 1,7 °C 11,8 °C 4,8 km/h (1 Bft)
11.04.2018 22:22 11,8 °C 51 % 999,9 hPa 0,0 mm 3,1 km/h (1 Bft) SO 125 ° 0 min 0,000 mm 0,0 UV-I 0 W/m² 2,0 °C 11,8 °C 4,8 km/h (1 Bft)
11.04.2018 22:23 11,8 °C 53 % 999,9 hPa 0,0 mm 3,4 km/h (1 Bft) SO 134 ° 0 min 0,000 mm 0,0 UV-I 0 W/m² 2,5 °C 11,8 °C 4,8 km/h (1 Bft)
11.04.2018 22:24 11,7 °C 52 % 999,9 hPa 0,0 mm 3,4 km/h (1 Bft) O-SO 103 ° 0 min 0,000 mm 0,0 UV-I 0 W/m² 2,2 °C 11,7 °C 6,4 km/h (2 Bft)
11.04.2018 22:25 11,7 °C 52 % 999,9 hPa 0,0 mm 5,6 km/h (1 Bft) O-SO 118 ° 0 min 0,000 mm 0,0 UV-I 0 W/m² 2,2 °C 11,7 °C 11,3 km/h (2 Bft)
11.04.2018 22:26 11,7 °C 51 % 999,9 hPa 0,0 mm 0,8 km/h (0 Bft) SO 126 ° 0 min 0,000 mm 0,0 UV-I 0 W/m² 1,9 °C 11,7 °C 3,2 km/h (1 Bft)
11.04.2018 22:27 11,7 °C 52 % 999,9 hPa 0,0 mm 4,6 km/h (1 Bft) O-SO 103 ° 0 min 0,000 mm 0,0 UV-I 0 W/m² 2,2 °C 11,7 °C 6,4 km/h (2 Bft)
11.04.2018 22:28 11,7 °C 51 % 999,9 hPa 0,0 mm 3,4 km/h (1 Bft) O-NO 74 ° 0 min 0,000 mm 0,0 UV-I 0 W/m² 1,9 °C 11,7 °C 6,4 km/h (2 Bft)
11.04.2018 22:29 11,7 °C 52 % 999,9 hPa 0,0 mm 4,0 km/h (1 Bft) O-SO 108 ° 0 min 0,000 mm 0,0 UV-I 0 W/m² 2,2 °C 11,7 °C 9,7 km/h (2 Bft)
11.04.2018 22:30 11,8 °C 50 % 999,9 hPa 0,0 mm 1,8 km/h (1 Bft) O 86 ° 0 min 0,000 mm 0,0 UV-I 0 W/m² 1,7 °C 11,8 °C 3,2 km/h (1 Bft)
11.04.2018 22:31 11,8 °C 52 % 999,9 hPa 0,0 mm 3,4 km/h (1 Bft) O 96 ° 0 min 0,000 mm 0,0 UV-I 0 W/m² 2,3 °C 11,8 °C 6,4 km/h (2 Bft)
11.04.2018 22:32 11,8 °C 52 % 999,9 hPa 0,0 mm 1,6 km/h (1 Bft) O 96 ° 0 min 0,000 mm 0,0 UV-I 0 W/m² 2,3 °C 11,8 °C 3,2 km/h (1 Bft)
11.04.2018 22:33 11,9 °C 51 % 999,9 hPa 0,0 mm 2,5 km/h (1 Bft) O-SO 115 ° 0 min 0,000 mm 0,0 UV-I 0 W/m² 2,1 °C 11,9 °C 6,4 km/h (2 Bft)
11.04.2018 22:34 11,9 °C 49 % 999,9 hPa 0,0 mm 2,3 km/h (1 Bft) O 90 ° 0 min 0,000 mm 0,0 UV-I 0 W/m² 1,5 °C 11,9 °C 4,8 km/h (1 Bft)
11.04.2018 22:35 12,1 °C 50 % 999,9 hPa 0,0 mm 3,0 km/h (1 Bft) SO 134 ° 0 min 0,000 mm 0,0 UV-I 0 W/m² 2,0 °C 12,1 °C 6,4 km/h (2 Bft)
11.04.2018 22:36 12,1 °C 51 % 999,9 hPa 0,0 mm 0,2 km/h (0 Bft) SO 134 ° 0 min 0,000 mm 0,0 UV-I 0 W/m² 2,3 °C 12,1 °C 1,6 km/h (1 Bft)
11.04.2018 22:37 12,2 °C 49 % 999,8 hPa 0,0 mm 1,5 km/h (1 Bft) O 98 ° 0 min 0,000 mm 0,0 UV-I 0 W/m² 1,8 °C 12,2 °C 4,8 km/h (1 Bft)
11.04.2018 22:38 12,2 °C 50 % 999,8 hPa 0,0 mm 0,0 km/h (0 Bft) O 98 ° 0 min 0,000 mm 0,0 UV-I 0 W/m² 2,1 °C 12,2 °C 0,0 km/h (0 Bft)
11.04.2018 22:39 12,2 °C 49 % 999,8 hPa 0,0 mm 0,1 km/h (0 Bft) O 98 ° 0 min 0,000 mm 0,0 UV-I 0 W/m² 1,8 °C 12,2 °C 1,6 km/h (1 Bft)
11.04.2018 22:40 12,2 °C 52 % 999,8 hPa 0,0 mm 1,4 km/h (1 Bft) O 98 ° 0 min 0,000 mm 0,0 UV-I 0 W/m² 2,6 °C 12,2 °C 3,2 km/h (1 Bft)
11.04.2018 22:41 12,1 °C 50 % 999,8 hPa 0,0 mm 2,3 km/h (1 Bft) O 99 ° 0 min 0,000 mm 0,0 UV-I 0 W/m² 2,0 °C 12,1 °C 3,2 km/h (1 Bft)
11.04.2018 22:42 12,1 °C 50 % 999,8 hPa 0,0 mm 1,5 km/h (1 Bft) O-SO 111 ° 0 min 0,000 mm 0,0 UV-I 0 W/m² 2,0 °C 12,1 °C 3,2 km/h (1 Bft)
11.04.2018 22:43 12,1 °C 51 % 999,7 hPa 0,0 mm 0,0 km/h (0 Bft) O-SO 111 ° 0 min 0,000 mm 0,0 UV-I 0 W/m² 2,3 °C 12,1 °C 0,0 km/h (0 Bft)
11.04.2018 22:44 11,9 °C 51 % 999,8 hPa 0,0 mm 1,9 km/h (1 Bft) O-SO 111 ° 0 min 0,000 mm 0,0 UV-I 0 W/m² 2,1 °C 11,9 °C 4,8 km/h (1 Bft)
11.04.2018 22:45 11,9 °C 50 % 999,8 hPa 0,0 mm 3,2 km/h (1 Bft) O-SO 107 ° 0 min 0,000 mm 0,0 UV-I 0 W/m² 1,8 °C 11,9 °C 4,8 km/h (1 Bft)
11.04.2018 22:46 11,9 °C 49 % 999,8 hPa 0,0 mm 1,3 km/h (1 Bft) O-SO 107 ° 0 min 0,000 mm 0,0 UV-I 0 W/m² 1,5 °C 11,9 °C 3,2 km/h (1 Bft)
11.04.2018 22:47 11,9 °C 50 % 999,8 hPa 0,0 mm 1,3 km/h (1 Bft) O-SO 107 ° 0 min 0,000 mm 0,0 UV-I 0 W/m² 1,8 °C 11,9 °C 3,2 km/h (1 Bft)
11.04.2018 22:48 12,0 °C 51 % 999,8 hPa 0,0 mm 0,6 km/h (0 Bft) O-SO 108 ° 0 min 0,000 mm 0,0 UV-I 0 W/m² 2,2 °C 12,0 °C 3,2 km/h (1 Bft)
11.04.2018 22:49 12,0 °C 51 % 999,8 hPa 0,0 mm 0,1 km/h (0 Bft) NO 48 ° 0 min 0,000 mm 0,0 UV-I 0 W/m² 2,2 °C 12,0 °C 1,6 km/h (1 Bft)
11.04.2018 22:50 11,9 °C 51 % 999,8 hPa 0,0 mm 0,7 km/h (0 Bft) NO 48 ° 0 min 0,000 mm 0,0 UV-I 0 W/m² 2,1 °C 11,9 °C 3,2 km/h (1 Bft)
11.04.2018 22:51 11,9 °C 49 % 999,7 hPa 0,0 mm 1,1 km/h (1 Bft) NO 51 ° 0 min 0,000 mm 0,0 UV-I 0 W/m² 1,5 °C 11,9 °C 1,6 km/h (1 Bft)
11.04.2018 22:52 12,0 °C 50 % 999,7 hPa 0,0 mm 0,0 km/h (0 Bft) NO 51 ° 0 min 0,000 mm 0,0 UV-I 0 W/m² 1,9 °C 12,0 °C 0,0 km/h (0 Bft)
11.04.2018 22:53 12,0 °C 51 % 999,7 hPa 0,0 mm 0,3 km/h (0 Bft) NO 51 ° 0 min 0,000 mm 0,0 UV-I 0 W/m² 2,2 °C 12,0 °C 1,6 km/h (1 Bft)
11.04.2018 22:54 12,1 °C 49 % 999,7 hPa 0,0 mm 0,0 km/h (0 Bft) NO 51 ° 0 min 0,000 mm 0,0 UV-I 0 W/m² 1,7 °C 12,1 °C 0,0 km/h (0 Bft)
11.04.2018 22:55 11,9 °C 52 % 999,7 hPa 0,0 mm 0,2 km/h (0 Bft) NO 51 ° 0 min 0,000 mm 0,0 UV-I 0 W/m² 2,4 °C 11,9 °C 1,6 km/h (1 Bft)
11.04.2018 22:56 11,9 °C 51 % 999,7 hPa 0,0 mm 0,6 km/h (0 Bft) NO 51 ° 0 min 0,000 mm 0,0 UV-I 0 W/m² 2,1 °C 11,9 °C 1,6 km/h (1 Bft)
11.04.2018 22:57 11,8 °C 53 % 999,7 hPa 0,0 mm 1,5 km/h (1 Bft) NO 41 ° 0 min 0,000 mm 0,0 UV-I 0 W/m² 2,5 °C 11,8 °C 3,2 km/h (1 Bft)
11.04.2018 22:58 11,7 °C 51 % 999,7 hPa 0,0 mm 0,5 km/h (0 Bft) NO 41 ° 0 min 0,000 mm 0,0 UV-I 0 W/m² 1,9 °C 11,7 °C 1,6 km/h (1 Bft)
11.04.2018 22:59 11,8 °C 50 % 999,7 hPa 0,0 mm 0,1 km/h (0 Bft) NO 42 ° 0 min 0,000 mm 0,0 UV-I 0 W/m² 1,7 °C 11,8 °C 1,6 km/h (1 Bft)
11.04.2018 23:00 11,8 °C 51 % 999,7 hPa 0,0 mm 0,1 km/h (0 Bft) NO 49 ° 0 min 0,000 mm 0,0 UV-I 0 W/m² 2,0 °C 11,8 °C 1,6 km/h (1 Bft)
11.04.2018 23:01 11,9 °C 51 % 999,7 hPa 0,0 mm 3,1 km/h (1 Bft) O 93 ° 0 min 0,050 mm 0,0 UV-I 0 W/m² 2,1 °C 11,9 °C 4,8 km/h (1 Bft)
11.04.2018 23:02 11,9 °C 51 % 999,7 hPa 0,0 mm 4,1 km/h (1 Bft) O-SO 106 ° 0 min 0,000 mm 0,0 UV-I 0 W/m² 2,1 °C 11,9 °C 4,8 km/h (1 Bft)
11.04.2018 23:03 11,9 °C 50 % 999,7 hPa 0,0 mm 4,2 km/h (1 Bft) O-SO 107 ° 0 min 0,000 mm 0,0 UV-I 0 W/m² 1,8 °C 11,9 °C 4,8 km/h (1 Bft)
11.04.2018 23:04 11,9 °C 50 % 999,7 hPa 0,0 mm 3,8 km/h (1 Bft) O-SO 107 ° 0 min 0,000 mm 0,0 UV-I 0 W/m² 1,8 °C 11,9 °C 4,8 km/h (1 Bft)
11.04.2018 23:05 12,1 °C 49 % 999,7 hPa 0,0 mm 2,9 km/h (1 Bft) O-SO 117 ° 0 min 0,000 mm 0,0 UV-I 0 W/m² 1,7 °C 12,1 °C 4,8 km/h (1 Bft)
11.04.2018 23:06 12,0 °C 51 % 999,7 hPa 0,0 mm 1,4 km/h (1 Bft) O-SO 117 ° 0 min 0,000 mm 0,0 UV-I 0 W/m² 2,2 °C 12,0 °C 3,2 km/h (1 Bft)
11.04.2018 23:07 11,8 °C 53 % 999,7 hPa 0,0 mm 0,5 km/h (0 Bft) O-SO 117 ° 0 min 0,000 mm 0,0 UV-I 0 W/m² 2,5 °C 11,8 °C 1,6 km/h (1 Bft)
11.04.2018 23:08 11,7 °C 53 % 999,7 hPa 0,0 mm 1,3 km/h (1 Bft) O-SO 117 ° 0 min 0,000 mm 0,0 UV-I 0 W/m² 2,4 °C 11,7 °C 1,6 km/h (1 Bft)
11.04.2018 23:09 11,6 °C 52 % 999,6 hPa 0,0 mm 2,0 km/h (1 Bft) O-SO 117 ° 0 min 0,000 mm 0,0 UV-I 0 W/m² 2,1 °C 11,6 °C 3,2 km/h (1 Bft)
11.04.2018 23:10 11,6 °C 52 % 999,6 hPa 0,0 mm 2,3 km/h (1 Bft) O-SO 117 ° 0 min 0,000 mm 0,0 UV-I 0 W/m² 2,1 °C 11,6 °C 3,2 km/h (1 Bft)
11.04.2018 23:11 11,6 °C 52 % 999,6 hPa 0,0 mm 1,6 km/h (1 Bft) O-SO 117 ° 0 min 0,000 mm 0,0 UV-I 0 W/m² 2,1 °C 11,6 °C 3,2 km/h (1 Bft)
11.04.2018 23:12 11,6 °C 51 % 999,5 hPa 0,0 mm 0,0 km/h (0 Bft) O-SO 117 ° 0 min 0,000 mm 0,0 UV-I 0 W/m² 1,8 °C 11,6 °C 0,0 km/h (0 Bft)
11.04.2018 23:13 11,6 °C 52 % 999,6 hPa 0,0 mm 2,4 km/h (1 Bft) O-SO 117 ° 0 min 0,000 mm 0,0 UV-I 0 W/m² 2,1 °C 11,6 °C 3,2 km/h (1 Bft)
11.04.2018 23:14 11,6 °C 53 % 999,6 hPa 0,0 mm 1,9 km/h (1 Bft) O-SO 117 ° 0 min 0,000 mm 0,0 UV-I 0 W/m² 2,4 °C 11,6 °C 3,2 km/h (1 Bft)
11.04.2018 23:15 11,5 °C 53 % 999,6 hPa 0,0 mm 0,4 km/h (0 Bft) O-SO 108 ° 0 min 0,000 mm 0,0 UV-I 0 W/m² 2,3 °C 11,5 °C 3,2 km/h (1 Bft)
11.04.2018 23:16 11,3 °C 56 % 999,5 hPa 0,0 mm 1,7 km/h (1 Bft) NO 38 ° 0 min 0,000 mm 0,0 UV-I 0 W/m² 2,8 °C 11,3 °C 3,2 km/h (1 Bft)
11.04.2018 23:17 11,1 °C 57 % 999,6 hPa 0,0 mm 0,1 km/h (0 Bft) NO 38 ° 0 min 0,000 mm 0,0 UV-I 0 W/m² 2,9 °C 11,1 °C 1,6 km/h (1 Bft)
11.04.2018 23:18 10,8 °C 59 % 999,6 hPa 0,0 mm 0,0 km/h (0 Bft) NO 38 ° 0 min 0,000 mm 0,0 UV-I 0 W/m² 3,1 °C 10,8 °C 0,0 km/h (0 Bft)
11.04.2018 23:19 10,6 °C 59 % 999,5 hPa 0,0 mm 0,1 km/h (0 Bft) NO 38 ° 0 min 0,000 mm 0,0 UV-I 0 W/m² 2,9 °C 10,6 °C 1,6 km/h (1 Bft)
11.04.2018 23:20 10,4 °C 59 % 999,5 hPa 0,0 mm 0,2 km/h (0 Bft) NO 38 ° 0 min 0,000 mm 0,0 UV-I 0 W/m² 2,7 °C 10,4 °C 1,6 km/h (1 Bft)
11.04.2018 23:21 10,3 °C 59 % 999,5 hPa 0,0 mm 0,0 km/h (0 Bft) NO 38 ° 0 min 0,000 mm 0,0 UV-I 0 W/m² 2,6 °C 10,3 °C 0,0 km/h (0 Bft)
11.04.2018 23:22 10,3 °C 59 % 999,5 hPa 0,0 mm 0,0 km/h (0 Bft) NO 38 ° 0 min 0,000 mm 0,0 UV-I 0 W/m² 2,6 °C 10,3 °C 0,0 km/h (0 Bft)
11.04.2018 23:23 10,3 °C 59 % 999,4 hPa 0,0 mm 0,0 km/h (0 Bft) NO 38 ° 0 min 0,000 mm 0,0 UV-I 0 W/m² 2,6 °C 10,3 °C 0,0 km/h (0 Bft)
11.04.2018 23:24 10,4 °C 59 % 999,5 hPa 0,0 mm 2,3 km/h (1 Bft) NO 38 ° 0 min 0,000 mm 0,0 UV-I 0 W/m² 2,7 °C 10,4 °C 3,2 km/h (1 Bft)
11.04.2018 23:25 10,4 °C 59 % 999,5 hPa 0,0 mm 0,8 km/h (0 Bft) NO 38 ° 0 min 0,000 mm 0,0 UV-I 0 W/m² 2,7 °C 10,4 °C 3,2 km/h (1 Bft)
11.04.2018 23:26 10,5 °C 58 % 999,4 hPa 0,0 mm 1,5 km/h (1 Bft) O 86 ° 0 min 0,000 mm 0,0 UV-I 0 W/m² 2,6 °C 10,5 °C 4,8 km/h (1 Bft)
11.04.2018 23:27 10,6 °C 57 % 999,4 hPa 0,0 mm 2,8 km/h (1 Bft) O 86 ° 0 min 0,000 mm 0,0 UV-I 0 W/m² 2,4 °C 10,6 °C 4,8 km/h (1 Bft)
11.04.2018 23:28 10,6 °C 59 % 999,4 hPa 0,0 mm 0,5 km/h (0 Bft) O 86 ° 0 min 0,000 mm 0,0 UV-I 0 W/m² 2,9 °C 10,6 °C 1,6 km/h (1 Bft)
11.04.2018 23:29 10,6 °C 58 % 999,4 hPa 0,0 mm 0,5 km/h (0 Bft) O 86 ° 0 min 0,000 mm 0,0 UV-I 0 W/m² 2,7 °C 10,6 °C 1,6 km/h (1 Bft)
11.04.2018 23:30 10,6 °C 58 % 999,3 hPa 0,0 mm 0,0 km/h (0 Bft) O 86 ° 0 min 0,000 mm 0,0 UV-I 0 W/m² 2,7 °C 10,6 °C 0,0 km/h (0 Bft)
11.04.2018 23:31 10,6 °C 57 % 999,3 hPa 0,0 mm 0,0 km/h (0 Bft) O 86 ° 0 min 0,000 mm 0,0 UV-I 0 W/m² 2,4 °C 10,6 °C 0,0 km/h (0 Bft)
11.04.2018 23:32 10,6 °C 57 % 999,3 hPa 0,0 mm 0,0 km/h (0 Bft) O 86 ° 0 min 0,000 mm 0,0 UV-I 0 W/m² 2,4 °C 10,6 °C 0,0 km/h (0 Bft)
11.04.2018 23:33 10,6 °C 57 % 999,3 hPa 0,0 mm 0,0 km/h (0 Bft) O 86 ° 0 min 0,000 mm 0,0 UV-I 0 W/m² 2,4 °C 10,6 °C 0,0 km/h (0 Bft)
11.04.2018 23:34 10,6 °C 56 % 999,3 hPa 0,0 mm 2,7 km/h (1 Bft) O 86 ° 0 min 0,000 mm 0,0 UV-I 0 W/m² 2,2 °C 10,6 °C 4,8 km/h (1 Bft)
11.04.2018 23:35 10,6 °C 56 % 999,2 hPa 0,0 mm 4,8 km/h (1 Bft) O-SO 110 ° 0 min 0,000 mm 0,0 UV-I 0 W/m² 2,2 °C 10,6 °C 6,4 km/h (2 Bft)
11.04.2018 23:36 10,7 °C 56 % 999,3 hPa 0,0 mm 3,4 km/h (1 Bft) SO 129 ° 0 min 0,000 mm 0,0 UV-I 0 W/m² 2,3 °C 10,7 °C 4,8 km/h (1 Bft)
11.04.2018 23:37 10,7 °C 55 % 999,3 hPa 0,0 mm 3,1 km/h (1 Bft) SO 129 ° 0 min 0,000 mm 0,0 UV-I 0 W/m² 2,0 °C 10,7 °C 3,2 km/h (1 Bft)
11.04.2018 23:38 10,6 °C 56 % 999,2 hPa 0,0 mm 2,6 km/h (1 Bft) SO 129 ° 0 min 0,000 mm 0,0 UV-I 0 W/m² 2,2 °C 10,6 °C 4,8 km/h (1 Bft)
11.04.2018 23:39 10,6 °C 56 % 999,3 hPa 0,0 mm 1,5 km/h (1 Bft) SO 129 ° 0 min 0,000 mm 0,0 UV-I 0 W/m² 2,2 °C 10,6 °C 3,2 km/h (1 Bft)
11.04.2018 23:40 10,6 °C 57 % 999,2 hPa 0,0 mm 0,0 km/h (0 Bft) SO 129 ° 0 min 0,000 mm 0,0 UV-I 0 W/m² 2,4 °C 10,6 °C 0,0 km/h (0 Bft)
11.04.2018 23:41 10,6 °C 55 % 999,2 hPa 0,0 mm 1,1 km/h (1 Bft) SO 129 ° 0 min 0,000 mm 0,0 UV-I 0 W/m² 1,9 °C 10,6 °C 4,8 km/h (1 Bft)
11.04.2018 23:42 10,6 °C 56 % 999,1 hPa 0,0 mm 2,6 km/h (1 Bft) SO 129 ° 0 min 0,000 mm 0,0 UV-I 0 W/m² 2,2 °C 10,6 °C 3,2 km/h (1 Bft)
11.04.2018 23:43 10,6 °C 56 % 999,1 hPa 0,0 mm 1,7 km/h (1 Bft) SO 129 ° 0 min 0,000 mm 0,0 UV-I 0 W/m² 2,2 °C 10,6 °C 3,2 km/h (1 Bft)
11.04.2018 23:44 10,7 °C 56 % 999,1 hPa 0,0 mm 1,3 km/h (1 Bft) SO 129 ° 0 min 0,000 mm 0,0 UV-I 0 W/m² 2,3 °C 10,7 °C 1,6 km/h (1 Bft)
11.04.2018 23:45 10,7 °C 55 % 999,0 hPa 0,0 mm 0,1 km/h (0 Bft) SO 129 ° 0 min 0,000 mm 0,0 UV-I 0 W/m² 2,0 °C 10,7 °C 1,6 km/h (1 Bft)
11.04.2018 23:46 10,7 °C 55 % 999,0 hPa 0,0 mm 2,2 km/h (1 Bft) SO 129 ° 0 min 0,000 mm 0,0 UV-I 0 W/m² 2,0 °C 10,7 °C 4,8 km/h (1 Bft)
11.04.2018 23:47 10,7 °C 55 % 999,0 hPa 0,0 mm 1,5 km/h (1 Bft) SO 129 ° 0 min 0,000 mm 0,0 UV-I 0 W/m² 2,0 °C 10,7 °C 3,2 km/h (1 Bft)
11.04.2018 23:48 10,8 °C 55 % 999,0 hPa 0,0 mm 1,7 km/h (1 Bft) SO 129 ° 0 min 0,000 mm 0,0 UV-I 0 W/m² 2,1 °C 10,8 °C 3,2 km/h (1 Bft)
11.04.2018 23:49 10,8 °C 55 % 999,0 hPa 0,0 mm 0,3 km/h (0 Bft) SO 129 ° 0 min 0,000 mm 0,0 UV-I 0 W/m² 2,1 °C 10,8 °C 1,6 km/h (1 Bft)
11.04.2018 23:50 10,8 °C 55 % 999,0 hPa 0,0 mm 0,0 km/h (0 Bft) SO 129 ° 0 min 0,000 mm 0,0 UV-I 0 W/m² 2,1 °C 10,8 °C 0,0 km/h (0 Bft)
11.04.2018 23:51 10,7 °C 55 % 998,9 hPa 0,0 mm 1,7 km/h (1 Bft) SO 129 ° 0 min 0,000 mm 0,0 UV-I 0 W/m² 2,0 °C 10,7 °C 3,2 km/h (1 Bft)
11.04.2018 23:52 10,7 °C 55 % 998,9 hPa 0,0 mm 1,3 km/h (1 Bft) SO 129 ° 0 min 0,000 mm 0,0 UV-I 0 W/m² 2,0 °C 10,7 °C 3,2 km/h (1 Bft)
11.04.2018 23:53 10,7 °C 55 % 998,9 hPa 0,0 mm 2,0 km/h (1 Bft) SO 129 ° 0 min 0,000 mm 0,0 UV-I 0 W/m² 2,0 °C 10,7 °C 3,2 km/h (1 Bft)
11.04.2018 23:54 10,7 °C 55 % 998,9 hPa 0,0 mm 3,0 km/h (1 Bft) O-SO 111 ° 0 min 0,000 mm 0,0 UV-I 0 W/m² 2,0 °C 10,7 °C 4,8 km/h (1 Bft)
11.04.2018 23:55 10,8 °C 55 % 998,9 hPa 0,0 mm 4,2 km/h (1 Bft) O-SO 122 ° 0 min 0,000 mm 0,0 UV-I 0 W/m² 2,1 °C 10,8 °C 4,8 km/h (1 Bft)
11.04.2018 23:56 10,8 °C 56 % 998,9 hPa 0,0 mm 2,1 km/h (1 Bft) SO 128 ° 0 min 0,000 mm 0,0 UV-I 0 W/m² 2,4 °C 10,8 °C 3,2 km/h (1 Bft)
11.04.2018 23:57 10,7 °C 55 % 998,9 hPa 0,0 mm 2,1 km/h (1 Bft) SO 128 ° 0 min 0,000 mm 0,0 UV-I 0 W/m² 2,0 °C 10,7 °C 3,2 km/h (1 Bft)
11.04.2018 23:58 10,8 °C 55 % 998,9 hPa 0,0 mm 2,4 km/h (1 Bft) SO 140 ° 0 min 0,000 mm 0,0 UV-I 0 W/m² 2,1 °C 10,8 °C 4,8 km/h (1 Bft)
11.04.2018 23:59 10,8 °C 55 % 998,9 hPa 0,0 mm 2,1 km/h (1 Bft) SO 144 ° 0 min 0,000 mm 0,0 UV-I 0 W/m² 2,1 °C 10,8 °C 3,2 km/h (1 Bft)
_ Min-Zeit 07:28 17:08 23:59 - 23:50 - - - - - - 17:08 07:28 23:50
Minimum _ 3,2 °C 32 % 998,9 hPa - 0,0 km/h (0 Bft) - - - - - - -0,3 °C 3,2 °C 0,0 km/h (0 Bft)
_ Max-Zeit 15:50 08:05 07:34 23:59 16:37 - - 16:37 14:01 13:32 13:42 08:59 15:50 14:08
Maximum _ 17,6 °C 94 % 1004,8 hPa 0,0 mm 17,1 km/h
NO (3 Bft)
- - 1 min 0,483 mm 5,3 UV-I 802 W/m² 6,2 °C 17,6 °C 25,7 km/h
N-NO (4 Bft)
Durchschnitt _ 11,0 °C 63 % 1002,8 hPa #0,0 mm 3,4 km/h (1 Bft) O-NO - #7:35 h #3,454 mm 3,1 UV-I 228 W/m² 3,3 °C 10,9 °C 5,7 km/h (1 Bft)